<?xml version='1.0' encoding='UTF-8'?><gpx version="1.1" creator="JPX - https://github.com/jenetics/jpx" xmlns="http://www.topografix.com/GPX/1/1"><trk><trkseg><trkpt lat="45.6870448" lon="9.5670911"><ele>231.0</ele><time>2026-04-04T13:06:40.809Z</time></trkpt><trkpt lat="45.6870043" lon="9.5670104"><ele>231.0</ele><time>2026-04-04T13:06:43.809Z</time></trkpt><trkpt lat="45.6869566" lon="9.5669079"><ele>231.0</ele><time>2026-04-04T13:06:46.81Z</time></trkpt><trkpt lat="45.686931" lon="9.5668189"><ele>231.0</ele><time>2026-04-04T13:06:48.813Z</time></trkpt><trkpt lat="45.6869099" lon="9.5667164"><ele>231.0</ele><time>2026-04-04T13:06:50.813Z</time></trkpt><trkpt lat="45.6868802" lon="9.5666165"><ele>231.0</ele><time>2026-04-04T13:06:52.819Z</time></trkpt><trkpt lat="45.6868456" lon="9.5665006"><ele>231.0</ele><time>2026-04-04T13:06:54.808Z</time></trkpt><trkpt lat="45.686801" lon="9.566387"><ele>231.0</ele><time>2026-04-04T13:06:56.818Z</time></trkpt><trkpt lat="45.6867724" lon="9.56627"><ele>231.0</ele><time>2026-04-04T13:06:58.815Z</time></trkpt><trkpt lat="45.6867273" lon="9.5661724"><ele>231.0</ele><time>2026-04-04T13:07:00.811Z</time></trkpt><trkpt lat="45.6866836" lon="9.5660708"><ele>231.0</ele><time>2026-04-04T13:07:02.818Z</time></trkpt><trkpt lat="45.68664" lon="9.5659613"><ele>231.0</ele><time>2026-04-04T13:07:04.809Z</time></trkpt><trkpt lat="45.6865961" lon="9.5658415"><ele>230.60000000000002</ele><time>2026-04-04T13:07:06.809Z</time></trkpt><trkpt lat="45.6865882" lon="9.5657175"><ele>230.20000000000002</ele><time>2026-04-04T13:07:08.812Z</time></trkpt><trkpt lat="45.6866182" lon="9.5655986"><ele>229.79999999999998</ele><time>2026-04-04T13:07:10.807Z</time></trkpt><trkpt lat="45.6866622" lon="9.5654733"><ele>229.39999999999998</ele><time>2026-04-04T13:07:12.81Z</time></trkpt><trkpt lat="45.6866987" lon="9.5653407"><ele>229.0</ele><time>2026-04-04T13:07:14.814Z</time></trkpt><trkpt lat="45.686735" lon="9.5652122"><ele>228.79999999999998</ele><time>2026-04-04T13:07:16.809Z</time></trkpt><trkpt lat="45.6867751" lon="9.5650819"><ele>228.59999999999997</ele><time>2026-04-04T13:07:18.809Z</time></trkpt><trkpt lat="45.6868099" lon="9.5649528"><ele>228.4</ele><time>2026-04-04T13:07:20.814Z</time></trkpt><trkpt lat="45.6868404" lon="9.5648326"><ele>228.2</ele><time>2026-04-04T13:07:22.812Z</time></trkpt><trkpt lat="45.6868726" lon="9.5647146"><ele>228.0</ele><time>2026-04-04T13:07:24.817Z</time></trkpt><trkpt lat="45.6869026" lon="9.5645915"><ele>228.16666666666666</ele><time>2026-04-04T13:07:26.814Z</time></trkpt><trkpt lat="45.6869414" lon="9.5644746"><ele>228.33333333333331</ele><time>2026-04-04T13:07:28.813Z</time></trkpt><trkpt lat="45.6869577" lon="9.5643692"><ele>228.5</ele><time>2026-04-04T13:07:30.81Z</time></trkpt><trkpt lat="45.6869095" lon="9.5642944"><ele>228.66666666666666</ele><time>2026-04-04T13:07:32.81Z</time></trkpt><trkpt lat="45.6868408" lon="9.5642568"><ele>228.83333333333331</ele><time>2026-04-04T13:07:34.813Z</time></trkpt><trkpt lat="45.686759" lon="9.5642284"><ele>229.0</ele><time>2026-04-04T13:07:36.822Z</time></trkpt><trkpt lat="45.6866681" lon="9.5641932"><ele>229.0</ele><time>2026-04-04T13:07:38.814Z</time></trkpt><trkpt lat="45.6865765" lon="9.5641434"><ele>228.99999999999997</ele><time>2026-04-04T13:07:40.813Z</time></trkpt><trkpt lat="45.686483" lon="9.5640914"><ele>228.99999999999997</ele><time>2026-04-04T13:07:42.812Z</time></trkpt><trkpt lat="45.6863905" lon="9.5640441"><ele>229.0</ele><time>2026-04-04T13:07:44.811Z</time></trkpt><trkpt lat="45.6863024" lon="9.5639872"><ele>229.0</ele><time>2026-04-04T13:07:46.812Z</time></trkpt><trkpt lat="45.6862122" lon="9.5639483"><ele>229.0</ele><time>2026-04-04T13:07:48.813Z</time></trkpt><trkpt lat="45.686143" lon="9.5639064"><ele>229.0</ele><time>2026-04-04T13:07:50.81Z</time></trkpt><trkpt lat="45.6861221" lon="9.5638164"><ele>229.0</ele><time>2026-04-04T13:07:52.812Z</time></trkpt><trkpt lat="45.6860882" lon="9.5637169"><ele>229.0</ele><time>2026-04-04T13:07:54.814Z</time></trkpt><trkpt lat="45.6860686" lon="9.5636077"><ele>229.0</ele><time>2026-04-04T13:07:56.811Z</time></trkpt><trkpt lat="45.6860093" lon="9.5635557"><ele>229.0</ele><time>2026-04-04T13:07:58.813Z</time></trkpt><trkpt lat="45.6859306" lon="9.5635718"><ele>229.0</ele><time>2026-04-04T13:08:00.811Z</time></trkpt><trkpt lat="45.6858488" lon="9.5635933"><ele>229.0</ele><time>2026-04-04T13:08:02.816Z</time></trkpt><trkpt lat="45.6857743" lon="9.5635418"><ele>228.99999999999997</ele><time>2026-04-04T13:08:04.815Z</time></trkpt><trkpt lat="45.6856812" lon="9.5635306"><ele>228.99999999999997</ele><time>2026-04-04T13:08:06.819Z</time></trkpt><trkpt lat="45.685581" lon="9.5635367"><ele>229.0</ele><time>2026-04-04T13:08:08.811Z</time></trkpt><trkpt lat="45.6854798" lon="9.5635477"><ele>229.0</ele><time>2026-04-04T13:08:10.812Z</time></trkpt><trkpt lat="45.6853715" lon="9.5635752"><ele>228.75</ele><time>2026-04-04T13:08:12.816Z</time></trkpt><trkpt lat="45.6852587" lon="9.5635943"><ele>228.5</ele><time>2026-04-04T13:08:14.811Z</time></trkpt><trkpt lat="45.6851426" lon="9.563616"><ele>228.25</ele><time>2026-04-04T13:08:16.811Z</time></trkpt><trkpt lat="45.6850264" lon="9.5636251"><ele>228.0</ele><time>2026-04-04T13:08:18.818Z</time></trkpt><trkpt lat="45.6849173" lon="9.5636516"><ele>228.0</ele><time>2026-04-04T13:08:20.813Z</time></trkpt><trkpt lat="45.6847994" lon="9.5636758"><ele>228.0</ele><time>2026-04-04T13:08:22.82Z</time></trkpt><trkpt lat="45.6847351" lon="9.5636841"><ele>228.0</ele><time>2026-04-04T13:08:23.816Z</time></trkpt><trkpt lat="45.6846137" lon="9.5636987"><ele>228.0</ele><time>2026-04-04T13:08:25.814Z</time></trkpt><trkpt lat="45.6845028" lon="9.5637155"><ele>228.0</ele><time>2026-04-04T13:08:27.819Z</time></trkpt><trkpt lat="45.6843785" lon="9.5637413"><ele>228.0</ele><time>2026-04-04T13:08:29.816Z</time></trkpt><trkpt lat="45.6843147" lon="9.5637442"><ele>228.0</ele><time>2026-04-04T13:08:30.817Z</time></trkpt><trkpt lat="45.6841953" lon="9.5637579"><ele>228.0</ele><time>2026-04-04T13:08:32.818Z</time></trkpt><trkpt lat="45.6840745" lon="9.5637786"><ele>228.0</ele><time>2026-04-04T13:08:34.811Z</time></trkpt><trkpt lat="45.6839525" lon="9.5637921"><ele>228.0</ele><time>2026-04-04T13:08:36.817Z</time></trkpt><trkpt lat="45.6838399" lon="9.5638024"><ele>228.0</ele><time>2026-04-04T13:08:38.821Z</time></trkpt><trkpt lat="45.6837299" lon="9.5637655"><ele>228.0</ele><time>2026-04-04T13:08:40.816Z</time></trkpt><trkpt lat="45.6836526" lon="9.5636586"><ele>228.0</ele><time>2026-04-04T13:08:42.814Z</time></trkpt><trkpt lat="45.6836238" lon="9.563494"><ele>228.0</ele><time>2026-04-04T13:08:44.811Z</time></trkpt><trkpt lat="45.6836203" lon="9.5633219"><ele>228.0</ele><time>2026-04-04T13:08:46.811Z</time></trkpt><trkpt lat="45.683608" lon="9.563145"><ele>228.0</ele><time>2026-04-04T13:08:48.814Z</time></trkpt><trkpt lat="45.6836074" lon="9.562972"><ele>228.0</ele><time>2026-04-04T13:08:50.811Z</time></trkpt><trkpt lat="45.6836052" lon="9.5627943"><ele>228.0</ele><time>2026-04-04T13:08:52.816Z</time></trkpt><trkpt lat="45.6836038" lon="9.5626234"><ele>228.0</ele><time>2026-04-04T13:08:54.812Z</time></trkpt><trkpt lat="45.6836147" lon="9.5624527"><ele>228.0</ele><time>2026-04-04T13:08:56.821Z</time></trkpt><trkpt lat="45.6836165" lon="9.5622803"><ele>228.0</ele><time>2026-04-04T13:08:58.819Z</time></trkpt><trkpt lat="45.6836192" lon="9.5621086"><ele>228.0</ele><time>2026-04-04T13:09:00.821Z</time></trkpt><trkpt lat="45.6836261" lon="9.561931"><ele>227.5</ele><time>2026-04-04T13:09:02.814Z</time></trkpt><trkpt lat="45.683628" lon="9.561764"><ele>227.0</ele><time>2026-04-04T13:09:04.816Z</time></trkpt><trkpt lat="45.683627" lon="9.5615871"><ele>226.5</ele><time>2026-04-04T13:09:06.814Z</time></trkpt><trkpt lat="45.6836282" lon="9.5614114"><ele>226.0</ele><time>2026-04-04T13:09:08.81Z</time></trkpt><trkpt lat="45.6836209" lon="9.561269"><ele>226.20000000000002</ele><time>2026-04-04T13:09:10.813Z</time></trkpt><trkpt lat="45.6835575" lon="9.5612069"><ele>226.40000000000003</ele><time>2026-04-04T13:09:12.811Z</time></trkpt><trkpt lat="45.6834776" lon="9.5611986"><ele>226.6</ele><time>2026-04-04T13:09:14.81Z</time></trkpt><trkpt lat="45.6833842" lon="9.5612007"><ele>226.8</ele><time>2026-04-04T13:09:16.817Z</time></trkpt><trkpt lat="45.6832808" lon="9.5612036"><ele>227.0</ele><time>2026-04-04T13:09:18.82Z</time></trkpt><trkpt lat="45.6831735" lon="9.561189"><ele>227.0</ele><time>2026-04-04T13:09:20.812Z</time></trkpt><trkpt lat="45.6830556" lon="9.5611968"><ele>227.0</ele><time>2026-04-04T13:09:22.809Z</time></trkpt><trkpt lat="45.6829369" lon="9.5612032"><ele>227.0</ele><time>2026-04-04T13:09:24.821Z</time></trkpt><trkpt lat="45.6828204" lon="9.5611919"><ele>227.0</ele><time>2026-04-04T13:09:26.813Z</time></trkpt><trkpt lat="45.6827047" lon="9.5611971"><ele>227.5</ele><time>2026-04-04T13:09:28.813Z</time></trkpt><trkpt lat="45.6825882" lon="9.5612017"><ele>228.0</ele><time>2026-04-04T13:09:30.81Z</time></trkpt><trkpt lat="45.6824703" lon="9.5612007"><ele>228.5</ele><time>2026-04-04T13:09:32.812Z</time></trkpt><trkpt lat="45.6823516" lon="9.5611987"><ele>229.0</ele><time>2026-04-04T13:09:34.815Z</time></trkpt><trkpt lat="45.6822363" lon="9.5611965"><ele>229.0</ele><time>2026-04-04T13:09:36.814Z</time></trkpt><trkpt lat="45.6821331" lon="9.5611953"><ele>228.99999999999997</ele><time>2026-04-04T13:09:38.81Z</time></trkpt><trkpt lat="45.6820294" lon="9.561201"><ele>228.99999999999997</ele><time>2026-04-04T13:09:40.812Z</time></trkpt><trkpt lat="45.6819256" lon="9.5612018"><ele>229.0</ele><time>2026-04-04T13:09:42.812Z</time></trkpt><trkpt lat="45.6818384" lon="9.5611992"><ele>229.0</ele><time>2026-04-04T13:09:44.821Z</time></trkpt><trkpt lat="45.6817933" lon="9.5611363"><ele>228.6</ele><time>2026-04-04T13:09:46.81Z</time></trkpt><trkpt lat="45.6817753" lon="9.561027"><ele>228.2</ele><time>2026-04-04T13:09:48.815Z</time></trkpt><trkpt lat="45.6817662" lon="9.5609001"><ele>227.79999999999998</ele><time>2026-04-04T13:09:50.811Z</time></trkpt><trkpt lat="45.681754" lon="9.5607687"><ele>227.39999999999998</ele><time>2026-04-04T13:09:52.821Z</time></trkpt><trkpt lat="45.6816958" lon="9.5606793"><ele>227.0</ele><time>2026-04-04T13:09:54.815Z</time></trkpt><trkpt lat="45.6815835" lon="9.5606618"><ele>227.0</ele><time>2026-04-04T13:09:56.812Z</time></trkpt><trkpt lat="45.6814654" lon="9.5606615"><ele>227.0</ele><time>2026-04-04T13:09:58.817Z</time></trkpt><trkpt lat="45.681345" lon="9.5606592"><ele>227.0</ele><time>2026-04-04T13:10:00.814Z</time></trkpt><trkpt lat="45.6812265" lon="9.5606576"><ele>227.0</ele><time>2026-04-04T13:10:02.814Z</time></trkpt><trkpt lat="45.6811642" lon="9.5606754"><ele>227.0</ele><time>2026-04-04T13:10:03.816Z</time></trkpt><trkpt lat="45.6810461" lon="9.5606729"><ele>227.0</ele><time>2026-04-04T13:10:05.817Z</time></trkpt><trkpt lat="45.6809259" lon="9.5606815"><ele>227.0</ele><time>2026-04-04T13:10:07.814Z</time></trkpt><trkpt lat="45.6808112" lon="9.5606738"><ele>227.0</ele><time>2026-04-04T13:10:09.819Z</time></trkpt><trkpt lat="45.6806944" lon="9.5606679"><ele>227.0</ele><time>2026-04-04T13:10:11.811Z</time></trkpt><trkpt lat="45.6805751" lon="9.5606739"><ele>227.0</ele><time>2026-04-04T13:10:13.817Z</time></trkpt><trkpt lat="45.6804675" lon="9.5606759"><ele>227.0</ele><time>2026-04-04T13:10:15.814Z</time></trkpt><trkpt lat="45.680354" lon="9.5606832"><ele>227.0</ele><time>2026-04-04T13:10:17.818Z</time></trkpt><trkpt lat="45.6802471" lon="9.5606717"><ele>227.0</ele><time>2026-04-04T13:10:19.816Z</time></trkpt><trkpt lat="45.6801705" lon="9.5605715"><ele>227.0</ele><time>2026-04-04T13:10:21.814Z</time></trkpt><trkpt lat="45.6801232" lon="9.5604229"><ele>227.0</ele><time>2026-04-04T13:10:23.811Z</time></trkpt><trkpt lat="45.6800844" lon="9.5602739"><ele>227.0</ele><time>2026-04-04T13:10:25.815Z</time></trkpt><trkpt lat="45.6800476" lon="9.5601165"><ele>227.0</ele><time>2026-04-04T13:10:27.813Z</time></trkpt><trkpt lat="45.6800122" lon="9.5599623"><ele>227.0</ele><time>2026-04-04T13:10:29.82Z</time></trkpt><trkpt lat="45.6799715" lon="9.5598144"><ele>227.0</ele><time>2026-04-04T13:10:31.815Z</time></trkpt><trkpt lat="45.6799323" lon="9.5596597"><ele>227.0</ele><time>2026-04-04T13:10:33.813Z</time></trkpt><trkpt lat="45.679911" lon="9.5595125"><ele>227.0</ele><time>2026-04-04T13:10:35.816Z</time></trkpt><trkpt lat="45.6799" lon="9.5593532"><ele>227.0</ele><time>2026-04-04T13:10:37.825Z</time></trkpt><trkpt lat="45.6798905" lon="9.5591986"><ele>227.0</ele><time>2026-04-04T13:10:39.815Z</time></trkpt><trkpt lat="45.6799018" lon="9.5590796"><ele>227.16666666666669</ele><time>2026-04-04T13:10:41.813Z</time></trkpt><trkpt lat="45.679907" lon="9.5589791"><ele>227.33333333333334</ele><time>2026-04-04T13:10:45.81Z</time></trkpt><trkpt lat="45.6799475" lon="9.5588832"><ele>227.5</ele><time>2026-04-04T13:10:48.811Z</time></trkpt><trkpt lat="45.6799692" lon="9.5587849"><ele>227.66666666666669</ele><time>2026-04-04T13:10:50.816Z</time></trkpt><trkpt lat="45.6799429" lon="9.5586929"><ele>227.83333333333334</ele><time>2026-04-04T13:10:53.815Z</time></trkpt><trkpt lat="45.6798486" lon="9.5586988"><ele>228.0</ele><time>2026-04-04T13:10:55.812Z</time></trkpt><trkpt lat="45.6797622" lon="9.5587023"><ele>228.0</ele><time>2026-04-04T13:10:57.819Z</time></trkpt><trkpt lat="45.6796732" lon="9.5587087"><ele>228.0</ele><time>2026-04-04T13:10:59.807Z</time></trkpt><trkpt lat="45.6795765" lon="9.558702"><ele>228.0</ele><time>2026-04-04T13:11:01.815Z</time></trkpt><trkpt lat="45.6794773" lon="9.5586928"><ele>228.0</ele><time>2026-04-04T13:11:03.81Z</time></trkpt><trkpt lat="45.679363" lon="9.5587095"><ele>228.0</ele><time>2026-04-04T13:11:05.819Z</time></trkpt><trkpt lat="45.6792421" lon="9.5587404"><ele>227.60000000000002</ele><time>2026-04-04T13:11:07.814Z</time></trkpt><trkpt lat="45.6791257" lon="9.5587796"><ele>227.20000000000002</ele><time>2026-04-04T13:11:09.81Z</time></trkpt><trkpt lat="45.6790593" lon="9.5588176"><ele>226.8</ele><time>2026-04-04T13:11:10.816Z</time></trkpt><trkpt lat="45.6789417" lon="9.5588456"><ele>226.4</ele><time>2026-04-04T13:11:12.812Z</time></trkpt><trkpt lat="45.6788224" lon="9.558886"><ele>226.0</ele><time>2026-04-04T13:11:14.813Z</time></trkpt><trkpt lat="45.6787609" lon="9.5589177"><ele>226.0</ele><time>2026-04-04T13:11:15.812Z</time></trkpt><trkpt lat="45.6786999" lon="9.5589432"><ele>226.00000000000003</ele><time>2026-04-04T13:11:16.813Z</time></trkpt><trkpt lat="45.678635" lon="9.558957"><ele>226.00000000000003</ele><time>2026-04-04T13:11:17.815Z</time></trkpt><trkpt lat="45.6785141" lon="9.559006"><ele>226.0</ele><time>2026-04-04T13:11:19.816Z</time></trkpt><trkpt lat="45.6783994" lon="9.5590259"><ele>226.0</ele><time>2026-04-04T13:11:21.81Z</time></trkpt><trkpt lat="45.6782858" lon="9.5590523"><ele>225.4</ele><time>2026-04-04T13:11:23.814Z</time></trkpt><trkpt lat="45.678175" lon="9.5591056"><ele>224.8</ele><time>2026-04-04T13:11:25.813Z</time></trkpt><trkpt lat="45.6780616" lon="9.5591394"><ele>224.20000000000002</ele><time>2026-04-04T13:11:27.814Z</time></trkpt><trkpt lat="45.6779988" lon="9.5591603"><ele>223.60000000000002</ele><time>2026-04-04T13:11:28.811Z</time></trkpt><trkpt lat="45.6778777" lon="9.5592002"><ele>223.0</ele><time>2026-04-04T13:11:30.809Z</time></trkpt><trkpt lat="45.677814" lon="9.5592212"><ele>222.83333333333331</ele><time>2026-04-04T13:11:31.813Z</time></trkpt><trkpt lat="45.6777482" lon="9.5592532"><ele>222.66666666666666</ele><time>2026-04-04T13:11:32.809Z</time></trkpt><trkpt lat="45.6776819" lon="9.5592784"><ele>222.5</ele><time>2026-04-04T13:11:33.81Z</time></trkpt><trkpt lat="45.6775587" lon="9.5593073"><ele>222.33333333333331</ele><time>2026-04-04T13:11:35.814Z</time></trkpt><trkpt lat="45.6774891" lon="9.559323"><ele>222.16666666666666</ele><time>2026-04-04T13:11:36.814Z</time></trkpt><trkpt lat="45.6774231" lon="9.5593332"><ele>222.0</ele><time>2026-04-04T13:11:37.814Z</time></trkpt><trkpt lat="45.677358" lon="9.5593477"><ele>222.0</ele><time>2026-04-04T13:11:38.81Z</time></trkpt><trkpt lat="45.6772878" lon="9.5593511"><ele>222.0</ele><time>2026-04-04T13:11:39.813Z</time></trkpt><trkpt lat="45.6772193" lon="9.5593651"><ele>222.0</ele><time>2026-04-04T13:11:40.811Z</time></trkpt><trkpt lat="45.677154" lon="9.5593787"><ele>222.0</ele><time>2026-04-04T13:11:41.816Z</time></trkpt><trkpt lat="45.6770832" lon="9.5593868"><ele>222.0</ele><time>2026-04-04T13:11:42.811Z</time></trkpt><trkpt lat="45.6770146" lon="9.5593959"><ele>222.0</ele><time>2026-04-04T13:11:43.812Z</time></trkpt><trkpt lat="45.6769437" lon="9.5594125"><ele>222.0</ele><time>2026-04-04T13:11:44.81Z</time></trkpt><trkpt lat="45.6768699" lon="9.5594289"><ele>222.0</ele><time>2026-04-04T13:11:45.812Z</time></trkpt><trkpt lat="45.676802" lon="9.5594435"><ele>222.0</ele><time>2026-04-04T13:11:46.817Z</time></trkpt><trkpt lat="45.6767343" lon="9.5594561"><ele>222.0</ele><time>2026-04-04T13:11:47.809Z</time></trkpt><trkpt lat="45.6766621" lon="9.5594705"><ele>222.0</ele><time>2026-04-04T13:11:48.812Z</time></trkpt><trkpt lat="45.6765936" lon="9.5594762"><ele>222.0</ele><time>2026-04-04T13:11:49.809Z</time></trkpt><trkpt lat="45.6765234" lon="9.5594888"><ele>222.0</ele><time>2026-04-04T13:11:50.812Z</time></trkpt><trkpt lat="45.6764541" lon="9.5595065"><ele>222.0</ele><time>2026-04-04T13:11:51.813Z</time></trkpt><trkpt lat="45.6763861" lon="9.559529"><ele>222.0</ele><time>2026-04-04T13:11:52.811Z</time></trkpt><trkpt lat="45.6763185" lon="9.5595508"><ele>222.0</ele><time>2026-04-04T13:11:53.816Z</time></trkpt><trkpt lat="45.676249" lon="9.5595715"><ele>222.0</ele><time>2026-04-04T13:11:54.814Z</time></trkpt><trkpt lat="45.6761813" lon="9.5595853"><ele>222.0</ele><time>2026-04-04T13:11:55.813Z</time></trkpt><trkpt lat="45.676115" lon="9.5595973"><ele>222.0</ele><time>2026-04-04T13:11:56.811Z</time></trkpt><trkpt lat="45.6760435" lon="9.5596091"><ele>222.0</ele><time>2026-04-04T13:11:57.815Z</time></trkpt><trkpt lat="45.6759709" lon="9.5596241"><ele>222.0</ele><time>2026-04-04T13:11:58.821Z</time></trkpt><trkpt lat="45.6758987" lon="9.5596423"><ele>222.14285714285714</ele><time>2026-04-04T13:11:59.813Z</time></trkpt><trkpt lat="45.6758299" lon="9.5596605"><ele>222.2857142857143</ele><time>2026-04-04T13:12:00.81Z</time></trkpt><trkpt lat="45.6757562" lon="9.5596832"><ele>222.42857142857144</ele><time>2026-04-04T13:12:01.815Z</time></trkpt><trkpt lat="45.6756862" lon="9.5596987"><ele>222.57142857142856</ele><time>2026-04-04T13:12:02.81Z</time></trkpt><trkpt lat="45.6756125" lon="9.5597134"><ele>222.71428571428572</ele><time>2026-04-04T13:12:03.818Z</time></trkpt><trkpt lat="45.6755402" lon="9.5597337"><ele>222.85714285714286</ele><time>2026-04-04T13:12:04.82Z</time></trkpt><trkpt lat="45.6754672" lon="9.5597536"><ele>223.0</ele><time>2026-04-04T13:12:05.816Z</time></trkpt><trkpt lat="45.6753942" lon="9.5597704"><ele>222.99999999999997</ele><time>2026-04-04T13:12:06.813Z</time></trkpt><trkpt lat="45.6753219" lon="9.5597908"><ele>223.0</ele><time>2026-04-04T13:12:07.815Z</time></trkpt><trkpt lat="45.6752518" lon="9.5598087"><ele>223.0</ele><time>2026-04-04T13:12:08.81Z</time></trkpt><trkpt lat="45.6751837" lon="9.55982"><ele>223.0</ele><time>2026-04-04T13:12:09.812Z</time></trkpt><trkpt lat="45.675114" lon="9.5598331"><ele>222.99999999999997</ele><time>2026-04-04T13:12:10.812Z</time></trkpt><trkpt lat="45.6750495" lon="9.5598461"><ele>223.0</ele><time>2026-04-04T13:12:11.819Z</time></trkpt><trkpt lat="45.6749338" lon="9.5598762"><ele>222.66666666666666</ele><time>2026-04-04T13:12:13.811Z</time></trkpt><trkpt lat="45.6748704" lon="9.5598926"><ele>222.33333333333331</ele><time>2026-04-04T13:12:14.813Z</time></trkpt><trkpt lat="45.674743" lon="9.5599238"><ele>222.0</ele><time>2026-04-04T13:12:16.811Z</time></trkpt><trkpt lat="45.674672" lon="9.5599381"><ele>221.66666666666669</ele><time>2026-04-04T13:12:17.812Z</time></trkpt><trkpt lat="45.6746043" lon="9.559957"><ele>221.33333333333334</ele><time>2026-04-04T13:12:18.807Z</time></trkpt><trkpt lat="45.6745351" lon="9.5599742"><ele>221.0</ele><time>2026-04-04T13:12:19.814Z</time></trkpt><trkpt lat="45.6744676" lon="9.5599887"><ele>221.14285714285717</ele><time>2026-04-04T13:12:20.818Z</time></trkpt><trkpt lat="45.6743975" lon="9.5600125"><ele>221.28571428571428</ele><time>2026-04-04T13:12:21.813Z</time></trkpt><trkpt lat="45.6743246" lon="9.5600313"><ele>221.42857142857144</ele><time>2026-04-04T13:12:22.812Z</time></trkpt><trkpt lat="45.6742578" lon="9.5600392"><ele>221.57142857142858</ele><time>2026-04-04T13:12:23.813Z</time></trkpt><trkpt lat="45.6741854" lon="9.5600569"><ele>221.71428571428572</ele><time>2026-04-04T13:12:24.81Z</time></trkpt><trkpt lat="45.6741144" lon="9.5600723"><ele>221.85714285714286</ele><time>2026-04-04T13:12:25.811Z</time></trkpt><trkpt lat="45.6740419" lon="9.5600816"><ele>222.0</ele><time>2026-04-04T13:12:26.81Z</time></trkpt><trkpt lat="45.6739607" lon="9.5601035"><ele>222.0</ele><time>2026-04-04T13:12:27.81Z</time></trkpt><trkpt lat="45.6738885" lon="9.5601184"><ele>222.0</ele><time>2026-04-04T13:12:28.811Z</time></trkpt><trkpt lat="45.6738141" lon="9.5601336"><ele>222.0</ele><time>2026-04-04T13:12:29.814Z</time></trkpt><trkpt lat="45.6737425" lon="9.5601558"><ele>222.0</ele><time>2026-04-04T13:12:30.813Z</time></trkpt><trkpt lat="45.6736696" lon="9.5601731"><ele>222.0</ele><time>2026-04-04T13:12:31.814Z</time></trkpt><trkpt lat="45.673598" lon="9.5601922"><ele>222.0</ele><time>2026-04-04T13:12:32.809Z</time></trkpt><trkpt lat="45.6735317" lon="9.5602067"><ele>222.0</ele><time>2026-04-04T13:12:33.81Z</time></trkpt><trkpt lat="45.6734638" lon="9.5602253"><ele>221.7142857142857</ele><time>2026-04-04T13:12:34.813Z</time></trkpt><trkpt lat="45.6733937" lon="9.5602419"><ele>221.42857142857144</ele><time>2026-04-04T13:12:35.811Z</time></trkpt><trkpt lat="45.6733232" lon="9.5602585"><ele>221.14285714285714</ele><time>2026-04-04T13:12:36.813Z</time></trkpt><trkpt lat="45.6732502" lon="9.5602754"><ele>220.85714285714283</ele><time>2026-04-04T13:12:37.813Z</time></trkpt><trkpt lat="45.6731763" lon="9.5602958"><ele>220.57142857142856</ele><time>2026-04-04T13:12:38.809Z</time></trkpt><trkpt lat="45.6731054" lon="9.5603169"><ele>220.28571428571428</ele><time>2026-04-04T13:12:39.811Z</time></trkpt><trkpt lat="45.6730385" lon="9.5603285"><ele>220.0</ele><time>2026-04-04T13:12:40.819Z</time></trkpt><trkpt lat="45.6729721" lon="9.5603404"><ele>219.99999999999997</ele><time>2026-04-04T13:12:41.812Z</time></trkpt><trkpt lat="45.6729042" lon="9.5603496"><ele>220.0</ele><time>2026-04-04T13:12:42.807Z</time></trkpt><trkpt lat="45.6727949" lon="9.5603626"><ele>220.0</ele><time>2026-04-04T13:12:44.809Z</time></trkpt><trkpt lat="45.6727057" lon="9.5603736"><ele>220.0</ele><time>2026-04-04T13:12:46.809Z</time></trkpt><trkpt lat="45.6726287" lon="9.560304"><ele>219.99999999999997</ele><time>2026-04-04T13:12:49.809Z</time></trkpt><trkpt lat="45.6725609" lon="9.5602264"><ele>220.0</ele><time>2026-04-04T13:12:51.811Z</time></trkpt><trkpt lat="45.6724799" lon="9.5601584"><ele>220.0</ele><time>2026-04-04T13:12:53.814Z</time></trkpt><trkpt lat="45.6724216" lon="9.5600248"><ele>220.0</ele><time>2026-04-04T13:12:55.81Z</time></trkpt><trkpt lat="45.6723494" lon="9.5598888"><ele>220.0</ele><time>2026-04-04T13:12:57.816Z</time></trkpt><trkpt lat="45.6722691" lon="9.5597503"><ele>220.0</ele><time>2026-04-04T13:12:59.81Z</time></trkpt><trkpt lat="45.672192" lon="9.5596048"><ele>219.85714285714283</ele><time>2026-04-04T13:13:01.814Z</time></trkpt><trkpt lat="45.6721529" lon="9.5595196"><ele>219.71428571428572</ele><time>2026-04-04T13:13:02.813Z</time></trkpt><trkpt lat="45.6721117" lon="9.559439"><ele>219.57142857142856</ele><time>2026-04-04T13:13:03.807Z</time></trkpt><trkpt lat="45.6720661" lon="9.5593593"><ele>219.42857142857142</ele><time>2026-04-04T13:13:04.81Z</time></trkpt><trkpt lat="45.6720232" lon="9.5592795"><ele>219.28571428571428</ele><time>2026-04-04T13:13:05.81Z</time></trkpt><trkpt lat="45.6719818" lon="9.5591945"><ele>219.14285714285714</ele><time>2026-04-04T13:13:06.813Z</time></trkpt><trkpt lat="45.6719406" lon="9.5591101"><ele>219.0</ele><time>2026-04-04T13:13:07.812Z</time></trkpt><trkpt lat="45.6718974" lon="9.5590232"><ele>219.0</ele><time>2026-04-04T13:13:08.811Z</time></trkpt><trkpt lat="45.6718597" lon="9.5589377"><ele>219.0</ele><time>2026-04-04T13:13:09.813Z</time></trkpt><trkpt lat="45.6718147" lon="9.5588562"><ele>219.0</ele><time>2026-04-04T13:13:10.809Z</time></trkpt><trkpt lat="45.671774" lon="9.5587636"><ele>219.0</ele><time>2026-04-04T13:13:11.818Z</time></trkpt><trkpt lat="45.6717369" lon="9.5586739"><ele>219.0</ele><time>2026-04-04T13:13:12.812Z</time></trkpt><trkpt lat="45.6716897" lon="9.5585931"><ele>219.0</ele><time>2026-04-04T13:13:13.816Z</time></trkpt><trkpt lat="45.6716494" lon="9.5585115"><ele>219.0</ele><time>2026-04-04T13:13:14.809Z</time></trkpt><trkpt lat="45.6716093" lon="9.5584246"><ele>219.0</ele><time>2026-04-04T13:13:15.811Z</time></trkpt><trkpt lat="45.6715677" lon="9.5583419"><ele>219.0</ele><time>2026-04-04T13:13:16.815Z</time></trkpt><trkpt lat="45.6715247" lon="9.5582579"><ele>219.0</ele><time>2026-04-04T13:13:17.813Z</time></trkpt><trkpt lat="45.6714845" lon="9.5581747"><ele>219.0</ele><time>2026-04-04T13:13:18.816Z</time></trkpt><trkpt lat="45.6714394" lon="9.5580923"><ele>219.0</ele><time>2026-04-04T13:13:19.811Z</time></trkpt><trkpt lat="45.6713943" lon="9.5580108"><ele>219.0</ele><time>2026-04-04T13:13:20.815Z</time></trkpt><trkpt lat="45.6713478" lon="9.5579291"><ele>219.0</ele><time>2026-04-04T13:13:21.812Z</time></trkpt><trkpt lat="45.6712981" lon="9.5578523"><ele>219.16666666666666</ele><time>2026-04-04T13:13:22.816Z</time></trkpt><trkpt lat="45.6712547" lon="9.5577641"><ele>219.33333333333331</ele><time>2026-04-04T13:13:23.811Z</time></trkpt><trkpt lat="45.6712062" lon="9.5576818"><ele>219.5</ele><time>2026-04-04T13:13:24.815Z</time></trkpt><trkpt lat="45.6711635" lon="9.55759"><ele>219.66666666666666</ele><time>2026-04-04T13:13:25.809Z</time></trkpt><trkpt lat="45.6711198" lon="9.5575072"><ele>219.83333333333331</ele><time>2026-04-04T13:13:26.813Z</time></trkpt><trkpt lat="45.671074" lon="9.5574173"><ele>220.0</ele><time>2026-04-04T13:13:27.814Z</time></trkpt><trkpt lat="45.6710269" lon="9.5573326"><ele>219.85714285714283</ele><time>2026-04-04T13:13:28.825Z</time></trkpt><trkpt lat="45.6709737" lon="9.5572447"><ele>219.71428571428572</ele><time>2026-04-04T13:13:29.813Z</time></trkpt><trkpt lat="45.6709235" lon="9.5571618"><ele>219.57142857142856</ele><time>2026-04-04T13:13:30.81Z</time></trkpt><trkpt lat="45.6708793" lon="9.5570808"><ele>219.42857142857142</ele><time>2026-04-04T13:13:31.813Z</time></trkpt><trkpt lat="45.6708398" lon="9.557001"><ele>219.28571428571428</ele><time>2026-04-04T13:13:32.808Z</time></trkpt><trkpt lat="45.6708011" lon="9.5569194"><ele>219.14285714285714</ele><time>2026-04-04T13:13:33.814Z</time></trkpt><trkpt lat="45.6707761" lon="9.5568261"><ele>219.0</ele><time>2026-04-04T13:13:34.812Z</time></trkpt><trkpt lat="45.670757" lon="9.5567342"><ele>219.0</ele><time>2026-04-04T13:13:35.813Z</time></trkpt><trkpt lat="45.6707376" lon="9.5566465"><ele>219.0</ele><time>2026-04-04T13:13:36.808Z</time></trkpt><trkpt lat="45.6707132" lon="9.5565622"><ele>219.0</ele><time>2026-04-04T13:13:37.812Z</time></trkpt><trkpt lat="45.6706544" lon="9.5564077"><ele>219.0</ele><time>2026-04-04T13:13:39.812Z</time></trkpt><trkpt lat="45.6705662" lon="9.5563457"><ele>219.0</ele><time>2026-04-04T13:13:41.82Z</time></trkpt><trkpt lat="45.6704901" lon="9.5564074"><ele>219.0</ele><time>2026-04-04T13:13:43.809Z</time></trkpt><trkpt lat="45.6704048" lon="9.5564961"><ele>219.0</ele><time>2026-04-04T13:13:45.812Z</time></trkpt><trkpt lat="45.6702881" lon="9.5565347"><ele>219.0</ele><time>2026-04-04T13:13:47.809Z</time></trkpt><trkpt lat="45.6701676" lon="9.5565079"><ele>219.0</ele><time>2026-04-04T13:13:49.811Z</time></trkpt><trkpt lat="45.6701019" lon="9.556496"><ele>219.0</ele><time>2026-04-04T13:13:50.809Z</time></trkpt><trkpt lat="45.670039" lon="9.556476"><ele>219.0</ele><time>2026-04-04T13:13:51.818Z</time></trkpt><trkpt lat="45.6699727" lon="9.5564599"><ele>219.0</ele><time>2026-04-04T13:13:52.819Z</time></trkpt><trkpt lat="45.6699084" lon="9.5564536"><ele>218.71428571428572</ele><time>2026-04-04T13:13:53.811Z</time></trkpt><trkpt lat="45.6698468" lon="9.5564302"><ele>218.42857142857142</ele><time>2026-04-04T13:13:54.815Z</time></trkpt><trkpt lat="45.6697859" lon="9.5563993"><ele>218.14285714285714</ele><time>2026-04-04T13:13:55.812Z</time></trkpt><trkpt lat="45.6697273" lon="9.5563616"><ele>217.85714285714286</ele><time>2026-04-04T13:13:56.815Z</time></trkpt><trkpt lat="45.6696679" lon="9.5563216"><ele>217.57142857142856</ele><time>2026-04-04T13:13:57.81Z</time></trkpt><trkpt lat="45.6696062" lon="9.5562826"><ele>217.28571428571428</ele><time>2026-04-04T13:13:58.814Z</time></trkpt><trkpt lat="45.6695437" lon="9.5562403"><ele>217.0</ele><time>2026-04-04T13:13:59.812Z</time></trkpt><trkpt lat="45.6694824" lon="9.5562028"><ele>216.83333333333331</ele><time>2026-04-04T13:14:00.813Z</time></trkpt><trkpt lat="45.6694174" lon="9.5561618"><ele>216.66666666666666</ele><time>2026-04-04T13:14:01.813Z</time></trkpt><trkpt lat="45.6693567" lon="9.5561234"><ele>216.5</ele><time>2026-04-04T13:14:02.812Z</time></trkpt><trkpt lat="45.6692945" lon="9.5560811"><ele>216.33333333333331</ele><time>2026-04-04T13:14:03.812Z</time></trkpt><trkpt lat="45.6692383" lon="9.5560367"><ele>216.16666666666666</ele><time>2026-04-04T13:14:04.816Z</time></trkpt><trkpt lat="45.6691187" lon="9.555983"><ele>216.0</ele><time>2026-04-04T13:14:06.814Z</time></trkpt><trkpt lat="45.6690538" lon="9.5559567"><ele>216.0</ele><time>2026-04-04T13:14:07.809Z</time></trkpt><trkpt lat="45.6689939" lon="9.5559166"><ele>216.0</ele><time>2026-04-04T13:14:08.813Z</time></trkpt><trkpt lat="45.6689299" lon="9.5558743"><ele>216.0</ele><time>2026-04-04T13:14:09.813Z</time></trkpt><trkpt lat="45.6688664" lon="9.5558412"><ele>216.0</ele><time>2026-04-04T13:14:10.817Z</time></trkpt><trkpt lat="45.6688" lon="9.5558052"><ele>216.0</ele><time>2026-04-04T13:14:11.808Z</time></trkpt><trkpt lat="45.6687386" lon="9.5557635"><ele>216.0</ele><time>2026-04-04T13:14:12.809Z</time></trkpt><trkpt lat="45.6686783" lon="9.5557175"><ele>216.0</ele><time>2026-04-04T13:14:13.812Z</time></trkpt><trkpt lat="45.6686123" lon="9.5556823"><ele>215.71428571428572</ele><time>2026-04-04T13:14:14.813Z</time></trkpt><trkpt lat="45.6685485" lon="9.5556381"><ele>215.42857142857142</ele><time>2026-04-04T13:14:15.812Z</time></trkpt><trkpt lat="45.6684835" lon="9.5555937"><ele>215.14285714285717</ele><time>2026-04-04T13:14:16.807Z</time></trkpt><trkpt lat="45.6684178" lon="9.5555524"><ele>214.85714285714286</ele><time>2026-04-04T13:14:17.817Z</time></trkpt><trkpt lat="45.6683533" lon="9.5555051"><ele>214.57142857142858</ele><time>2026-04-04T13:14:18.812Z</time></trkpt><trkpt lat="45.6682864" lon="9.5554665"><ele>214.2857142857143</ele><time>2026-04-04T13:14:19.81Z</time></trkpt><trkpt lat="45.6682236" lon="9.5554231"><ele>214.0</ele><time>2026-04-04T13:14:20.816Z</time></trkpt><trkpt lat="45.66816" lon="9.5553792"><ele>214.00000000000003</ele><time>2026-04-04T13:14:21.811Z</time></trkpt><trkpt lat="45.6680942" lon="9.5553376"><ele>214.0</ele><time>2026-04-04T13:14:22.815Z</time></trkpt><trkpt lat="45.6680271" lon="9.5552963"><ele>214.0</ele><time>2026-04-04T13:14:23.814Z</time></trkpt><trkpt lat="45.6679597" lon="9.5552616"><ele>214.0</ele><time>2026-04-04T13:14:24.815Z</time></trkpt><trkpt lat="45.6678916" lon="9.5552207"><ele>214.0</ele><time>2026-04-04T13:14:25.81Z</time></trkpt><trkpt lat="45.6678246" lon="9.5551747"><ele>214.00000000000003</ele><time>2026-04-04T13:14:26.813Z</time></trkpt><trkpt lat="45.6677594" lon="9.555126"><ele>214.0</ele><time>2026-04-04T13:14:27.81Z</time></trkpt><trkpt lat="45.6676927" lon="9.5550796"><ele>213.99999999999997</ele><time>2026-04-04T13:14:28.814Z</time></trkpt><trkpt lat="45.6676263" lon="9.5550341"><ele>214.0</ele><time>2026-04-04T13:14:29.809Z</time></trkpt><trkpt lat="45.6675592" lon="9.5549872"><ele>214.0</ele><time>2026-04-04T13:14:30.809Z</time></trkpt><trkpt lat="45.6674888" lon="9.5549415"><ele>214.0</ele><time>2026-04-04T13:14:31.82Z</time></trkpt><trkpt lat="45.6674183" lon="9.5549008"><ele>213.99999999999997</ele><time>2026-04-04T13:14:32.811Z</time></trkpt><trkpt lat="45.6673489" lon="9.5548599"><ele>214.0</ele><time>2026-04-04T13:14:33.815Z</time></trkpt><trkpt lat="45.6672816" lon="9.5548138"><ele>213.99999999999997</ele><time>2026-04-04T13:14:34.814Z</time></trkpt><trkpt lat="45.6672132" lon="9.5547719"><ele>214.0</ele><time>2026-04-04T13:14:35.812Z</time></trkpt><trkpt lat="45.6671437" lon="9.554721"><ele>214.0</ele><time>2026-04-04T13:14:36.814Z</time></trkpt><trkpt lat="45.6670762" lon="9.5546762"><ele>214.0</ele><time>2026-04-04T13:14:37.81Z</time></trkpt><trkpt lat="45.6670096" lon="9.5546307"><ele>213.99999999999997</ele><time>2026-04-04T13:14:38.809Z</time></trkpt><trkpt lat="45.6669403" lon="9.5545873"><ele>214.0</ele><time>2026-04-04T13:14:39.809Z</time></trkpt><trkpt lat="45.6668747" lon="9.5545403"><ele>213.85714285714286</ele><time>2026-04-04T13:14:40.812Z</time></trkpt><trkpt lat="45.6668104" lon="9.5544985"><ele>213.71428571428572</ele><time>2026-04-04T13:14:41.81Z</time></trkpt><trkpt lat="45.6667424" lon="9.5544558"><ele>213.57142857142856</ele><time>2026-04-04T13:14:42.815Z</time></trkpt><trkpt lat="45.6666755" lon="9.5544129"><ele>213.42857142857144</ele><time>2026-04-04T13:14:43.817Z</time></trkpt><trkpt lat="45.666609" lon="9.5543741"><ele>213.28571428571428</ele><time>2026-04-04T13:14:44.817Z</time></trkpt><trkpt lat="45.6665422" lon="9.5543342"><ele>213.14285714285714</ele><time>2026-04-04T13:14:45.811Z</time></trkpt><trkpt lat="45.6664731" lon="9.554296"><ele>213.0</ele><time>2026-04-04T13:14:46.811Z</time></trkpt><trkpt lat="45.6664038" lon="9.5542591"><ele>212.99999999999997</ele><time>2026-04-04T13:14:47.817Z</time></trkpt><trkpt lat="45.6663362" lon="9.5542297"><ele>213.0</ele><time>2026-04-04T13:14:48.818Z</time></trkpt><trkpt lat="45.666271" lon="9.554202"><ele>213.0</ele><time>2026-04-04T13:14:49.813Z</time></trkpt><trkpt lat="45.6662029" lon="9.5541747"><ele>213.0</ele><time>2026-04-04T13:14:50.816Z</time></trkpt><trkpt lat="45.6661308" lon="9.5541529"><ele>213.0</ele><time>2026-04-04T13:14:51.808Z</time></trkpt><trkpt lat="45.6660615" lon="9.5541374"><ele>212.99999999999997</ele><time>2026-04-04T13:14:52.818Z</time></trkpt><trkpt lat="45.6659897" lon="9.554121"><ele>213.0</ele><time>2026-04-04T13:14:53.815Z</time></trkpt><trkpt lat="45.6659209" lon="9.554095"><ele>212.99999999999997</ele><time>2026-04-04T13:14:54.815Z</time></trkpt><trkpt lat="45.6658514" lon="9.554063"><ele>213.0</ele><time>2026-04-04T13:14:55.814Z</time></trkpt><trkpt lat="45.6657829" lon="9.5540395"><ele>213.0</ele><time>2026-04-04T13:14:56.815Z</time></trkpt><trkpt lat="45.6657151" lon="9.5540172"><ele>213.0</ele><time>2026-04-04T13:14:57.816Z</time></trkpt><trkpt lat="45.6656491" lon="9.5539975"><ele>213.0</ele><time>2026-04-04T13:14:58.815Z</time></trkpt><trkpt lat="45.6655769" lon="9.5539776"><ele>212.99999999999997</ele><time>2026-04-04T13:14:59.818Z</time></trkpt><trkpt lat="45.6655046" lon="9.5539496"><ele>213.0</ele><time>2026-04-04T13:15:00.809Z</time></trkpt><trkpt lat="45.6654319" lon="9.5539319"><ele>213.0</ele><time>2026-04-04T13:15:01.811Z</time></trkpt><trkpt lat="45.665358" lon="9.5539085"><ele>213.0</ele><time>2026-04-04T13:15:02.819Z</time></trkpt><trkpt lat="45.6652838" lon="9.5538935"><ele>213.0</ele><time>2026-04-04T13:15:03.818Z</time></trkpt><trkpt lat="45.6652098" lon="9.5538754"><ele>213.0</ele><time>2026-04-04T13:15:04.82Z</time></trkpt><trkpt lat="45.6651351" lon="9.5538511"><ele>213.0</ele><time>2026-04-04T13:15:05.812Z</time></trkpt><trkpt lat="45.6650588" lon="9.5538323"><ele>213.0</ele><time>2026-04-04T13:15:06.817Z</time></trkpt><trkpt lat="45.6649839" lon="9.5538032"><ele>213.14285714285714</ele><time>2026-04-04T13:15:07.814Z</time></trkpt><trkpt lat="45.6649086" lon="9.5537763"><ele>213.28571428571428</ele><time>2026-04-04T13:15:08.814Z</time></trkpt><trkpt lat="45.6648363" lon="9.5537512"><ele>213.42857142857144</ele><time>2026-04-04T13:15:09.819Z</time></trkpt><trkpt lat="45.6647646" lon="9.5537257"><ele>213.57142857142856</ele><time>2026-04-04T13:15:10.813Z</time></trkpt><trkpt lat="45.6646923" lon="9.5537014"><ele>213.71428571428572</ele><time>2026-04-04T13:15:11.814Z</time></trkpt><trkpt lat="45.6646213" lon="9.5536811"><ele>213.85714285714286</ele><time>2026-04-04T13:15:12.813Z</time></trkpt><trkpt lat="45.6645519" lon="9.5536645"><ele>214.0</ele><time>2026-04-04T13:15:13.812Z</time></trkpt><trkpt lat="45.6644806" lon="9.5536424"><ele>214.00000000000003</ele><time>2026-04-04T13:15:14.821Z</time></trkpt><trkpt lat="45.6644084" lon="9.5536217"><ele>214.0</ele><time>2026-04-04T13:15:15.817Z</time></trkpt><trkpt lat="45.6643366" lon="9.5536041"><ele>214.0</ele><time>2026-04-04T13:15:16.817Z</time></trkpt><trkpt lat="45.6642668" lon="9.5535811"><ele>214.0</ele><time>2026-04-04T13:15:17.816Z</time></trkpt><trkpt lat="45.664199" lon="9.5535566"><ele>214.0</ele><time>2026-04-04T13:15:18.812Z</time></trkpt><trkpt lat="45.6641276" lon="9.5535369"><ele>214.00000000000003</ele><time>2026-04-04T13:15:19.814Z</time></trkpt><trkpt lat="45.6640572" lon="9.5535214"><ele>214.0</ele><time>2026-04-04T13:15:20.815Z</time></trkpt><trkpt lat="45.6639808" lon="9.5534998"><ele>213.99999999999997</ele><time>2026-04-04T13:15:21.816Z</time></trkpt><trkpt lat="45.6639055" lon="9.5534819"><ele>214.0</ele><time>2026-04-04T13:15:22.819Z</time></trkpt><trkpt lat="45.6638337" lon="9.5534619"><ele>214.0</ele><time>2026-04-04T13:15:23.82Z</time></trkpt><trkpt lat="45.6637557" lon="9.5534391"><ele>214.0</ele><time>2026-04-04T13:15:24.811Z</time></trkpt><trkpt lat="45.6636757" lon="9.5534203"><ele>213.99999999999997</ele><time>2026-04-04T13:15:25.809Z</time></trkpt><trkpt lat="45.6635983" lon="9.5534031"><ele>214.0</ele><time>2026-04-04T13:15:26.81Z</time></trkpt><trkpt lat="45.6635204" lon="9.5533833"><ele>213.49999999999997</ele><time>2026-04-04T13:15:27.81Z</time></trkpt><trkpt lat="45.6634394" lon="9.5533649"><ele>213.0</ele><time>2026-04-04T13:15:28.816Z</time></trkpt><trkpt lat="45.663362" lon="9.553358"><ele>212.5</ele><time>2026-04-04T13:15:29.814Z</time></trkpt><trkpt lat="45.6632816" lon="9.5533628"><ele>212.0</ele><time>2026-04-04T13:15:30.809Z</time></trkpt><trkpt lat="45.6632047" lon="9.5533652"><ele>211.49999999999997</ele><time>2026-04-04T13:15:31.809Z</time></trkpt><trkpt lat="45.6631283" lon="9.5533652"><ele>211.0</ele><time>2026-04-04T13:15:32.819Z</time></trkpt><trkpt lat="45.6630512" lon="9.5533753"><ele>210.99999999999997</ele><time>2026-04-04T13:15:33.813Z</time></trkpt><trkpt lat="45.6629733" lon="9.5533937"><ele>211.0</ele><time>2026-04-04T13:15:34.813Z</time></trkpt><trkpt lat="45.6628981" lon="9.5534145"><ele>211.0</ele><time>2026-04-04T13:15:35.815Z</time></trkpt><trkpt lat="45.6628237" lon="9.5534362"><ele>211.0</ele><time>2026-04-04T13:15:36.808Z</time></trkpt><trkpt lat="45.6627483" lon="9.553463"><ele>210.99999999999997</ele><time>2026-04-04T13:15:37.81Z</time></trkpt><trkpt lat="45.6626724" lon="9.5534822"><ele>211.0</ele><time>2026-04-04T13:15:38.815Z</time></trkpt><trkpt lat="45.6625962" lon="9.5535104"><ele>210.83333333333331</ele><time>2026-04-04T13:15:39.815Z</time></trkpt><trkpt lat="45.662522" lon="9.5535391"><ele>210.66666666666666</ele><time>2026-04-04T13:15:40.812Z</time></trkpt><trkpt lat="45.6624458" lon="9.5535684"><ele>210.5</ele><time>2026-04-04T13:15:41.814Z</time></trkpt><trkpt lat="45.6623708" lon="9.5535982"><ele>210.33333333333331</ele><time>2026-04-04T13:15:42.82Z</time></trkpt><trkpt lat="45.6622967" lon="9.5536264"><ele>210.16666666666666</ele><time>2026-04-04T13:15:43.809Z</time></trkpt><trkpt lat="45.6622222" lon="9.5536547"><ele>210.0</ele><time>2026-04-04T13:15:44.816Z</time></trkpt><trkpt lat="45.6621488" lon="9.5536819"><ele>209.83333333333334</ele><time>2026-04-04T13:15:45.812Z</time></trkpt><trkpt lat="45.662073" lon="9.5537089"><ele>209.66666666666669</ele><time>2026-04-04T13:15:46.815Z</time></trkpt><trkpt lat="45.6620021" lon="9.553736"><ele>209.5</ele><time>2026-04-04T13:15:47.809Z</time></trkpt><trkpt lat="45.6619261" lon="9.553766"><ele>209.33333333333334</ele><time>2026-04-04T13:15:48.82Z</time></trkpt><trkpt lat="45.6618523" lon="9.5537927"><ele>209.16666666666669</ele><time>2026-04-04T13:15:49.81Z</time></trkpt><trkpt lat="45.6617756" lon="9.5538208"><ele>209.0</ele><time>2026-04-04T13:15:50.816Z</time></trkpt><trkpt lat="45.6617007" lon="9.5538519"><ele>209.00000000000003</ele><time>2026-04-04T13:15:51.818Z</time></trkpt><trkpt lat="45.6616257" lon="9.5538742"><ele>209.0</ele><time>2026-04-04T13:15:52.809Z</time></trkpt><trkpt lat="45.6615479" lon="9.5539056"><ele>209.0</ele><time>2026-04-04T13:15:53.809Z</time></trkpt><trkpt lat="45.6614738" lon="9.5539343"><ele>209.0</ele><time>2026-04-04T13:15:54.81Z</time></trkpt><trkpt lat="45.6614004" lon="9.5539611"><ele>209.00000000000003</ele><time>2026-04-04T13:15:55.811Z</time></trkpt><trkpt lat="45.6613258" lon="9.5539882"><ele>209.0</ele><time>2026-04-04T13:15:56.81Z</time></trkpt><trkpt lat="45.6612548" lon="9.5540152"><ele>209.0</ele><time>2026-04-04T13:15:57.812Z</time></trkpt><trkpt lat="45.661177" lon="9.5540425"><ele>209.0</ele><time>2026-04-04T13:15:58.812Z</time></trkpt><trkpt lat="45.6611062" lon="9.5540774"><ele>209.0</ele><time>2026-04-04T13:15:59.809Z</time></trkpt><trkpt lat="45.6610376" lon="9.5541058"><ele>209.0</ele><time>2026-04-04T13:16:00.816Z</time></trkpt><trkpt lat="45.6609705" lon="9.5541387"><ele>209.0</ele><time>2026-04-04T13:16:01.812Z</time></trkpt><trkpt lat="45.660902" lon="9.5541658"><ele>209.0</ele><time>2026-04-04T13:16:02.811Z</time></trkpt><trkpt lat="45.6608369" lon="9.5541961"><ele>209.0</ele><time>2026-04-04T13:16:03.813Z</time></trkpt><trkpt lat="45.6607716" lon="9.5542226"><ele>209.0</ele><time>2026-04-04T13:16:04.809Z</time></trkpt><trkpt lat="45.6607076" lon="9.5542485"><ele>209.0</ele><time>2026-04-04T13:16:05.813Z</time></trkpt><trkpt lat="45.6606397" lon="9.5542755"><ele>209.0</ele><time>2026-04-04T13:16:06.81Z</time></trkpt><trkpt lat="45.6605752" lon="9.5543077"><ele>209.0</ele><time>2026-04-04T13:16:07.817Z</time></trkpt><trkpt lat="45.6605151" lon="9.5543425"><ele>209.0</ele><time>2026-04-04T13:16:08.815Z</time></trkpt><trkpt lat="45.6604523" lon="9.5543859"><ele>209.0</ele><time>2026-04-04T13:16:09.813Z</time></trkpt><trkpt lat="45.6603913" lon="9.5544289"><ele>209.0</ele><time>2026-04-04T13:16:10.813Z</time></trkpt><trkpt lat="45.6603337" lon="9.55449"><ele>209.00000000000003</ele><time>2026-04-04T13:16:11.817Z</time></trkpt><trkpt lat="45.660267" lon="9.5545232"><ele>209.0</ele><time>2026-04-04T13:16:12.812Z</time></trkpt><trkpt lat="45.6601956" lon="9.5545238"><ele>209.0</ele><time>2026-04-04T13:16:13.813Z</time></trkpt><trkpt lat="45.660128" lon="9.5545195"><ele>209.0</ele><time>2026-04-04T13:16:14.816Z</time></trkpt><trkpt lat="45.6600006" lon="9.5545558"><ele>209.00000000000003</ele><time>2026-04-04T13:16:16.817Z</time></trkpt><trkpt lat="45.6599396" lon="9.5545954"><ele>209.0</ele><time>2026-04-04T13:16:17.808Z</time></trkpt><trkpt lat="45.6598788" lon="9.5546423"><ele>209.0</ele><time>2026-04-04T13:16:18.816Z</time></trkpt><trkpt lat="45.6598219" lon="9.5546989"><ele>209.0</ele><time>2026-04-04T13:16:19.811Z</time></trkpt><trkpt lat="45.6597591" lon="9.5547402"><ele>209.0</ele><time>2026-04-04T13:16:20.81Z</time></trkpt><trkpt lat="45.6596929" lon="9.5547508"><ele>209.0</ele><time>2026-04-04T13:16:21.817Z</time></trkpt><trkpt lat="45.659619" lon="9.5547472"><ele>209.0</ele><time>2026-04-04T13:16:22.819Z</time></trkpt><trkpt lat="45.6595475" lon="9.5547429"><ele>209.0</ele><time>2026-04-04T13:16:23.816Z</time></trkpt><trkpt lat="45.6594748" lon="9.5547365"><ele>209.0</ele><time>2026-04-04T13:16:24.816Z</time></trkpt><trkpt lat="45.6594054" lon="9.5547226"><ele>208.85714285714286</ele><time>2026-04-04T13:16:25.822Z</time></trkpt><trkpt lat="45.6593341" lon="9.5547096"><ele>208.71428571428572</ele><time>2026-04-04T13:16:26.818Z</time></trkpt><trkpt lat="45.6592638" lon="9.554694"><ele>208.57142857142856</ele><time>2026-04-04T13:16:27.816Z</time></trkpt><trkpt lat="45.6591924" lon="9.5546752"><ele>208.42857142857144</ele><time>2026-04-04T13:16:28.81Z</time></trkpt><trkpt lat="45.6591211" lon="9.5546578"><ele>208.2857142857143</ele><time>2026-04-04T13:16:29.814Z</time></trkpt><trkpt lat="45.6590482" lon="9.5546326"><ele>208.14285714285714</ele><time>2026-04-04T13:16:30.817Z</time></trkpt><trkpt lat="45.6589782" lon="9.5546055"><ele>208.0</ele><time>2026-04-04T13:16:31.819Z</time></trkpt><trkpt lat="45.6589077" lon="9.5545844"><ele>207.99999999999997</ele><time>2026-04-04T13:16:32.81Z</time></trkpt><trkpt lat="45.6588392" lon="9.5545477"><ele>208.0</ele><time>2026-04-04T13:16:33.822Z</time></trkpt><trkpt lat="45.6587672" lon="9.5545158"><ele>208.0</ele><time>2026-04-04T13:16:34.813Z</time></trkpt><trkpt lat="45.6586953" lon="9.5544739"><ele>208.0</ele><time>2026-04-04T13:16:35.813Z</time></trkpt><trkpt lat="45.6586221" lon="9.5544385"><ele>207.99999999999997</ele><time>2026-04-04T13:16:36.812Z</time></trkpt><trkpt lat="45.6585476" lon="9.5544038"><ele>208.0</ele><time>2026-04-04T13:16:37.812Z</time></trkpt><trkpt lat="45.6584717" lon="9.5543669"><ele>208.16666666666666</ele><time>2026-04-04T13:16:38.82Z</time></trkpt><trkpt lat="45.6583949" lon="9.554334"><ele>208.33333333333331</ele><time>2026-04-04T13:16:39.811Z</time></trkpt><trkpt lat="45.6583199" lon="9.5543015"><ele>208.5</ele><time>2026-04-04T13:16:40.817Z</time></trkpt><trkpt lat="45.6582467" lon="9.5542678"><ele>208.66666666666669</ele><time>2026-04-04T13:16:41.812Z</time></trkpt><trkpt lat="45.6581746" lon="9.5542391"><ele>208.83333333333334</ele><time>2026-04-04T13:16:42.811Z</time></trkpt><trkpt lat="45.6581005" lon="9.5542043"><ele>209.0</ele><time>2026-04-04T13:16:43.812Z</time></trkpt><trkpt lat="45.6580267" lon="9.5541671"><ele>209.00000000000003</ele><time>2026-04-04T13:16:44.819Z</time></trkpt><trkpt lat="45.6579548" lon="9.5541371"><ele>209.0</ele><time>2026-04-04T13:16:45.811Z</time></trkpt><trkpt lat="45.6578829" lon="9.5541029"><ele>209.0</ele><time>2026-04-04T13:16:46.813Z</time></trkpt><trkpt lat="45.6578078" lon="9.554074"><ele>209.0</ele><time>2026-04-04T13:16:47.808Z</time></trkpt><trkpt lat="45.6577315" lon="9.5540396"><ele>209.00000000000003</ele><time>2026-04-04T13:16:48.812Z</time></trkpt><trkpt lat="45.6576557" lon="9.5540064"><ele>209.0</ele><time>2026-04-04T13:16:49.816Z</time></trkpt><trkpt lat="45.6575852" lon="9.5539764"><ele>208.50000000000003</ele><time>2026-04-04T13:16:50.814Z</time></trkpt><trkpt lat="45.657517" lon="9.5539361"><ele>208.0</ele><time>2026-04-04T13:16:51.821Z</time></trkpt><trkpt lat="45.6574441" lon="9.5538961"><ele>207.5</ele><time>2026-04-04T13:16:52.813Z</time></trkpt><trkpt lat="45.6573751" lon="9.5538654"><ele>207.0</ele><time>2026-04-04T13:16:53.811Z</time></trkpt><trkpt lat="45.6573008" lon="9.5538364"><ele>206.50000000000003</ele><time>2026-04-04T13:16:54.815Z</time></trkpt><trkpt lat="45.657231" lon="9.553801"><ele>206.0</ele><time>2026-04-04T13:16:55.82Z</time></trkpt><trkpt lat="45.657157" lon="9.5537738"><ele>206.00000000000003</ele><time>2026-04-04T13:16:56.811Z</time></trkpt><trkpt lat="45.6570826" lon="9.5537381"><ele>206.0</ele><time>2026-04-04T13:16:57.81Z</time></trkpt><trkpt lat="45.6570103" lon="9.553701"><ele>206.0</ele><time>2026-04-04T13:16:58.811Z</time></trkpt><trkpt lat="45.6569365" lon="9.5536653"><ele>206.0</ele><time>2026-04-04T13:16:59.814Z</time></trkpt><trkpt lat="45.6568637" lon="9.5536286"><ele>206.00000000000003</ele><time>2026-04-04T13:17:00.815Z</time></trkpt><trkpt lat="45.6567915" lon="9.5535964"><ele>206.0</ele><time>2026-04-04T13:17:01.81Z</time></trkpt><trkpt lat="45.6567219" lon="9.5535657"><ele>205.83333333333334</ele><time>2026-04-04T13:17:02.815Z</time></trkpt><trkpt lat="45.6566469" lon="9.5535344"><ele>205.66666666666669</ele><time>2026-04-04T13:17:03.815Z</time></trkpt><trkpt lat="45.6565753" lon="9.5534999"><ele>205.5</ele><time>2026-04-04T13:17:04.823Z</time></trkpt><trkpt lat="45.656505" lon="9.5534664"><ele>205.33333333333331</ele><time>2026-04-04T13:17:05.813Z</time></trkpt><trkpt lat="45.656434" lon="9.5534339"><ele>205.16666666666666</ele><time>2026-04-04T13:17:06.821Z</time></trkpt><trkpt lat="45.6563599" lon="9.553405"><ele>205.0</ele><time>2026-04-04T13:17:07.813Z</time></trkpt><trkpt lat="45.6562924" lon="9.5533663"><ele>205.0</ele><time>2026-04-04T13:17:08.817Z</time></trkpt><trkpt lat="45.6562238" lon="9.553338"><ele>205.0</ele><time>2026-04-04T13:17:09.815Z</time></trkpt><trkpt lat="45.6561576" lon="9.5533064"><ele>205.0</ele><time>2026-04-04T13:17:10.815Z</time></trkpt><trkpt lat="45.6560858" lon="9.5532757"><ele>205.0</ele><time>2026-04-04T13:17:11.818Z</time></trkpt><trkpt lat="45.6560165" lon="9.5532444"><ele>205.0</ele><time>2026-04-04T13:17:12.813Z</time></trkpt><trkpt lat="45.6559456" lon="9.5532148"><ele>205.0</ele><time>2026-04-04T13:17:13.814Z</time></trkpt><trkpt lat="45.655874" lon="9.5531881"><ele>205.0</ele><time>2026-04-04T13:17:14.817Z</time></trkpt><trkpt lat="45.6558051" lon="9.5531562"><ele>204.71428571428572</ele><time>2026-04-04T13:17:15.812Z</time></trkpt><trkpt lat="45.6557352" lon="9.5531272"><ele>204.42857142857142</ele><time>2026-04-04T13:17:16.82Z</time></trkpt><trkpt lat="45.6556697" lon="9.5530963"><ele>204.14285714285714</ele><time>2026-04-04T13:17:17.816Z</time></trkpt><trkpt lat="45.6556023" lon="9.55307"><ele>203.85714285714286</ele><time>2026-04-04T13:17:18.817Z</time></trkpt><trkpt lat="45.6555334" lon="9.5530378"><ele>203.57142857142856</ele><time>2026-04-04T13:17:19.813Z</time></trkpt><trkpt lat="45.6554632" lon="9.5530136"><ele>203.28571428571428</ele><time>2026-04-04T13:17:20.811Z</time></trkpt><trkpt lat="45.6553957" lon="9.5529845"><ele>203.0</ele><time>2026-04-04T13:17:21.813Z</time></trkpt><trkpt lat="45.655328" lon="9.5529539"><ele>202.85714285714286</ele><time>2026-04-04T13:17:22.817Z</time></trkpt><trkpt lat="45.6552587" lon="9.5529204"><ele>202.71428571428572</ele><time>2026-04-04T13:17:23.819Z</time></trkpt><trkpt lat="45.6551896" lon="9.5528893"><ele>202.57142857142856</ele><time>2026-04-04T13:17:24.815Z</time></trkpt><trkpt lat="45.655122" lon="9.552863"><ele>202.42857142857144</ele><time>2026-04-04T13:17:25.813Z</time></trkpt><trkpt lat="45.6550566" lon="9.5528379"><ele>202.28571428571428</ele><time>2026-04-04T13:17:26.815Z</time></trkpt><trkpt lat="45.6549903" lon="9.552806"><ele>202.14285714285714</ele><time>2026-04-04T13:17:27.811Z</time></trkpt><trkpt lat="45.6549241" lon="9.5527667"><ele>202.0</ele><time>2026-04-04T13:17:28.817Z</time></trkpt><trkpt lat="45.6548583" lon="9.5527334"><ele>202.0</ele><time>2026-04-04T13:17:29.809Z</time></trkpt><trkpt lat="45.6547928" lon="9.5526975"><ele>202.0</ele><time>2026-04-04T13:17:30.821Z</time></trkpt><trkpt lat="45.6547247" lon="9.5526652"><ele>202.0</ele><time>2026-04-04T13:17:31.82Z</time></trkpt><trkpt lat="45.6546557" lon="9.5526323"><ele>202.0</ele><time>2026-04-04T13:17:32.809Z</time></trkpt><trkpt lat="45.6545884" lon="9.5525928"><ele>202.0</ele><time>2026-04-04T13:17:33.817Z</time></trkpt><trkpt lat="45.6545292" lon="9.5525546"><ele>202.0</ele><time>2026-04-04T13:17:34.81Z</time></trkpt><trkpt lat="45.6544641" lon="9.5525278"><ele>202.0</ele><time>2026-04-04T13:17:35.814Z</time></trkpt><trkpt lat="45.6544001" lon="9.5524946"><ele>202.0</ele><time>2026-04-04T13:17:36.813Z</time></trkpt><trkpt lat="45.6543324" lon="9.5524593"><ele>202.0</ele><time>2026-04-04T13:17:37.809Z</time></trkpt><trkpt lat="45.6542692" lon="9.5524289"><ele>202.0</ele><time>2026-04-04T13:17:38.81Z</time></trkpt><trkpt lat="45.6542013" lon="9.5523996"><ele>202.0</ele><time>2026-04-04T13:17:39.808Z</time></trkpt><trkpt lat="45.6541335" lon="9.5523686"><ele>202.0</ele><time>2026-04-04T13:17:40.817Z</time></trkpt><trkpt lat="45.6540646" lon="9.5523348"><ele>202.0</ele><time>2026-04-04T13:17:41.809Z</time></trkpt><trkpt lat="45.6539991" lon="9.5522985"><ele>202.0</ele><time>2026-04-04T13:17:42.816Z</time></trkpt><trkpt lat="45.6539325" lon="9.5522719"><ele>202.0</ele><time>2026-04-04T13:17:43.812Z</time></trkpt><trkpt lat="45.6538706" lon="9.5522353"><ele>202.0</ele><time>2026-04-04T13:17:44.821Z</time></trkpt><trkpt lat="45.6538088" lon="9.5522003"><ele>202.0</ele><time>2026-04-04T13:17:45.81Z</time></trkpt><trkpt lat="45.653748" lon="9.5521719"><ele>202.0</ele><time>2026-04-04T13:17:46.817Z</time></trkpt><trkpt lat="45.6536902" lon="9.5521305"><ele>202.0</ele><time>2026-04-04T13:17:47.812Z</time></trkpt><trkpt lat="45.6536322" lon="9.5520731"><ele>202.0</ele><time>2026-04-04T13:17:48.809Z</time></trkpt><trkpt lat="45.6535867" lon="9.5520076"><ele>202.0</ele><time>2026-04-04T13:17:49.812Z</time></trkpt><trkpt lat="45.6535371" lon="9.5519403"><ele>201.85714285714286</ele><time>2026-04-04T13:17:50.814Z</time></trkpt><trkpt lat="45.653486" lon="9.5518663"><ele>201.71428571428572</ele><time>2026-04-04T13:17:51.813Z</time></trkpt><trkpt lat="45.6534229" lon="9.5518302"><ele>201.57142857142856</ele><time>2026-04-04T13:17:52.809Z</time></trkpt><trkpt lat="45.6533576" lon="9.5518201"><ele>201.42857142857144</ele><time>2026-04-04T13:17:53.815Z</time></trkpt><trkpt lat="45.6532907" lon="9.5518321"><ele>201.2857142857143</ele><time>2026-04-04T13:17:54.811Z</time></trkpt><trkpt lat="45.6532185" lon="9.551857"><ele>201.14285714285714</ele><time>2026-04-04T13:17:55.809Z</time></trkpt><trkpt lat="45.6531501" lon="9.5518677"><ele>201.0</ele><time>2026-04-04T13:17:56.813Z</time></trkpt><trkpt lat="45.6530836" lon="9.5518579"><ele>201.0</ele><time>2026-04-04T13:17:57.819Z</time></trkpt><trkpt lat="45.6530128" lon="9.5518365"><ele>201.0</ele><time>2026-04-04T13:17:58.811Z</time></trkpt><trkpt lat="45.652945" lon="9.551802"><ele>201.0</ele><time>2026-04-04T13:17:59.811Z</time></trkpt><trkpt lat="45.6528775" lon="9.5517673"><ele>201.0</ele><time>2026-04-04T13:18:00.813Z</time></trkpt><trkpt lat="45.6528102" lon="9.551728"><ele>201.0</ele><time>2026-04-04T13:18:01.814Z</time></trkpt><trkpt lat="45.65274" lon="9.5516928"><ele>201.0</ele><time>2026-04-04T13:18:02.813Z</time></trkpt><trkpt lat="45.6526745" lon="9.5516631"><ele>201.0</ele><time>2026-04-04T13:18:03.813Z</time></trkpt><trkpt lat="45.6526055" lon="9.551629"><ele>201.0</ele><time>2026-04-04T13:18:04.817Z</time></trkpt><trkpt lat="45.6525357" lon="9.5515976"><ele>201.0</ele><time>2026-04-04T13:18:05.811Z</time></trkpt><trkpt lat="45.6524647" lon="9.5515646"><ele>201.0</ele><time>2026-04-04T13:18:06.809Z</time></trkpt><trkpt lat="45.6523932" lon="9.5515333"><ele>201.0</ele><time>2026-04-04T13:18:07.821Z</time></trkpt><trkpt lat="45.6523226" lon="9.5515034"><ele>201.0</ele><time>2026-04-04T13:18:08.812Z</time></trkpt><trkpt lat="45.6522538" lon="9.5514682"><ele>201.0</ele><time>2026-04-04T13:18:09.815Z</time></trkpt><trkpt lat="45.6521844" lon="9.5514404"><ele>201.0</ele><time>2026-04-04T13:18:10.811Z</time></trkpt><trkpt lat="45.652112" lon="9.5514089"><ele>201.0</ele><time>2026-04-04T13:18:11.821Z</time></trkpt><trkpt lat="45.6520408" lon="9.5513782"><ele>201.0</ele><time>2026-04-04T13:18:12.817Z</time></trkpt><trkpt lat="45.6519667" lon="9.551348"><ele>201.0</ele><time>2026-04-04T13:18:13.809Z</time></trkpt><trkpt lat="45.6518956" lon="9.5513127"><ele>201.0</ele><time>2026-04-04T13:18:14.815Z</time></trkpt><trkpt lat="45.6518211" lon="9.5512845"><ele>201.0</ele><time>2026-04-04T13:18:15.809Z</time></trkpt><trkpt lat="45.6517503" lon="9.5512524"><ele>201.0</ele><time>2026-04-04T13:18:16.81Z</time></trkpt><trkpt lat="45.6516793" lon="9.5512276"><ele>201.0</ele><time>2026-04-04T13:18:17.815Z</time></trkpt><trkpt lat="45.6516113" lon="9.5511925"><ele>201.0</ele><time>2026-04-04T13:18:18.82Z</time></trkpt><trkpt lat="45.6515404" lon="9.5511567"><ele>201.0</ele><time>2026-04-04T13:18:19.811Z</time></trkpt><trkpt lat="45.651471" lon="9.5511248"><ele>201.0</ele><time>2026-04-04T13:18:20.811Z</time></trkpt><trkpt lat="45.6513994" lon="9.5510876"><ele>201.0</ele><time>2026-04-04T13:18:21.809Z</time></trkpt><trkpt lat="45.651333" lon="9.5510501"><ele>201.0</ele><time>2026-04-04T13:18:22.811Z</time></trkpt><trkpt lat="45.6512658" lon="9.551013"><ele>201.0</ele><time>2026-04-04T13:18:23.809Z</time></trkpt><trkpt lat="45.6511978" lon="9.5509834"><ele>201.0</ele><time>2026-04-04T13:18:24.81Z</time></trkpt><trkpt lat="45.6511326" lon="9.5509561"><ele>201.0</ele><time>2026-04-04T13:18:25.813Z</time></trkpt><trkpt lat="45.6510659" lon="9.5509269"><ele>201.0</ele><time>2026-04-04T13:18:26.811Z</time></trkpt><trkpt lat="45.6509998" lon="9.5509001"><ele>201.0</ele><time>2026-04-04T13:18:27.813Z</time></trkpt><trkpt lat="45.6509302" lon="9.5508723"><ele>201.0</ele><time>2026-04-04T13:18:28.821Z</time></trkpt><trkpt lat="45.6508576" lon="9.5508403"><ele>201.0</ele><time>2026-04-04T13:18:29.812Z</time></trkpt><trkpt lat="45.6507905" lon="9.5508194"><ele>201.0</ele><time>2026-04-04T13:18:30.814Z</time></trkpt><trkpt lat="45.6507225" lon="9.5507987"><ele>201.25</ele><time>2026-04-04T13:18:31.809Z</time></trkpt><trkpt lat="45.650599" lon="9.5508121"><ele>201.5</ele><time>2026-04-04T13:18:33.815Z</time></trkpt><trkpt lat="45.6504797" lon="9.5507942"><ele>201.75</ele><time>2026-04-04T13:18:35.817Z</time></trkpt><trkpt lat="45.6503665" lon="9.5507302"><ele>202.0</ele><time>2026-04-04T13:18:37.81Z</time></trkpt><trkpt lat="45.6502483" lon="9.5506791"><ele>202.0</ele><time>2026-04-04T13:18:39.814Z</time></trkpt><trkpt lat="45.6501849" lon="9.5506456"><ele>202.0</ele><time>2026-04-04T13:18:40.814Z</time></trkpt><trkpt lat="45.6501233" lon="9.5506112"><ele>202.0</ele><time>2026-04-04T13:18:41.813Z</time></trkpt><trkpt lat="45.6500031" lon="9.5505596"><ele>202.0</ele><time>2026-04-04T13:18:43.808Z</time></trkpt><trkpt lat="45.6498908" lon="9.5505025"><ele>202.0</ele><time>2026-04-04T13:18:45.808Z</time></trkpt><trkpt lat="45.6497863" lon="9.5504553"><ele>202.0</ele><time>2026-04-04T13:18:47.813Z</time></trkpt><trkpt lat="45.6496774" lon="9.5504143"><ele>202.0</ele><time>2026-04-04T13:18:49.81Z</time></trkpt><trkpt lat="45.649567" lon="9.550355"><ele>202.0</ele><time>2026-04-04T13:18:51.813Z</time></trkpt><trkpt lat="45.6494513" lon="9.5503105"><ele>202.0</ele><time>2026-04-04T13:18:53.814Z</time></trkpt><trkpt lat="45.6493431" lon="9.5502528"><ele>201.99999999999997</ele><time>2026-04-04T13:18:55.811Z</time></trkpt><trkpt lat="45.6492409" lon="9.5502298"><ele>202.0</ele><time>2026-04-04T13:18:57.811Z</time></trkpt><trkpt lat="45.6491784" lon="9.5502611"><ele>202.0</ele><time>2026-04-04T13:18:59.806Z</time></trkpt><trkpt lat="45.6490968" lon="9.550273"><ele>202.0</ele><time>2026-04-04T13:19:01.811Z</time></trkpt><trkpt lat="45.6490049" lon="9.5502933"><ele>201.99999999999997</ele><time>2026-04-04T13:19:03.809Z</time></trkpt><trkpt lat="45.6489071" lon="9.5503231"><ele>202.0</ele><time>2026-04-04T13:19:05.811Z</time></trkpt><trkpt lat="45.6488434" lon="9.5503317"><ele>202.0</ele><time>2026-04-04T13:19:06.809Z</time></trkpt><trkpt lat="45.6487784" lon="9.5503402"><ele>202.0</ele><time>2026-04-04T13:19:07.812Z</time></trkpt><trkpt lat="45.6487154" lon="9.5503551"><ele>202.0</ele><time>2026-04-04T13:19:08.807Z</time></trkpt><trkpt lat="45.6486505" lon="9.550374"><ele>202.0</ele><time>2026-04-04T13:19:09.811Z</time></trkpt><trkpt lat="45.6485809" lon="9.550391"><ele>202.0</ele><time>2026-04-04T13:19:10.814Z</time></trkpt><trkpt lat="45.6485115" lon="9.5504085"><ele>202.0</ele><time>2026-04-04T13:19:11.813Z</time></trkpt><trkpt lat="45.6484461" lon="9.5504248"><ele>202.0</ele><time>2026-04-04T13:19:12.813Z</time></trkpt><trkpt lat="45.6483747" lon="9.5504324"><ele>201.83333333333331</ele><time>2026-04-04T13:19:13.811Z</time></trkpt><trkpt lat="45.6483061" lon="9.5504505"><ele>201.66666666666666</ele><time>2026-04-04T13:19:14.813Z</time></trkpt><trkpt lat="45.6482433" lon="9.5504639"><ele>201.5</ele><time>2026-04-04T13:19:15.815Z</time></trkpt><trkpt lat="45.6481784" lon="9.550483"><ele>201.33333333333331</ele><time>2026-04-04T13:19:16.818Z</time></trkpt><trkpt lat="45.6481123" lon="9.5505074"><ele>201.16666666666666</ele><time>2026-04-04T13:19:17.815Z</time></trkpt><trkpt lat="45.6479904" lon="9.5505439"><ele>201.0</ele><time>2026-04-04T13:19:19.813Z</time></trkpt><trkpt lat="45.6478676" lon="9.5505916"><ele>201.0</ele><time>2026-04-04T13:19:21.813Z</time></trkpt><trkpt lat="45.6478017" lon="9.5506135"><ele>201.0</ele><time>2026-04-04T13:19:22.813Z</time></trkpt><trkpt lat="45.6477346" lon="9.5506398"><ele>201.0</ele><time>2026-04-04T13:19:23.813Z</time></trkpt><trkpt lat="45.6476657" lon="9.5506739"><ele>201.0</ele><time>2026-04-04T13:19:24.81Z</time></trkpt><trkpt lat="45.6476045" lon="9.5506993"><ele>201.0</ele><time>2026-04-04T13:19:25.812Z</time></trkpt><trkpt lat="45.647543" lon="9.550727"><ele>201.0</ele><time>2026-04-04T13:19:26.819Z</time></trkpt><trkpt lat="45.6474238" lon="9.5507687"><ele>200.8</ele><time>2026-04-04T13:19:28.81Z</time></trkpt><trkpt lat="45.6473168" lon="9.5508223"><ele>200.60000000000002</ele><time>2026-04-04T13:19:30.816Z</time></trkpt><trkpt lat="45.6472409" lon="9.5508675"><ele>200.4</ele><time>2026-04-04T13:19:32.813Z</time></trkpt><trkpt lat="45.6471948" lon="9.5509661"><ele>200.2</ele><time>2026-04-04T13:19:34.813Z</time></trkpt><trkpt lat="45.6471219" lon="9.551062"><ele>200.0</ele><time>2026-04-04T13:19:36.818Z</time></trkpt><trkpt lat="45.6470133" lon="9.5510778"><ele>199.66666666666669</ele><time>2026-04-04T13:19:38.811Z</time></trkpt><trkpt lat="45.6468885" lon="9.5510789"><ele>199.33333333333334</ele><time>2026-04-04T13:19:40.814Z</time></trkpt><trkpt lat="45.646823" lon="9.5510768"><ele>199.0</ele><time>2026-04-04T13:19:41.815Z</time></trkpt><trkpt lat="45.6467577" lon="9.5510724"><ele>198.66666666666669</ele><time>2026-04-04T13:19:42.811Z</time></trkpt><trkpt lat="45.6466854" lon="9.5510811"><ele>198.33333333333334</ele><time>2026-04-04T13:19:43.818Z</time></trkpt><trkpt lat="45.6466171" lon="9.5510781"><ele>198.0</ele><time>2026-04-04T13:19:44.821Z</time></trkpt><trkpt lat="45.6465471" lon="9.5510763"><ele>198.0</ele><time>2026-04-04T13:19:45.815Z</time></trkpt><trkpt lat="45.6464751" lon="9.5510771"><ele>198.0</ele><time>2026-04-04T13:19:46.815Z</time></trkpt><trkpt lat="45.646406" lon="9.5510765"><ele>198.0</ele><time>2026-04-04T13:19:47.817Z</time></trkpt><trkpt lat="45.6463322" lon="9.5510923"><ele>198.0</ele><time>2026-04-04T13:19:48.812Z</time></trkpt><trkpt lat="45.6462618" lon="9.5511007"><ele>198.0</ele><time>2026-04-04T13:19:49.813Z</time></trkpt><trkpt lat="45.64619" lon="9.5511123"><ele>198.0</ele><time>2026-04-04T13:19:50.811Z</time></trkpt><trkpt lat="45.6461195" lon="9.5511321"><ele>198.0</ele><time>2026-04-04T13:19:51.822Z</time></trkpt><trkpt lat="45.6460491" lon="9.5511445"><ele>197.85714285714286</ele><time>2026-04-04T13:19:52.814Z</time></trkpt><trkpt lat="45.6459796" lon="9.5511393"><ele>197.7142857142857</ele><time>2026-04-04T13:19:53.806Z</time></trkpt><trkpt lat="45.6459105" lon="9.5511421"><ele>197.57142857142856</ele><time>2026-04-04T13:19:54.81Z</time></trkpt><trkpt lat="45.6458443" lon="9.5511481"><ele>197.42857142857144</ele><time>2026-04-04T13:19:55.816Z</time></trkpt><trkpt lat="45.6457752" lon="9.5511543"><ele>197.28571428571428</ele><time>2026-04-04T13:19:56.81Z</time></trkpt><trkpt lat="45.6457068" lon="9.5511614"><ele>197.14285714285714</ele><time>2026-04-04T13:19:57.81Z</time></trkpt><trkpt lat="45.6456403" lon="9.5511699"><ele>197.0</ele><time>2026-04-04T13:19:58.812Z</time></trkpt><trkpt lat="45.6455212" lon="9.5511709"><ele>197.0</ele><time>2026-04-04T13:20:00.813Z</time></trkpt><trkpt lat="45.6454369" lon="9.551174"><ele>197.0</ele><time>2026-04-04T13:20:02.814Z</time></trkpt><trkpt lat="45.6453772" lon="9.5512561"><ele>197.0</ele><time>2026-04-04T13:20:08.815Z</time></trkpt><trkpt lat="45.645405" lon="9.551367"><ele>197.0</ele><time>2026-04-04T13:20:10.815Z</time></trkpt><trkpt lat="45.6454235" lon="9.5515081"><ele>197.0</ele><time>2026-04-04T13:20:12.811Z</time></trkpt><trkpt lat="45.6454374" lon="9.5516667"><ele>196.83333333333334</ele><time>2026-04-04T13:20:14.813Z</time></trkpt><trkpt lat="45.6454556" lon="9.551843"><ele>196.66666666666669</ele><time>2026-04-04T13:20:16.815Z</time></trkpt><trkpt lat="45.6454688" lon="9.5519344"><ele>196.5</ele><time>2026-04-04T13:20:17.812Z</time></trkpt><trkpt lat="45.6454834" lon="9.5520225"><ele>196.33333333333331</ele><time>2026-04-04T13:20:18.811Z</time></trkpt><trkpt lat="45.6454972" lon="9.5521159"><ele>196.16666666666666</ele><time>2026-04-04T13:20:19.822Z</time></trkpt><trkpt lat="45.6455057" lon="9.5522073"><ele>196.0</ele><time>2026-04-04T13:20:20.813Z</time></trkpt><trkpt lat="45.6455353" lon="9.5523699"><ele>196.0</ele><time>2026-04-04T13:20:22.823Z</time></trkpt><trkpt lat="45.6455542" lon="9.5525395"><ele>196.0</ele><time>2026-04-04T13:20:24.815Z</time></trkpt><trkpt lat="45.6455655" lon="9.5527012"><ele>196.0</ele><time>2026-04-04T13:20:26.81Z</time></trkpt><trkpt lat="45.6455263" lon="9.5528124"><ele>196.0</ele><time>2026-04-04T13:20:28.812Z</time></trkpt><trkpt lat="45.6454389" lon="9.5529137"><ele>196.0</ele><time>2026-04-04T13:20:30.814Z</time></trkpt><trkpt lat="45.6453515" lon="9.5530108"><ele>196.0</ele><time>2026-04-04T13:20:32.81Z</time></trkpt><trkpt lat="45.6452585" lon="9.5531173"><ele>196.0</ele><time>2026-04-04T13:20:34.817Z</time></trkpt><trkpt lat="45.6451598" lon="9.5532227"><ele>196.0</ele><time>2026-04-04T13:20:36.811Z</time></trkpt><trkpt lat="45.6450553" lon="9.5533354"><ele>196.0</ele><time>2026-04-04T13:20:38.81Z</time></trkpt><trkpt lat="45.6449993" lon="9.5533955"><ele>196.0</ele><time>2026-04-04T13:20:39.809Z</time></trkpt><trkpt lat="45.6449485" lon="9.5534574"><ele>195.99999999999997</ele><time>2026-04-04T13:20:40.81Z</time></trkpt><trkpt lat="45.6448972" lon="9.5535186"><ele>196.0</ele><time>2026-04-04T13:20:41.811Z</time></trkpt><trkpt lat="45.6448462" lon="9.5535738"><ele>196.0</ele><time>2026-04-04T13:20:42.82Z</time></trkpt><trkpt lat="45.6447459" lon="9.5536857"><ele>196.0</ele><time>2026-04-04T13:20:44.813Z</time></trkpt><trkpt lat="45.6446979" lon="9.5537499"><ele>195.99999999999997</ele><time>2026-04-04T13:20:45.816Z</time></trkpt><trkpt lat="45.6446477" lon="9.5538073"><ele>196.0</ele><time>2026-04-04T13:20:46.81Z</time></trkpt><trkpt lat="45.6445957" lon="9.5538632"><ele>196.16666666666666</ele><time>2026-04-04T13:20:47.811Z</time></trkpt><trkpt lat="45.6445386" lon="9.5539196"><ele>196.33333333333331</ele><time>2026-04-04T13:20:48.807Z</time></trkpt><trkpt lat="45.6444335" lon="9.5540258"><ele>196.5</ele><time>2026-04-04T13:20:50.819Z</time></trkpt><trkpt lat="45.6443774" lon="9.5540891"><ele>196.66666666666669</ele><time>2026-04-04T13:20:51.809Z</time></trkpt><trkpt lat="45.6443227" lon="9.5541473"><ele>196.83333333333334</ele><time>2026-04-04T13:20:52.811Z</time></trkpt><trkpt lat="45.6442671" lon="9.5542094"><ele>197.0</ele><time>2026-04-04T13:20:53.809Z</time></trkpt><trkpt lat="45.6442129" lon="9.5542696"><ele>196.71428571428572</ele><time>2026-04-04T13:20:54.81Z</time></trkpt><trkpt lat="45.6441572" lon="9.5543317"><ele>196.42857142857144</ele><time>2026-04-04T13:20:55.814Z</time></trkpt><trkpt lat="45.6441012" lon="9.5543858"><ele>196.14285714285714</ele><time>2026-04-04T13:20:56.812Z</time></trkpt><trkpt lat="45.6440421" lon="9.5544318"><ele>195.85714285714286</ele><time>2026-04-04T13:20:57.811Z</time></trkpt><trkpt lat="45.6439767" lon="9.5544774"><ele>195.57142857142856</ele><time>2026-04-04T13:20:58.811Z</time></trkpt><trkpt lat="45.6439096" lon="9.5545177"><ele>195.28571428571428</ele><time>2026-04-04T13:20:59.812Z</time></trkpt><trkpt lat="45.6438381" lon="9.5545472"><ele>195.0</ele><time>2026-04-04T13:21:00.814Z</time></trkpt><trkpt lat="45.6437078" lon="9.5545614"><ele>195.0</ele><time>2026-04-04T13:21:02.809Z</time></trkpt><trkpt lat="45.6436321" lon="9.5545707"><ele>195.0</ele><time>2026-04-04T13:21:03.811Z</time></trkpt><trkpt lat="45.6435581" lon="9.5545726"><ele>195.0</ele><time>2026-04-04T13:21:04.815Z</time></trkpt><trkpt lat="45.643485" lon="9.5545737"><ele>195.0</ele><time>2026-04-04T13:21:05.812Z</time></trkpt><trkpt lat="45.643413" lon="9.55457"><ele>195.0</ele><time>2026-04-04T13:21:06.811Z</time></trkpt><trkpt lat="45.6433366" lon="9.5545721"><ele>195.0</ele><time>2026-04-04T13:21:07.812Z</time></trkpt><trkpt lat="45.6432619" lon="9.5545645"><ele>195.0</ele><time>2026-04-04T13:21:08.814Z</time></trkpt><trkpt lat="45.6431887" lon="9.5545605"><ele>195.0</ele><time>2026-04-04T13:21:09.815Z</time></trkpt><trkpt lat="45.6431121" lon="9.5545511"><ele>195.0</ele><time>2026-04-04T13:21:10.819Z</time></trkpt><trkpt lat="45.6430394" lon="9.5545381"><ele>195.0</ele><time>2026-04-04T13:21:11.808Z</time></trkpt><trkpt lat="45.6429635" lon="9.5545245"><ele>195.0</ele><time>2026-04-04T13:21:12.811Z</time></trkpt><trkpt lat="45.6428878" lon="9.5545129"><ele>195.0</ele><time>2026-04-04T13:21:13.808Z</time></trkpt><trkpt lat="45.6428151" lon="9.5544952"><ele>195.0</ele><time>2026-04-04T13:21:14.813Z</time></trkpt><trkpt lat="45.6427457" lon="9.5544729"><ele>195.0</ele><time>2026-04-04T13:21:15.816Z</time></trkpt><trkpt lat="45.6426698" lon="9.5544602"><ele>194.5</ele><time>2026-04-04T13:21:16.814Z</time></trkpt><trkpt lat="45.6425933" lon="9.5544442"><ele>194.0</ele><time>2026-04-04T13:21:17.808Z</time></trkpt><trkpt lat="45.6425121" lon="9.5544358"><ele>193.5</ele><time>2026-04-04T13:21:18.814Z</time></trkpt><trkpt lat="45.6424353" lon="9.5544224"><ele>193.0</ele><time>2026-04-04T13:21:19.808Z</time></trkpt><trkpt lat="45.6423595" lon="9.5543985"><ele>192.5</ele><time>2026-04-04T13:21:20.812Z</time></trkpt><trkpt lat="45.6422766" lon="9.5543964"><ele>192.0</ele><time>2026-04-04T13:21:21.808Z</time></trkpt><trkpt lat="45.6421958" lon="9.5544038"><ele>192.0</ele><time>2026-04-04T13:21:22.813Z</time></trkpt><trkpt lat="45.6421125" lon="9.5544279"><ele>192.0</ele><time>2026-04-04T13:21:23.814Z</time></trkpt><trkpt lat="45.6420314" lon="9.5544476"><ele>192.0</ele><time>2026-04-04T13:21:24.813Z</time></trkpt><trkpt lat="45.6419467" lon="9.5544706"><ele>192.0</ele><time>2026-04-04T13:21:25.815Z</time></trkpt><trkpt lat="45.6418694" lon="9.5544918"><ele>192.0</ele><time>2026-04-04T13:21:26.809Z</time></trkpt><trkpt lat="45.6417928" lon="9.5545207"><ele>192.0</ele><time>2026-04-04T13:21:27.81Z</time></trkpt><trkpt lat="45.6417166" lon="9.5545504"><ele>192.0</ele><time>2026-04-04T13:21:28.817Z</time></trkpt><trkpt lat="45.6416406" lon="9.5545811"><ele>192.0</ele><time>2026-04-04T13:21:29.814Z</time></trkpt><trkpt lat="45.6415692" lon="9.5546246"><ele>192.0</ele><time>2026-04-04T13:21:30.814Z</time></trkpt><trkpt lat="45.641497" lon="9.5546641"><ele>192.0</ele><time>2026-04-04T13:21:31.808Z</time></trkpt><trkpt lat="45.6414214" lon="9.554706"><ele>192.0</ele><time>2026-04-04T13:21:32.811Z</time></trkpt><trkpt lat="45.6413453" lon="9.5547467"><ele>192.0</ele><time>2026-04-04T13:21:33.812Z</time></trkpt><trkpt lat="45.6412667" lon="9.5547857"><ele>192.0</ele><time>2026-04-04T13:21:34.808Z</time></trkpt><trkpt lat="45.6411884" lon="9.5548212"><ele>192.0</ele><time>2026-04-04T13:21:35.812Z</time></trkpt><trkpt lat="45.6411093" lon="9.5548515"><ele>192.0</ele><time>2026-04-04T13:21:36.809Z</time></trkpt><trkpt lat="45.6410269" lon="9.5548929"><ele>192.0</ele><time>2026-04-04T13:21:37.817Z</time></trkpt><trkpt lat="45.6409484" lon="9.5549213"><ele>192.0</ele><time>2026-04-04T13:21:38.819Z</time></trkpt><trkpt lat="45.6408656" lon="9.5549543"><ele>192.0</ele><time>2026-04-04T13:21:39.819Z</time></trkpt><trkpt lat="45.6407777" lon="9.5549908"><ele>192.16666666666666</ele><time>2026-04-04T13:21:40.812Z</time></trkpt><trkpt lat="45.640695" lon="9.5550261"><ele>192.33333333333331</ele><time>2026-04-04T13:21:41.813Z</time></trkpt><trkpt lat="45.6406189" lon="9.555085"><ele>192.5</ele><time>2026-04-04T13:21:42.808Z</time></trkpt><trkpt lat="45.6405396" lon="9.5551429"><ele>192.66666666666666</ele><time>2026-04-04T13:21:43.813Z</time></trkpt><trkpt lat="45.6404595" lon="9.5552115"><ele>192.83333333333331</ele><time>2026-04-04T13:21:44.815Z</time></trkpt><trkpt lat="45.6403798" lon="9.5552708"><ele>193.0</ele><time>2026-04-04T13:21:45.809Z</time></trkpt><trkpt lat="45.6403014" lon="9.5553318"><ele>192.33333333333331</ele><time>2026-04-04T13:21:46.815Z</time></trkpt><trkpt lat="45.640226" lon="9.5553917"><ele>191.66666666666666</ele><time>2026-04-04T13:21:47.808Z</time></trkpt><trkpt lat="45.6401507" lon="9.555444"><ele>191.0</ele><time>2026-04-04T13:21:48.817Z</time></trkpt><trkpt lat="45.6400762" lon="9.5555045"><ele>190.33333333333331</ele><time>2026-04-04T13:21:49.815Z</time></trkpt><trkpt lat="45.6399956" lon="9.5555638"><ele>189.66666666666666</ele><time>2026-04-04T13:21:50.815Z</time></trkpt><trkpt lat="45.6399175" lon="9.5556247"><ele>189.0</ele><time>2026-04-04T13:21:51.813Z</time></trkpt><trkpt lat="45.6398381" lon="9.5556904"><ele>189.0</ele><time>2026-04-04T13:21:52.812Z</time></trkpt><trkpt lat="45.63976" lon="9.5557427"><ele>189.0</ele><time>2026-04-04T13:21:53.811Z</time></trkpt><trkpt lat="45.6396789" lon="9.5557927"><ele>189.0</ele><time>2026-04-04T13:21:54.818Z</time></trkpt><trkpt lat="45.6396037" lon="9.5558368"><ele>189.0</ele><time>2026-04-04T13:21:55.813Z</time></trkpt><trkpt lat="45.6395305" lon="9.5558764"><ele>189.0</ele><time>2026-04-04T13:21:56.816Z</time></trkpt><trkpt lat="45.6394587" lon="9.5559174"><ele>189.0</ele><time>2026-04-04T13:21:57.81Z</time></trkpt><trkpt lat="45.6393869" lon="9.5559413"><ele>188.0</ele><time>2026-04-04T13:21:58.817Z</time></trkpt><trkpt lat="45.6392791" lon="9.5559708"><ele>187.0</ele><time>2026-04-04T13:22:00.818Z</time></trkpt><trkpt lat="45.6391807" lon="9.5559519"><ele>186.0</ele><time>2026-04-04T13:22:02.814Z</time></trkpt><trkpt lat="45.6390782" lon="9.5559335"><ele>185.0</ele><time>2026-04-04T13:22:04.817Z</time></trkpt><trkpt lat="45.6389759" lon="9.5559312"><ele>184.0</ele><time>2026-04-04T13:22:06.815Z</time></trkpt><trkpt lat="45.6388781" lon="9.555945"><ele>184.0</ele><time>2026-04-04T13:22:08.81Z</time></trkpt><trkpt lat="45.6387937" lon="9.5559464"><ele>184.0</ele><time>2026-04-04T13:22:10.811Z</time></trkpt><trkpt lat="45.6387022" lon="9.555967"><ele>184.0</ele><time>2026-04-04T13:22:12.812Z</time></trkpt><trkpt lat="45.6386168" lon="9.5559714"><ele>184.0</ele><time>2026-04-04T13:22:14.812Z</time></trkpt><trkpt lat="45.6385536" lon="9.5560002"><ele>184.0</ele><time>2026-04-04T13:22:16.815Z</time></trkpt><trkpt lat="45.6384591" lon="9.5560078"><ele>184.0</ele><time>2026-04-04T13:22:19.822Z</time></trkpt><trkpt lat="45.6383803" lon="9.5559616"><ele>183.6</ele><time>2026-04-04T13:22:21.814Z</time></trkpt><trkpt lat="45.6382891" lon="9.5559359"><ele>183.2</ele><time>2026-04-04T13:22:23.808Z</time></trkpt><trkpt lat="45.6381884" lon="9.5558968"><ele>182.79999999999998</ele><time>2026-04-04T13:22:25.807Z</time></trkpt><trkpt lat="45.6380881" lon="9.5558458"><ele>182.39999999999998</ele><time>2026-04-04T13:22:27.812Z</time></trkpt><trkpt lat="45.6379678" lon="9.5557953"><ele>182.0</ele><time>2026-04-04T13:22:29.812Z</time></trkpt><trkpt lat="45.6378596" lon="9.5557365"><ele>182.75</ele><time>2026-04-04T13:22:31.81Z</time></trkpt><trkpt lat="45.6377463" lon="9.5556888"><ele>183.5</ele><time>2026-04-04T13:22:33.812Z</time></trkpt><trkpt lat="45.6376248" lon="9.5556879"><ele>184.25</ele><time>2026-04-04T13:22:35.81Z</time></trkpt><trkpt lat="45.6375072" lon="9.5556942"><ele>185.0</ele><time>2026-04-04T13:22:37.812Z</time></trkpt><trkpt lat="45.637395" lon="9.5557035"><ele>185.0</ele><time>2026-04-04T13:22:39.81Z</time></trkpt><trkpt lat="45.6372916" lon="9.5557363"><ele>185.0</ele><time>2026-04-04T13:22:41.816Z</time></trkpt><trkpt lat="45.6371885" lon="9.5557693"><ele>185.0</ele><time>2026-04-04T13:22:43.819Z</time></trkpt><trkpt lat="45.6370953" lon="9.555766"><ele>185.0</ele><time>2026-04-04T13:22:45.81Z</time></trkpt><trkpt lat="45.6369875" lon="9.555759"><ele>185.0</ele><time>2026-04-04T13:22:47.812Z</time></trkpt><trkpt lat="45.6369247" lon="9.5557707"><ele>185.0</ele><time>2026-04-04T13:22:48.808Z</time></trkpt><trkpt lat="45.6368122" lon="9.5557828"><ele>185.0</ele><time>2026-04-04T13:22:50.811Z</time></trkpt><trkpt lat="45.6366856" lon="9.5557996"><ele>185.0</ele><time>2026-04-04T13:22:52.814Z</time></trkpt><trkpt lat="45.6365651" lon="9.5558046"><ele>185.0</ele><time>2026-04-04T13:22:54.814Z</time></trkpt><trkpt lat="45.6364433" lon="9.555824"><ele>185.0</ele><time>2026-04-04T13:22:56.805Z</time></trkpt><trkpt lat="45.636325" lon="9.5558257"><ele>185.0</ele><time>2026-04-04T13:22:58.808Z</time></trkpt><trkpt lat="45.6362083" lon="9.5558252"><ele>185.0</ele><time>2026-04-04T13:23:00.819Z</time></trkpt><trkpt lat="45.6360898" lon="9.55581"><ele>185.0</ele><time>2026-04-04T13:23:02.815Z</time></trkpt><trkpt lat="45.6359664" lon="9.5558114"><ele>185.25</ele><time>2026-04-04T13:23:04.811Z</time></trkpt><trkpt lat="45.6358469" lon="9.5558137"><ele>185.5</ele><time>2026-04-04T13:23:06.806Z</time></trkpt><trkpt lat="45.6357384" lon="9.5558272"><ele>185.75</ele><time>2026-04-04T13:23:08.812Z</time></trkpt><trkpt lat="45.6356243" lon="9.5558957"><ele>186.0</ele><time>2026-04-04T13:23:10.809Z</time></trkpt><trkpt lat="45.6355094" lon="9.5559841"><ele>186.0</ele><time>2026-04-04T13:23:12.809Z</time></trkpt><trkpt lat="45.6354533" lon="9.5560345"><ele>186.0</ele><time>2026-04-04T13:23:13.816Z</time></trkpt><trkpt lat="45.6353947" lon="9.5560874"><ele>186.0</ele><time>2026-04-04T13:23:14.81Z</time></trkpt><trkpt lat="45.6352811" lon="9.5561839"><ele>186.0</ele><time>2026-04-04T13:23:16.808Z</time></trkpt><trkpt lat="45.6352227" lon="9.5562371"><ele>186.0</ele><time>2026-04-04T13:23:17.808Z</time></trkpt><trkpt lat="45.6351595" lon="9.5562941"><ele>186.0</ele><time>2026-04-04T13:23:18.807Z</time></trkpt><trkpt lat="45.6350968" lon="9.5563466"><ele>185.42857142857144</ele><time>2026-04-04T13:23:19.811Z</time></trkpt><trkpt lat="45.6350324" lon="9.5563898"><ele>184.85714285714286</ele><time>2026-04-04T13:23:20.809Z</time></trkpt><trkpt lat="45.6349647" lon="9.5564265"><ele>184.28571428571428</ele><time>2026-04-04T13:23:21.814Z</time></trkpt><trkpt lat="45.6348996" lon="9.5564534"><ele>183.71428571428572</ele><time>2026-04-04T13:23:22.808Z</time></trkpt><trkpt lat="45.6348391" lon="9.5564795"><ele>183.14285714285714</ele><time>2026-04-04T13:23:23.812Z</time></trkpt><trkpt lat="45.6347713" lon="9.5565019"><ele>182.57142857142858</ele><time>2026-04-04T13:23:24.815Z</time></trkpt><trkpt lat="45.6347024" lon="9.5565295"><ele>182.0</ele><time>2026-04-04T13:23:25.808Z</time></trkpt><trkpt lat="45.6346282" lon="9.5565472"><ele>182.0</ele><time>2026-04-04T13:23:26.825Z</time></trkpt><trkpt lat="45.6345632" lon="9.5565569"><ele>182.0</ele><time>2026-04-04T13:23:27.812Z</time></trkpt><trkpt lat="45.6344982" lon="9.5565664"><ele>182.0</ele><time>2026-04-04T13:23:28.81Z</time></trkpt><trkpt lat="45.6344318" lon="9.556568"><ele>182.0</ele><time>2026-04-04T13:23:29.808Z</time></trkpt><trkpt lat="45.6343668" lon="9.5565712"><ele>182.0</ele><time>2026-04-04T13:23:30.815Z</time></trkpt><trkpt lat="45.6342533" lon="9.5565247"><ele>182.0</ele><time>2026-04-04T13:23:32.813Z</time></trkpt><trkpt lat="45.6341426" lon="9.5564844"><ele>182.0</ele><time>2026-04-04T13:23:34.809Z</time></trkpt><trkpt lat="45.6340859" lon="9.5565292"><ele>182.0</ele><time>2026-04-04T13:23:35.812Z</time></trkpt><trkpt lat="45.6339544" lon="9.5565424"><ele>182.0</ele><time>2026-04-04T13:23:37.818Z</time></trkpt><trkpt lat="45.6338889" lon="9.5565324"><ele>182.0</ele><time>2026-04-04T13:23:38.807Z</time></trkpt><trkpt lat="45.6338207" lon="9.5565151"><ele>182.0</ele><time>2026-04-04T13:23:39.811Z</time></trkpt><trkpt lat="45.6337457" lon="9.5565008"><ele>182.0</ele><time>2026-04-04T13:23:40.814Z</time></trkpt><trkpt lat="45.6336748" lon="9.5564912"><ele>182.14285714285714</ele><time>2026-04-04T13:23:41.808Z</time></trkpt><trkpt lat="45.6336057" lon="9.5564889"><ele>182.28571428571428</ele><time>2026-04-04T13:23:42.812Z</time></trkpt><trkpt lat="45.6335356" lon="9.5564889"><ele>182.42857142857144</ele><time>2026-04-04T13:23:43.817Z</time></trkpt><trkpt lat="45.6334687" lon="9.5564848"><ele>182.57142857142856</ele><time>2026-04-04T13:23:44.817Z</time></trkpt><trkpt lat="45.6334005" lon="9.556488"><ele>182.71428571428572</ele><time>2026-04-04T13:23:45.811Z</time></trkpt><trkpt lat="45.6333319" lon="9.5564886"><ele>182.85714285714286</ele><time>2026-04-04T13:23:46.813Z</time></trkpt><trkpt lat="45.6332576" lon="9.5564921"><ele>183.0</ele><time>2026-04-04T13:23:47.807Z</time></trkpt><trkpt lat="45.6331219" lon="9.5565071"><ele>183.0</ele><time>2026-04-04T13:23:49.815Z</time></trkpt><trkpt lat="45.6330511" lon="9.5565226"><ele>183.0</ele><time>2026-04-04T13:23:50.811Z</time></trkpt><trkpt lat="45.6329767" lon="9.5565406"><ele>183.0</ele><time>2026-04-04T13:23:51.815Z</time></trkpt><trkpt lat="45.6329021" lon="9.5565553"><ele>183.0</ele><time>2026-04-04T13:23:52.812Z</time></trkpt><trkpt lat="45.6328314" lon="9.5565672"><ele>183.0</ele><time>2026-04-04T13:23:53.811Z</time></trkpt><trkpt lat="45.6327552" lon="9.5565718"><ele>183.0</ele><time>2026-04-04T13:23:54.814Z</time></trkpt><trkpt lat="45.6326804" lon="9.5565796"><ele>183.0</ele><time>2026-04-04T13:23:55.813Z</time></trkpt><trkpt lat="45.6326077" lon="9.556578"><ele>183.16666666666666</ele><time>2026-04-04T13:23:56.813Z</time></trkpt><trkpt lat="45.6325321" lon="9.5565779"><ele>183.33333333333334</ele><time>2026-04-04T13:23:57.811Z</time></trkpt><trkpt lat="45.6324558" lon="9.5565706"><ele>183.5</ele><time>2026-04-04T13:23:58.811Z</time></trkpt><trkpt lat="45.6323813" lon="9.5565585"><ele>183.66666666666669</ele><time>2026-04-04T13:23:59.808Z</time></trkpt><trkpt lat="45.6323025" lon="9.5565486"><ele>183.83333333333334</ele><time>2026-04-04T13:24:00.811Z</time></trkpt><trkpt lat="45.6322298" lon="9.5565393"><ele>184.0</ele><time>2026-04-04T13:24:01.818Z</time></trkpt><trkpt lat="45.6321513" lon="9.5565311"><ele>184.0</ele><time>2026-04-04T13:24:02.809Z</time></trkpt><trkpt lat="45.6320749" lon="9.5565216"><ele>184.0</ele><time>2026-04-04T13:24:03.814Z</time></trkpt><trkpt lat="45.6319965" lon="9.5565064"><ele>184.0</ele><time>2026-04-04T13:24:04.818Z</time></trkpt><trkpt lat="45.6319197" lon="9.5564921"><ele>184.0</ele><time>2026-04-04T13:24:05.817Z</time></trkpt><trkpt lat="45.6318432" lon="9.5564793"><ele>184.0</ele><time>2026-04-04T13:24:06.816Z</time></trkpt><trkpt lat="45.6317629" lon="9.5564632"><ele>184.0</ele><time>2026-04-04T13:24:07.812Z</time></trkpt><trkpt lat="45.6316872" lon="9.5564351"><ele>184.0</ele><time>2026-04-04T13:24:08.809Z</time></trkpt><trkpt lat="45.6316094" lon="9.5564072"><ele>184.0</ele><time>2026-04-04T13:24:09.815Z</time></trkpt><trkpt lat="45.6315319" lon="9.5563791"><ele>184.0</ele><time>2026-04-04T13:24:10.811Z</time></trkpt><trkpt lat="45.6314532" lon="9.5563467"><ele>184.0</ele><time>2026-04-04T13:24:11.806Z</time></trkpt><trkpt lat="45.6313748" lon="9.5563169"><ele>184.0</ele><time>2026-04-04T13:24:12.815Z</time></trkpt><trkpt lat="45.6313008" lon="9.5562867"><ele>184.0</ele><time>2026-04-04T13:24:13.818Z</time></trkpt><trkpt lat="45.6312243" lon="9.5562539"><ele>184.0</ele><time>2026-04-04T13:24:14.808Z</time></trkpt><trkpt lat="45.6311471" lon="9.5562292"><ele>184.0</ele><time>2026-04-04T13:24:15.814Z</time></trkpt><trkpt lat="45.6310711" lon="9.5562008"><ele>184.0</ele><time>2026-04-04T13:24:16.815Z</time></trkpt><trkpt lat="45.6309956" lon="9.5561679"><ele>184.0</ele><time>2026-04-04T13:24:17.814Z</time></trkpt><trkpt lat="45.6309205" lon="9.5561394"><ele>184.0</ele><time>2026-04-04T13:24:18.813Z</time></trkpt><trkpt lat="45.6308441" lon="9.5561086"><ele>184.0</ele><time>2026-04-04T13:24:19.813Z</time></trkpt><trkpt lat="45.6307677" lon="9.5560777"><ele>184.16666666666669</ele><time>2026-04-04T13:24:20.809Z</time></trkpt><trkpt lat="45.6306874" lon="9.5560486"><ele>184.33333333333334</ele><time>2026-04-04T13:24:21.81Z</time></trkpt><trkpt lat="45.6306077" lon="9.5560213"><ele>184.5</ele><time>2026-04-04T13:24:22.813Z</time></trkpt><trkpt lat="45.6305313" lon="9.5559839"><ele>184.66666666666666</ele><time>2026-04-04T13:24:23.812Z</time></trkpt><trkpt lat="45.6304551" lon="9.5559495"><ele>184.83333333333331</ele><time>2026-04-04T13:24:24.811Z</time></trkpt><trkpt lat="45.6303791" lon="9.5559133"><ele>185.0</ele><time>2026-04-04T13:24:25.813Z</time></trkpt><trkpt lat="45.6303023" lon="9.5558839"><ele>184.66666666666666</ele><time>2026-04-04T13:24:26.81Z</time></trkpt><trkpt lat="45.6302245" lon="9.5558544"><ele>184.33333333333331</ele><time>2026-04-04T13:24:27.808Z</time></trkpt><trkpt lat="45.630148" lon="9.5558304"><ele>184.0</ele><time>2026-04-04T13:24:28.813Z</time></trkpt><trkpt lat="45.6300662" lon="9.5558063"><ele>183.66666666666666</ele><time>2026-04-04T13:24:29.816Z</time></trkpt><trkpt lat="45.6299858" lon="9.5557959"><ele>183.33333333333334</ele><time>2026-04-04T13:24:30.811Z</time></trkpt><trkpt lat="45.6299076" lon="9.5557899"><ele>183.0</ele><time>2026-04-04T13:24:31.814Z</time></trkpt><trkpt lat="45.6298259" lon="9.5557925"><ele>183.0</ele><time>2026-04-04T13:24:32.812Z</time></trkpt><trkpt lat="45.6297486" lon="9.5557989"><ele>183.0</ele><time>2026-04-04T13:24:33.814Z</time></trkpt><trkpt lat="45.6296703" lon="9.5558145"><ele>183.0</ele><time>2026-04-04T13:24:34.813Z</time></trkpt><trkpt lat="45.6295956" lon="9.5558358"><ele>183.0</ele><time>2026-04-04T13:24:35.812Z</time></trkpt><trkpt lat="45.629522" lon="9.5558711"><ele>183.0</ele><time>2026-04-04T13:24:36.813Z</time></trkpt><trkpt lat="45.6294505" lon="9.5559114"><ele>183.0</ele><time>2026-04-04T13:24:37.812Z</time></trkpt><trkpt lat="45.6293822" lon="9.5559497"><ele>183.0</ele><time>2026-04-04T13:24:38.811Z</time></trkpt><trkpt lat="45.6293102" lon="9.5559999"><ele>183.0</ele><time>2026-04-04T13:24:39.81Z</time></trkpt><trkpt lat="45.629246" lon="9.556045"><ele>183.0</ele><time>2026-04-04T13:24:40.811Z</time></trkpt><trkpt lat="45.629178" lon="9.5560911"><ele>183.0</ele><time>2026-04-04T13:24:41.806Z</time></trkpt><trkpt lat="45.6291088" lon="9.5561482"><ele>183.0</ele><time>2026-04-04T13:24:42.808Z</time></trkpt><trkpt lat="45.6290395" lon="9.5562072"><ele>183.0</ele><time>2026-04-04T13:24:43.813Z</time></trkpt><trkpt lat="45.628968" lon="9.5562579"><ele>183.0</ele><time>2026-04-04T13:24:44.807Z</time></trkpt><trkpt lat="45.6288979" lon="9.5563069"><ele>183.0</ele><time>2026-04-04T13:24:45.811Z</time></trkpt><trkpt lat="45.6288261" lon="9.5563559"><ele>183.0</ele><time>2026-04-04T13:24:46.812Z</time></trkpt><trkpt lat="45.6287536" lon="9.5563869"><ele>183.0</ele><time>2026-04-04T13:24:47.809Z</time></trkpt><trkpt lat="45.6286852" lon="9.5564228"><ele>183.0</ele><time>2026-04-04T13:24:48.815Z</time></trkpt><trkpt lat="45.6286144" lon="9.5564435"><ele>183.0</ele><time>2026-04-04T13:24:49.814Z</time></trkpt><trkpt lat="45.6285418" lon="9.5564663"><ele>183.14285714285714</ele><time>2026-04-04T13:24:50.807Z</time></trkpt><trkpt lat="45.628468" lon="9.5564866"><ele>183.28571428571428</ele><time>2026-04-04T13:24:51.81Z</time></trkpt><trkpt lat="45.6283965" lon="9.556502"><ele>183.42857142857144</ele><time>2026-04-04T13:24:52.812Z</time></trkpt><trkpt lat="45.6283247" lon="9.5565029"><ele>183.57142857142856</ele><time>2026-04-04T13:24:53.806Z</time></trkpt><trkpt lat="45.6282501" lon="9.5565118"><ele>183.7142857142857</ele><time>2026-04-04T13:24:54.808Z</time></trkpt><trkpt lat="45.6281765" lon="9.5565165"><ele>183.85714285714286</ele><time>2026-04-04T13:24:55.81Z</time></trkpt><trkpt lat="45.6281006" lon="9.5565201"><ele>184.0</ele><time>2026-04-04T13:24:56.814Z</time></trkpt><trkpt lat="45.6280293" lon="9.5565062"><ele>184.0</ele><time>2026-04-04T13:24:57.809Z</time></trkpt><trkpt lat="45.6279589" lon="9.5564753"><ele>184.0</ele><time>2026-04-04T13:24:58.809Z</time></trkpt><trkpt lat="45.6278901" lon="9.5564491"><ele>184.0</ele><time>2026-04-04T13:24:59.809Z</time></trkpt><trkpt lat="45.6278213" lon="9.556442"><ele>184.0</ele><time>2026-04-04T13:25:00.809Z</time></trkpt><trkpt lat="45.6277495" lon="9.5564472"><ele>184.0</ele><time>2026-04-04T13:25:01.815Z</time></trkpt><trkpt lat="45.6276774" lon="9.5564537"><ele>184.0</ele><time>2026-04-04T13:25:02.81Z</time></trkpt><trkpt lat="45.6276025" lon="9.5564516"><ele>184.0</ele><time>2026-04-04T13:25:03.81Z</time></trkpt><trkpt lat="45.6275287" lon="9.5564467"><ele>183.66666666666669</ele><time>2026-04-04T13:25:04.815Z</time></trkpt><trkpt lat="45.6274534" lon="9.5564404"><ele>183.33333333333334</ele><time>2026-04-04T13:25:05.81Z</time></trkpt><trkpt lat="45.627377" lon="9.556438"><ele>183.0</ele><time>2026-04-04T13:25:06.816Z</time></trkpt><trkpt lat="45.6273025" lon="9.5564361"><ele>182.66666666666666</ele><time>2026-04-04T13:25:07.821Z</time></trkpt><trkpt lat="45.627226" lon="9.5564354"><ele>182.33333333333331</ele><time>2026-04-04T13:25:08.815Z</time></trkpt><trkpt lat="45.6271459" lon="9.556438"><ele>182.0</ele><time>2026-04-04T13:25:09.816Z</time></trkpt><trkpt lat="45.6270688" lon="9.5564394"><ele>182.0</ele><time>2026-04-04T13:25:10.816Z</time></trkpt><trkpt lat="45.626992" lon="9.5564457"><ele>182.0</ele><time>2026-04-04T13:25:11.809Z</time></trkpt><trkpt lat="45.6269202" lon="9.5564523"><ele>182.0</ele><time>2026-04-04T13:25:12.815Z</time></trkpt><trkpt lat="45.6268446" lon="9.5564571"><ele>182.0</ele><time>2026-04-04T13:25:13.813Z</time></trkpt><trkpt lat="45.6267664" lon="9.5564641"><ele>182.0</ele><time>2026-04-04T13:25:14.813Z</time></trkpt><trkpt lat="45.6266844" lon="9.5564823"><ele>182.0</ele><time>2026-04-04T13:25:15.813Z</time></trkpt><trkpt lat="45.6266078" lon="9.5564899"><ele>182.0</ele><time>2026-04-04T13:25:16.812Z</time></trkpt><trkpt lat="45.626534" lon="9.5564964"><ele>182.0</ele><time>2026-04-04T13:25:17.812Z</time></trkpt><trkpt lat="45.6263912" lon="9.5564874"><ele>182.0</ele><time>2026-04-04T13:25:19.815Z</time></trkpt><trkpt lat="45.6263133" lon="9.5564899"><ele>182.0</ele><time>2026-04-04T13:25:20.81Z</time></trkpt><trkpt lat="45.6262378" lon="9.5564953"><ele>182.0</ele><time>2026-04-04T13:25:21.807Z</time></trkpt><trkpt lat="45.6261653" lon="9.5564912"><ele>182.0</ele><time>2026-04-04T13:25:22.813Z</time></trkpt><trkpt lat="45.6260915" lon="9.5564923"><ele>181.85714285714286</ele><time>2026-04-04T13:25:23.812Z</time></trkpt><trkpt lat="45.6260141" lon="9.5564926"><ele>181.71428571428572</ele><time>2026-04-04T13:25:24.811Z</time></trkpt><trkpt lat="45.6259358" lon="9.5565033"><ele>181.57142857142856</ele><time>2026-04-04T13:25:25.807Z</time></trkpt><trkpt lat="45.6258651" lon="9.5565018"><ele>181.42857142857144</ele><time>2026-04-04T13:25:26.812Z</time></trkpt><trkpt lat="45.6257954" lon="9.5564916"><ele>181.28571428571428</ele><time>2026-04-04T13:25:27.809Z</time></trkpt><trkpt lat="45.6257225" lon="9.5564858"><ele>181.14285714285714</ele><time>2026-04-04T13:25:28.813Z</time></trkpt><trkpt lat="45.6256467" lon="9.556494"><ele>181.0</ele><time>2026-04-04T13:25:29.818Z</time></trkpt><trkpt lat="45.6255668" lon="9.5565025"><ele>181.0</ele><time>2026-04-04T13:25:30.816Z</time></trkpt><trkpt lat="45.6254934" lon="9.5565046"><ele>181.0</ele><time>2026-04-04T13:25:31.809Z</time></trkpt><trkpt lat="45.6254142" lon="9.5565151"><ele>181.0</ele><time>2026-04-04T13:25:32.811Z</time></trkpt><trkpt lat="45.6253373" lon="9.5565242"><ele>181.0</ele><time>2026-04-04T13:25:33.812Z</time></trkpt><trkpt lat="45.6252635" lon="9.5565261"><ele>181.0</ele><time>2026-04-04T13:25:34.811Z</time></trkpt><trkpt lat="45.6251858" lon="9.5565267"><ele>181.0</ele><time>2026-04-04T13:25:35.812Z</time></trkpt><trkpt lat="45.6251092" lon="9.5565356"><ele>181.0</ele><time>2026-04-04T13:25:36.809Z</time></trkpt><trkpt lat="45.6250334" lon="9.5565269"><ele>181.0</ele><time>2026-04-04T13:25:37.809Z</time></trkpt><trkpt lat="45.6249568" lon="9.5565296"><ele>181.0</ele><time>2026-04-04T13:25:38.811Z</time></trkpt><trkpt lat="45.6248807" lon="9.5565328"><ele>181.0</ele><time>2026-04-04T13:25:39.811Z</time></trkpt><trkpt lat="45.6248024" lon="9.5565403"><ele>181.0</ele><time>2026-04-04T13:25:40.817Z</time></trkpt><trkpt lat="45.6247263" lon="9.5565382"><ele>181.0</ele><time>2026-04-04T13:25:41.814Z</time></trkpt><trkpt lat="45.6246506" lon="9.5565474"><ele>181.0</ele><time>2026-04-04T13:25:42.808Z</time></trkpt><trkpt lat="45.6245736" lon="9.5565563"><ele>181.0</ele><time>2026-04-04T13:25:43.809Z</time></trkpt><trkpt lat="45.6245003" lon="9.5565653"><ele>181.0</ele><time>2026-04-04T13:25:44.817Z</time></trkpt><trkpt lat="45.6244261" lon="9.5565765"><ele>181.0</ele><time>2026-04-04T13:25:45.808Z</time></trkpt><trkpt lat="45.6243496" lon="9.5565866"><ele>181.0</ele><time>2026-04-04T13:25:46.812Z</time></trkpt><trkpt lat="45.6242763" lon="9.5565938"><ele>181.0</ele><time>2026-04-04T13:25:47.807Z</time></trkpt><trkpt lat="45.6242039" lon="9.5566022"><ele>181.0</ele><time>2026-04-04T13:25:48.815Z</time></trkpt><trkpt lat="45.6241278" lon="9.5566225"><ele>181.0</ele><time>2026-04-04T13:25:49.813Z</time></trkpt><trkpt lat="45.6240505" lon="9.5566462"><ele>181.0</ele><time>2026-04-04T13:25:50.815Z</time></trkpt><trkpt lat="45.6239744" lon="9.5566645"><ele>181.0</ele><time>2026-04-04T13:25:51.811Z</time></trkpt><trkpt lat="45.6239062" lon="9.556675"><ele>181.0</ele><time>2026-04-04T13:25:52.807Z</time></trkpt><trkpt lat="45.6238383" lon="9.5566936"><ele>181.0</ele><time>2026-04-04T13:25:53.81Z</time></trkpt><trkpt lat="45.623775" lon="9.5567013"><ele>181.0</ele><time>2026-04-04T13:25:54.81Z</time></trkpt><trkpt lat="45.6237095" lon="9.5567203"><ele>181.0</ele><time>2026-04-04T13:25:55.816Z</time></trkpt><trkpt lat="45.623643" lon="9.5567349"><ele>181.0</ele><time>2026-04-04T13:25:56.815Z</time></trkpt><trkpt lat="45.6235729" lon="9.5567535"><ele>181.0</ele><time>2026-04-04T13:25:57.807Z</time></trkpt><trkpt lat="45.623504" lon="9.5567631"><ele>181.0</ele><time>2026-04-04T13:25:58.808Z</time></trkpt><trkpt lat="45.6234289" lon="9.5567775"><ele>181.0</ele><time>2026-04-04T13:25:59.811Z</time></trkpt><trkpt lat="45.6233554" lon="9.5567904"><ele>181.0</ele><time>2026-04-04T13:26:00.811Z</time></trkpt><trkpt lat="45.6232832" lon="9.5567985"><ele>181.0</ele><time>2026-04-04T13:26:01.812Z</time></trkpt><trkpt lat="45.623215" lon="9.5568049"><ele>181.0</ele><time>2026-04-04T13:26:02.808Z</time></trkpt><trkpt lat="45.6231465" lon="9.5568141"><ele>181.0</ele><time>2026-04-04T13:26:03.813Z</time></trkpt><trkpt lat="45.6230314" lon="9.5568226"><ele>181.0</ele><time>2026-04-04T13:26:05.82Z</time></trkpt><trkpt lat="45.6229317" lon="9.5568272"><ele>181.0</ele><time>2026-04-04T13:26:07.818Z</time></trkpt><trkpt lat="45.6228134" lon="9.5568358"><ele>181.0</ele><time>2026-04-04T13:26:09.816Z</time></trkpt><trkpt lat="45.6226883" lon="9.556822"><ele>180.71428571428572</ele><time>2026-04-04T13:26:11.808Z</time></trkpt><trkpt lat="45.6226226" lon="9.5568199"><ele>180.42857142857142</ele><time>2026-04-04T13:26:12.814Z</time></trkpt><trkpt lat="45.6225492" lon="9.5568227"><ele>180.14285714285717</ele><time>2026-04-04T13:26:13.812Z</time></trkpt><trkpt lat="45.6224762" lon="9.556831"><ele>179.85714285714286</ele><time>2026-04-04T13:26:14.813Z</time></trkpt><trkpt lat="45.6224019" lon="9.5568333"><ele>179.57142857142858</ele><time>2026-04-04T13:26:15.813Z</time></trkpt><trkpt lat="45.6223317" lon="9.5568357"><ele>179.2857142857143</ele><time>2026-04-04T13:26:16.815Z</time></trkpt><trkpt lat="45.6222571" lon="9.5568385"><ele>179.0</ele><time>2026-04-04T13:26:17.82Z</time></trkpt><trkpt lat="45.622186" lon="9.556843"><ele>179.00000000000003</ele><time>2026-04-04T13:26:18.819Z</time></trkpt><trkpt lat="45.6221151" lon="9.5568555"><ele>179.0</ele><time>2026-04-04T13:26:19.81Z</time></trkpt><trkpt lat="45.6220474" lon="9.5568623"><ele>179.0</ele><time>2026-04-04T13:26:20.814Z</time></trkpt><trkpt lat="45.6219759" lon="9.5568636"><ele>179.0</ele><time>2026-04-04T13:26:21.811Z</time></trkpt><trkpt lat="45.6219073" lon="9.556852"><ele>179.0</ele><time>2026-04-04T13:26:22.814Z</time></trkpt><trkpt lat="45.6218382" lon="9.556844"><ele>179.00000000000003</ele><time>2026-04-04T13:26:23.809Z</time></trkpt><trkpt lat="45.6217654" lon="9.5568229"><ele>179.0</ele><time>2026-04-04T13:26:24.809Z</time></trkpt><trkpt lat="45.6217027" lon="9.5567767"><ele>179.14285714285717</ele><time>2026-04-04T13:26:25.811Z</time></trkpt><trkpt lat="45.6216393" lon="9.5567398"><ele>179.28571428571428</ele><time>2026-04-04T13:26:26.808Z</time></trkpt><trkpt lat="45.6215745" lon="9.5566998"><ele>179.42857142857144</ele><time>2026-04-04T13:26:27.815Z</time></trkpt><trkpt lat="45.6215131" lon="9.5566568"><ele>179.57142857142858</ele><time>2026-04-04T13:26:28.814Z</time></trkpt><trkpt lat="45.6214566" lon="9.556615"><ele>179.71428571428572</ele><time>2026-04-04T13:26:29.814Z</time></trkpt><trkpt lat="45.6213936" lon="9.5565744"><ele>179.85714285714286</ele><time>2026-04-04T13:26:30.814Z</time></trkpt><trkpt lat="45.6213312" lon="9.5565433"><ele>180.0</ele><time>2026-04-04T13:26:31.822Z</time></trkpt><trkpt lat="45.6212708" lon="9.5565125"><ele>181.25</ele><time>2026-04-04T13:26:32.811Z</time></trkpt><trkpt lat="45.6211476" lon="9.556486"><ele>182.5</ele><time>2026-04-04T13:26:34.81Z</time></trkpt><trkpt lat="45.6210394" lon="9.5564561"><ele>183.75</ele><time>2026-04-04T13:26:36.809Z</time></trkpt><trkpt lat="45.6209259" lon="9.5564636"><ele>185.0</ele><time>2026-04-04T13:26:38.811Z</time></trkpt><trkpt lat="45.6208147" lon="9.5564751"><ele>185.0</ele><time>2026-04-04T13:26:40.808Z</time></trkpt><trkpt lat="45.6207154" lon="9.5564885"><ele>185.0</ele><time>2026-04-04T13:26:42.812Z</time></trkpt><trkpt lat="45.6206177" lon="9.5565004"><ele>185.0</ele><time>2026-04-04T13:26:44.818Z</time></trkpt><trkpt lat="45.6205153" lon="9.5565211"><ele>185.0</ele><time>2026-04-04T13:26:46.818Z</time></trkpt><trkpt lat="45.6204103" lon="9.5565205"><ele>185.0</ele><time>2026-04-04T13:26:48.812Z</time></trkpt><trkpt lat="45.620299" lon="9.5565336"><ele>184.25</ele><time>2026-04-04T13:26:50.816Z</time></trkpt><trkpt lat="45.6201836" lon="9.5565456"><ele>183.5</ele><time>2026-04-04T13:26:52.807Z</time></trkpt><trkpt lat="45.6200709" lon="9.556553"><ele>182.75</ele><time>2026-04-04T13:26:54.811Z</time></trkpt><trkpt lat="45.6199491" lon="9.5565697"><ele>182.0</ele><time>2026-04-04T13:26:56.813Z</time></trkpt><trkpt lat="45.6198219" lon="9.5565943"><ele>182.0</ele><time>2026-04-04T13:26:58.816Z</time></trkpt><trkpt lat="45.6197045" lon="9.5565737"><ele>182.0</ele><time>2026-04-04T13:27:00.809Z</time></trkpt><trkpt lat="45.6196352" lon="9.556579"><ele>182.0</ele><time>2026-04-04T13:27:01.809Z</time></trkpt><trkpt lat="45.6195636" lon="9.5565889"><ele>182.0</ele><time>2026-04-04T13:27:02.811Z</time></trkpt><trkpt lat="45.619493" lon="9.5565971"><ele>182.0</ele><time>2026-04-04T13:27:03.809Z</time></trkpt><trkpt lat="45.6194228" lon="9.5566042"><ele>182.0</ele><time>2026-04-04T13:27:04.814Z</time></trkpt><trkpt lat="45.6193515" lon="9.5566157"><ele>182.16666666666666</ele><time>2026-04-04T13:27:05.818Z</time></trkpt><trkpt lat="45.6192785" lon="9.5566223"><ele>182.33333333333331</ele><time>2026-04-04T13:27:06.81Z</time></trkpt><trkpt lat="45.6192043" lon="9.556631"><ele>182.5</ele><time>2026-04-04T13:27:07.816Z</time></trkpt><trkpt lat="45.61913" lon="9.5566385"><ele>182.66666666666666</ele><time>2026-04-04T13:27:08.811Z</time></trkpt><trkpt lat="45.6190553" lon="9.5566503"><ele>182.83333333333334</ele><time>2026-04-04T13:27:09.811Z</time></trkpt><trkpt lat="45.6189776" lon="9.556664"><ele>183.0</ele><time>2026-04-04T13:27:10.814Z</time></trkpt><trkpt lat="45.6189024" lon="9.5566615"><ele>183.0</ele><time>2026-04-04T13:27:11.816Z</time></trkpt><trkpt lat="45.6188276" lon="9.556667"><ele>183.0</ele><time>2026-04-04T13:27:12.811Z</time></trkpt><trkpt lat="45.6187533" lon="9.5566785"><ele>183.0</ele><time>2026-04-04T13:27:13.81Z</time></trkpt><trkpt lat="45.6186822" lon="9.556692"><ele>183.0</ele><time>2026-04-04T13:27:14.816Z</time></trkpt><trkpt lat="45.618613" lon="9.5566981"><ele>183.0</ele><time>2026-04-04T13:27:15.816Z</time></trkpt><trkpt lat="45.6185486" lon="9.5566963"><ele>183.0</ele><time>2026-04-04T13:27:16.811Z</time></trkpt><trkpt lat="45.6184752" lon="9.5566998"><ele>183.0</ele><time>2026-04-04T13:27:17.814Z</time></trkpt><trkpt lat="45.6184082" lon="9.5567064"><ele>182.85714285714286</ele><time>2026-04-04T13:27:18.817Z</time></trkpt><trkpt lat="45.6183366" lon="9.5567158"><ele>182.71428571428572</ele><time>2026-04-04T13:27:19.815Z</time></trkpt><trkpt lat="45.6182596" lon="9.5567245"><ele>182.57142857142856</ele><time>2026-04-04T13:27:20.811Z</time></trkpt><trkpt lat="45.6181851" lon="9.5567361"><ele>182.42857142857144</ele><time>2026-04-04T13:27:21.81Z</time></trkpt><trkpt lat="45.6181123" lon="9.556743"><ele>182.28571428571428</ele><time>2026-04-04T13:27:22.813Z</time></trkpt><trkpt lat="45.6180406" lon="9.5567512"><ele>182.14285714285714</ele><time>2026-04-04T13:27:23.816Z</time></trkpt><trkpt lat="45.6179641" lon="9.556762"><ele>182.0</ele><time>2026-04-04T13:27:24.811Z</time></trkpt><trkpt lat="45.6178897" lon="9.5567738"><ele>181.66666666666666</ele><time>2026-04-04T13:27:25.813Z</time></trkpt><trkpt lat="45.6178136" lon="9.5567833"><ele>181.33333333333331</ele><time>2026-04-04T13:27:26.811Z</time></trkpt><trkpt lat="45.6177386" lon="9.556791"><ele>181.0</ele><time>2026-04-04T13:27:27.811Z</time></trkpt><trkpt lat="45.6176637" lon="9.5567972"><ele>180.66666666666666</ele><time>2026-04-04T13:27:28.808Z</time></trkpt><trkpt lat="45.6175861" lon="9.5568066"><ele>180.33333333333334</ele><time>2026-04-04T13:27:29.816Z</time></trkpt><trkpt lat="45.6175121" lon="9.5568158"><ele>180.0</ele><time>2026-04-04T13:27:30.808Z</time></trkpt><trkpt lat="45.6174379" lon="9.5568201"><ele>180.0</ele><time>2026-04-04T13:27:31.81Z</time></trkpt><trkpt lat="45.6173616" lon="9.5568161"><ele>180.0</ele><time>2026-04-04T13:27:32.809Z</time></trkpt><trkpt lat="45.6172864" lon="9.5568168"><ele>180.0</ele><time>2026-04-04T13:27:33.807Z</time></trkpt><trkpt lat="45.6172116" lon="9.5568228"><ele>180.0</ele><time>2026-04-04T13:27:34.814Z</time></trkpt><trkpt lat="45.6171333" lon="9.5568353"><ele>180.0</ele><time>2026-04-04T13:27:35.812Z</time></trkpt><trkpt lat="45.6170545" lon="9.5568433"><ele>180.0</ele><time>2026-04-04T13:27:36.816Z</time></trkpt><trkpt lat="45.6169776" lon="9.5568511"><ele>179.5</ele><time>2026-04-04T13:27:37.809Z</time></trkpt><trkpt lat="45.6169018" lon="9.5568602"><ele>179.0</ele><time>2026-04-04T13:27:38.815Z</time></trkpt><trkpt lat="45.6168231" lon="9.5568673"><ele>178.5</ele><time>2026-04-04T13:27:39.815Z</time></trkpt><trkpt lat="45.6167458" lon="9.5568763"><ele>178.0</ele><time>2026-04-04T13:27:40.81Z</time></trkpt><trkpt lat="45.6166654" lon="9.5568906"><ele>177.5</ele><time>2026-04-04T13:27:41.811Z</time></trkpt><trkpt lat="45.616585" lon="9.5569031"><ele>177.0</ele><time>2026-04-04T13:27:42.811Z</time></trkpt><trkpt lat="45.6165025" lon="9.5569062"><ele>177.0</ele><time>2026-04-04T13:27:43.823Z</time></trkpt><trkpt lat="45.6164326" lon="9.5569082"><ele>177.0</ele><time>2026-04-04T13:27:44.812Z</time></trkpt><trkpt lat="45.6163578" lon="9.5569152"><ele>177.0</ele><time>2026-04-04T13:27:45.815Z</time></trkpt><trkpt lat="45.616286" lon="9.5569221"><ele>177.0</ele><time>2026-04-04T13:27:46.81Z</time></trkpt><trkpt lat="45.6162148" lon="9.5569285"><ele>177.0</ele><time>2026-04-04T13:27:47.811Z</time></trkpt><trkpt lat="45.6161469" lon="9.5569337"><ele>177.0</ele><time>2026-04-04T13:27:48.808Z</time></trkpt><trkpt lat="45.6160764" lon="9.5569465"><ele>177.0</ele><time>2026-04-04T13:27:49.811Z</time></trkpt><trkpt lat="45.6160092" lon="9.5569553"><ele>177.71428571428572</ele><time>2026-04-04T13:27:50.811Z</time></trkpt><trkpt lat="45.6159396" lon="9.5569635"><ele>178.42857142857142</ele><time>2026-04-04T13:27:51.812Z</time></trkpt><trkpt lat="45.6158684" lon="9.5569751"><ele>179.14285714285714</ele><time>2026-04-04T13:27:52.813Z</time></trkpt><trkpt lat="45.615804" lon="9.5569682"><ele>179.85714285714286</ele><time>2026-04-04T13:27:53.809Z</time></trkpt><trkpt lat="45.6157333" lon="9.5569798"><ele>180.57142857142856</ele><time>2026-04-04T13:27:54.812Z</time></trkpt><trkpt lat="45.6156676" lon="9.5569815"><ele>181.28571428571428</ele><time>2026-04-04T13:27:55.808Z</time></trkpt><trkpt lat="45.6155973" lon="9.5569885"><ele>182.0</ele><time>2026-04-04T13:27:56.807Z</time></trkpt><trkpt lat="45.6155266" lon="9.5569912"><ele>182.0</ele><time>2026-04-04T13:27:57.809Z</time></trkpt><trkpt lat="45.615463" lon="9.5569882"><ele>182.0</ele><time>2026-04-04T13:27:58.815Z</time></trkpt><trkpt lat="45.6153965" lon="9.5569911"><ele>182.0</ele><time>2026-04-04T13:27:59.814Z</time></trkpt><trkpt lat="45.615329" lon="9.556996"><ele>182.0</ele><time>2026-04-04T13:28:00.81Z</time></trkpt><trkpt lat="45.6152652" lon="9.5570037"><ele>182.0</ele><time>2026-04-04T13:28:01.811Z</time></trkpt><trkpt lat="45.6152013" lon="9.5570077"><ele>182.0</ele><time>2026-04-04T13:28:02.815Z</time></trkpt><trkpt lat="45.6151375" lon="9.5570173"><ele>182.0</ele><time>2026-04-04T13:28:03.81Z</time></trkpt><trkpt lat="45.6150736" lon="9.5570214"><ele>181.39999999999998</ele><time>2026-04-04T13:28:04.811Z</time></trkpt><trkpt lat="45.6150086" lon="9.5570246"><ele>180.79999999999998</ele><time>2026-04-04T13:28:05.81Z</time></trkpt><trkpt lat="45.6148829" lon="9.557043"><ele>180.2</ele><time>2026-04-04T13:28:07.811Z</time></trkpt><trkpt lat="45.6147586" lon="9.5570691"><ele>179.6</ele><time>2026-04-04T13:28:09.81Z</time></trkpt><trkpt lat="45.614645" lon="9.5570863"><ele>179.0</ele><time>2026-04-04T13:28:11.816Z</time></trkpt><trkpt lat="45.6145258" lon="9.5571185"><ele>178.39999999999998</ele><time>2026-04-04T13:28:13.81Z</time></trkpt><trkpt lat="45.6144088" lon="9.5571503"><ele>177.8</ele><time>2026-04-04T13:28:15.812Z</time></trkpt><trkpt lat="45.6143468" lon="9.5571721"><ele>177.2</ele><time>2026-04-04T13:28:16.808Z</time></trkpt><trkpt lat="45.6142281" lon="9.5572042"><ele>176.60000000000002</ele><time>2026-04-04T13:28:18.808Z</time></trkpt><trkpt lat="45.6140995" lon="9.5572094"><ele>176.0</ele><time>2026-04-04T13:28:20.81Z</time></trkpt><trkpt lat="45.6140271" lon="9.5572218"><ele>176.0</ele><time>2026-04-04T13:28:21.815Z</time></trkpt><trkpt lat="45.6139514" lon="9.5572236"><ele>176.0</ele><time>2026-04-04T13:28:22.805Z</time></trkpt><trkpt lat="45.6138701" lon="9.557231"><ele>176.0</ele><time>2026-04-04T13:28:23.807Z</time></trkpt><trkpt lat="45.6137903" lon="9.5572377"><ele>176.0</ele><time>2026-04-04T13:28:24.812Z</time></trkpt><trkpt lat="45.6137088" lon="9.5572453"><ele>176.0</ele><time>2026-04-04T13:28:25.814Z</time></trkpt><trkpt lat="45.6136211" lon="9.5572517"><ele>176.0</ele><time>2026-04-04T13:28:26.811Z</time></trkpt><trkpt lat="45.6135321" lon="9.5572571"><ele>175.8</ele><time>2026-04-04T13:28:27.81Z</time></trkpt><trkpt lat="45.6134449" lon="9.5572629"><ele>175.60000000000002</ele><time>2026-04-04T13:28:28.823Z</time></trkpt><trkpt lat="45.6133558" lon="9.5572722"><ele>175.4</ele><time>2026-04-04T13:28:29.809Z</time></trkpt><trkpt lat="45.6132633" lon="9.5572767"><ele>175.2</ele><time>2026-04-04T13:28:30.81Z</time></trkpt><trkpt lat="45.6131657" lon="9.5572783"><ele>175.0</ele><time>2026-04-04T13:28:31.812Z</time></trkpt><trkpt lat="45.6130684" lon="9.5572939"><ele>175.0</ele><time>2026-04-04T13:28:32.808Z</time></trkpt><trkpt lat="45.6129786" lon="9.5573097"><ele>175.0</ele><time>2026-04-04T13:28:33.811Z</time></trkpt><trkpt lat="45.612891" lon="9.5573155"><ele>175.0</ele><time>2026-04-04T13:28:34.812Z</time></trkpt><trkpt lat="45.6128012" lon="9.5573262"><ele>175.0</ele><time>2026-04-04T13:28:35.811Z</time></trkpt><trkpt lat="45.6127145" lon="9.5573351"><ele>175.0</ele><time>2026-04-04T13:28:36.811Z</time></trkpt><trkpt lat="45.6126327" lon="9.5573421"><ele>175.0</ele><time>2026-04-04T13:28:37.806Z</time></trkpt><trkpt lat="45.6125489" lon="9.5573525"><ele>175.16666666666669</ele><time>2026-04-04T13:28:38.808Z</time></trkpt><trkpt lat="45.6124688" lon="9.5573672"><ele>175.33333333333334</ele><time>2026-04-04T13:28:39.809Z</time></trkpt><trkpt lat="45.6123931" lon="9.5573705"><ele>175.5</ele><time>2026-04-04T13:28:40.81Z</time></trkpt><trkpt lat="45.6123159" lon="9.5573757"><ele>175.66666666666666</ele><time>2026-04-04T13:28:41.809Z</time></trkpt><trkpt lat="45.6122382" lon="9.5573771"><ele>175.83333333333331</ele><time>2026-04-04T13:28:42.811Z</time></trkpt><trkpt lat="45.612159" lon="9.5573698"><ele>176.0</ele><time>2026-04-04T13:28:43.815Z</time></trkpt><trkpt lat="45.6120832" lon="9.5573648"><ele>176.0</ele><time>2026-04-04T13:28:44.809Z</time></trkpt><trkpt lat="45.6120049" lon="9.5573642"><ele>176.0</ele><time>2026-04-04T13:28:45.814Z</time></trkpt><trkpt lat="45.611926" lon="9.5573473"><ele>176.0</ele><time>2026-04-04T13:28:46.817Z</time></trkpt><trkpt lat="45.6118518" lon="9.5573225"><ele>176.0</ele><time>2026-04-04T13:28:47.812Z</time></trkpt><trkpt lat="45.6117799" lon="9.5572913"><ele>176.0</ele><time>2026-04-04T13:28:48.809Z</time></trkpt><trkpt lat="45.611708" lon="9.5572519"><ele>176.0</ele><time>2026-04-04T13:28:49.808Z</time></trkpt><trkpt lat="45.6116394" lon="9.5572105"><ele>175.85714285714286</ele><time>2026-04-04T13:28:50.811Z</time></trkpt><trkpt lat="45.6115715" lon="9.5571715"><ele>175.71428571428572</ele><time>2026-04-04T13:28:51.811Z</time></trkpt><trkpt lat="45.6115036" lon="9.5571371"><ele>175.57142857142856</ele><time>2026-04-04T13:28:52.807Z</time></trkpt><trkpt lat="45.6114337" lon="9.5571065"><ele>175.42857142857144</ele><time>2026-04-04T13:28:53.812Z</time></trkpt><trkpt lat="45.6113657" lon="9.5570743"><ele>175.28571428571428</ele><time>2026-04-04T13:28:54.809Z</time></trkpt><trkpt lat="45.6112959" lon="9.5570426"><ele>175.14285714285714</ele><time>2026-04-04T13:28:55.81Z</time></trkpt><trkpt lat="45.6112275" lon="9.5570198"><ele>175.0</ele><time>2026-04-04T13:28:56.811Z</time></trkpt><trkpt lat="45.6111567" lon="9.556991"><ele>174.85714285714286</ele><time>2026-04-04T13:28:57.815Z</time></trkpt><trkpt lat="45.6110841" lon="9.5569629"><ele>174.71428571428572</ele><time>2026-04-04T13:28:58.811Z</time></trkpt><trkpt lat="45.6110147" lon="9.5569377"><ele>174.57142857142856</ele><time>2026-04-04T13:28:59.812Z</time></trkpt><trkpt lat="45.6109464" lon="9.556916"><ele>174.42857142857144</ele><time>2026-04-04T13:29:00.811Z</time></trkpt><trkpt lat="45.6108755" lon="9.556891"><ele>174.28571428571428</ele><time>2026-04-04T13:29:01.813Z</time></trkpt><trkpt lat="45.6108072" lon="9.5568683"><ele>174.14285714285714</ele><time>2026-04-04T13:29:02.808Z</time></trkpt><trkpt lat="45.6107368" lon="9.5568487"><ele>174.0</ele><time>2026-04-04T13:29:03.808Z</time></trkpt><trkpt lat="45.6106652" lon="9.5568252"><ele>174.0</ele><time>2026-04-04T13:29:04.806Z</time></trkpt><trkpt lat="45.6105967" lon="9.5568055"><ele>174.0</ele><time>2026-04-04T13:29:05.808Z</time></trkpt><trkpt lat="45.6105283" lon="9.5567842"><ele>174.0</ele><time>2026-04-04T13:29:06.811Z</time></trkpt><trkpt lat="45.6104571" lon="9.5567642"><ele>174.0</ele><time>2026-04-04T13:29:07.812Z</time></trkpt><trkpt lat="45.6103847" lon="9.5567441"><ele>174.0</ele><time>2026-04-04T13:29:08.808Z</time></trkpt><trkpt lat="45.6103127" lon="9.556723"><ele>174.0</ele><time>2026-04-04T13:29:09.808Z</time></trkpt><trkpt lat="45.6102442" lon="9.5566999"><ele>174.0</ele><time>2026-04-04T13:29:10.808Z</time></trkpt><trkpt lat="45.610174" lon="9.5566851"><ele>173.85714285714286</ele><time>2026-04-04T13:29:11.809Z</time></trkpt><trkpt lat="45.6101019" lon="9.5566745"><ele>173.71428571428572</ele><time>2026-04-04T13:29:12.811Z</time></trkpt><trkpt lat="45.6100289" lon="9.5566652"><ele>173.57142857142856</ele><time>2026-04-04T13:29:13.809Z</time></trkpt><trkpt lat="45.6099551" lon="9.5566658"><ele>173.42857142857144</ele><time>2026-04-04T13:29:14.812Z</time></trkpt><trkpt lat="45.6098829" lon="9.5566683"><ele>173.2857142857143</ele><time>2026-04-04T13:29:15.808Z</time></trkpt><trkpt lat="45.6098115" lon="9.5566723"><ele>173.14285714285714</ele><time>2026-04-04T13:29:16.808Z</time></trkpt><trkpt lat="45.6097406" lon="9.5566761"><ele>173.0</ele><time>2026-04-04T13:29:17.813Z</time></trkpt><trkpt lat="45.6096717" lon="9.556676"><ele>173.0</ele><time>2026-04-04T13:29:18.81Z</time></trkpt><trkpt lat="45.6096028" lon="9.5566751"><ele>173.0</ele><time>2026-04-04T13:29:19.808Z</time></trkpt><trkpt lat="45.6095381" lon="9.5566672"><ele>173.0</ele><time>2026-04-04T13:29:20.81Z</time></trkpt><trkpt lat="45.6094757" lon="9.5566488"><ele>173.0</ele><time>2026-04-04T13:29:21.811Z</time></trkpt><trkpt lat="45.6093995" lon="9.5565767"><ele>173.0</ele><time>2026-04-04T13:29:23.81Z</time></trkpt><trkpt lat="45.6093494" lon="9.5565034"><ele>173.0</ele><time>2026-04-04T13:29:25.807Z</time></trkpt><trkpt lat="45.6092973" lon="9.5564306"><ele>173.0</ele><time>2026-04-04T13:29:27.81Z</time></trkpt><trkpt lat="45.6092206" lon="9.5563938"><ele>173.0</ele><time>2026-04-04T13:29:29.806Z</time></trkpt><trkpt lat="45.6091346" lon="9.5564046"><ele>173.0</ele><time>2026-04-04T13:29:31.808Z</time></trkpt><trkpt lat="45.6090509" lon="9.5564598"><ele>173.0</ele><time>2026-04-04T13:29:33.809Z</time></trkpt><trkpt lat="45.6089861" lon="9.5565537"><ele>173.0</ele><time>2026-04-04T13:29:35.808Z</time></trkpt><trkpt lat="45.6089021" lon="9.556625"><ele>173.0</ele><time>2026-04-04T13:29:37.813Z</time></trkpt><trkpt lat="45.6087982" lon="9.5566645"><ele>173.0</ele><time>2026-04-04T13:29:39.811Z</time></trkpt><trkpt lat="45.608688" lon="9.556683"><ele>173.0</ele><time>2026-04-04T13:29:41.813Z</time></trkpt><trkpt lat="45.6085729" lon="9.5566777"><ele>173.0</ele><time>2026-04-04T13:29:43.808Z</time></trkpt><trkpt lat="45.6084583" lon="9.5566528"><ele>173.0</ele><time>2026-04-04T13:29:45.81Z</time></trkpt><trkpt lat="45.6083484" lon="9.5565957"><ele>173.4</ele><time>2026-04-04T13:29:47.81Z</time></trkpt><trkpt lat="45.6082437" lon="9.5565175"><ele>173.8</ele><time>2026-04-04T13:29:49.811Z</time></trkpt><trkpt lat="45.6081912" lon="9.5564637"><ele>174.2</ele><time>2026-04-04T13:29:50.817Z</time></trkpt><trkpt lat="45.6080943" lon="9.5563652"><ele>174.6</ele><time>2026-04-04T13:29:52.815Z</time></trkpt><trkpt lat="45.6079899" lon="9.5562774"><ele>175.0</ele><time>2026-04-04T13:29:54.808Z</time></trkpt><trkpt lat="45.6078814" lon="9.5562034"><ele>174.8</ele><time>2026-04-04T13:29:56.807Z</time></trkpt><trkpt lat="45.6078204" lon="9.5561691"><ele>174.6</ele><time>2026-04-04T13:29:57.816Z</time></trkpt><trkpt lat="45.6077073" lon="9.5561088"><ele>174.39999999999998</ele><time>2026-04-04T13:29:59.808Z</time></trkpt><trkpt lat="45.6076052" lon="9.5560709"><ele>174.2</ele><time>2026-04-04T13:30:01.81Z</time></trkpt><trkpt lat="45.6074938" lon="9.5560441"><ele>174.0</ele><time>2026-04-04T13:30:03.819Z</time></trkpt><trkpt lat="45.6073751" lon="9.5560234"><ele>174.0</ele><time>2026-04-04T13:30:05.815Z</time></trkpt><trkpt lat="45.607252" lon="9.5560064"><ele>174.0</ele><time>2026-04-04T13:30:07.81Z</time></trkpt><trkpt lat="45.607188" lon="9.5560093"><ele>174.0</ele><time>2026-04-04T13:30:08.809Z</time></trkpt><trkpt lat="45.6071195" lon="9.5560148"><ele>174.0</ele><time>2026-04-04T13:30:09.812Z</time></trkpt><trkpt lat="45.6070535" lon="9.5560124"><ele>174.0</ele><time>2026-04-04T13:30:10.812Z</time></trkpt><trkpt lat="45.6069904" lon="9.5560104"><ele>174.0</ele><time>2026-04-04T13:30:11.808Z</time></trkpt><trkpt lat="45.6069263" lon="9.5560023"><ele>173.85714285714286</ele><time>2026-04-04T13:30:12.816Z</time></trkpt><trkpt lat="45.6068537" lon="9.5560038"><ele>173.71428571428572</ele><time>2026-04-04T13:30:13.817Z</time></trkpt><trkpt lat="45.6067844" lon="9.5559894"><ele>173.57142857142856</ele><time>2026-04-04T13:30:14.814Z</time></trkpt><trkpt lat="45.606711" lon="9.5559924"><ele>173.42857142857144</ele><time>2026-04-04T13:30:15.811Z</time></trkpt><trkpt lat="45.6066453" lon="9.5559967"><ele>173.2857142857143</ele><time>2026-04-04T13:30:16.817Z</time></trkpt><trkpt lat="45.6065757" lon="9.5560013"><ele>173.14285714285714</ele><time>2026-04-04T13:30:17.811Z</time></trkpt><trkpt lat="45.6065098" lon="9.5560041"><ele>173.0</ele><time>2026-04-04T13:30:18.806Z</time></trkpt><trkpt lat="45.6064427" lon="9.5560109"><ele>173.0</ele><time>2026-04-04T13:30:19.809Z</time></trkpt><trkpt lat="45.6063739" lon="9.5560185"><ele>173.0</ele><time>2026-04-04T13:30:20.812Z</time></trkpt><trkpt lat="45.6062443" lon="9.5560107"><ele>173.0</ele><time>2026-04-04T13:30:22.81Z</time></trkpt><trkpt lat="45.6061791" lon="9.5560083"><ele>173.0</ele><time>2026-04-04T13:30:23.809Z</time></trkpt><trkpt lat="45.6060757" lon="9.5560048"><ele>173.0</ele><time>2026-04-04T13:30:25.81Z</time></trkpt><trkpt lat="45.6060086" lon="9.5560884"><ele>172.8</ele><time>2026-04-04T13:30:27.815Z</time></trkpt><trkpt lat="45.6059907" lon="9.5562099"><ele>172.60000000000002</ele><time>2026-04-04T13:30:29.811Z</time></trkpt><trkpt lat="45.6059923" lon="9.5563578"><ele>172.39999999999998</ele><time>2026-04-04T13:30:31.818Z</time></trkpt><trkpt lat="45.6059982" lon="9.5565102"><ele>172.2</ele><time>2026-04-04T13:30:33.813Z</time></trkpt><trkpt lat="45.6060154" lon="9.5566551"><ele>172.0</ele><time>2026-04-04T13:30:35.808Z</time></trkpt><trkpt lat="45.6060497" lon="9.5567939"><ele>172.0</ele><time>2026-04-04T13:30:37.817Z</time></trkpt><trkpt lat="45.6060693" lon="9.5569253"><ele>172.0</ele><time>2026-04-04T13:30:39.816Z</time></trkpt><trkpt lat="45.6061037" lon="9.5570763"><ele>172.0</ele><time>2026-04-04T13:30:41.812Z</time></trkpt><trkpt lat="45.6061474" lon="9.5572248"><ele>172.0</ele><time>2026-04-04T13:30:43.808Z</time></trkpt><trkpt lat="45.606204" lon="9.5573523"><ele>172.0</ele><time>2026-04-04T13:30:45.81Z</time></trkpt><trkpt lat="45.6062811" lon="9.5574742"><ele>171.8</ele><time>2026-04-04T13:30:47.808Z</time></trkpt><trkpt lat="45.606383" lon="9.5575791"><ele>171.6</ele><time>2026-04-04T13:30:49.812Z</time></trkpt><trkpt lat="45.6064757" lon="9.55763"><ele>171.4</ele><time>2026-04-04T13:30:51.822Z</time></trkpt><trkpt lat="45.6065713" lon="9.5576738"><ele>171.20000000000002</ele><time>2026-04-04T13:30:53.818Z</time></trkpt><trkpt lat="45.6066729" lon="9.5577519"><ele>171.0</ele><time>2026-04-04T13:30:55.815Z</time></trkpt><trkpt lat="45.6067251" lon="9.5578081"><ele>170.0</ele><time>2026-04-04T13:30:56.811Z</time></trkpt><trkpt lat="45.6067767" lon="9.5578708"><ele>169.0</ele><time>2026-04-04T13:30:57.819Z</time></trkpt><trkpt lat="45.606814" lon="9.5579541"><ele>168.0</ele><time>2026-04-04T13:30:58.817Z</time></trkpt><trkpt lat="45.6068431" lon="9.5580492"><ele>167.0</ele><time>2026-04-04T13:30:59.808Z</time></trkpt><trkpt lat="45.6068596" lon="9.5581503"><ele>166.0</ele><time>2026-04-04T13:31:00.813Z</time></trkpt><trkpt lat="45.6068789" lon="9.5582431"><ele>165.0</ele><time>2026-04-04T13:31:01.812Z</time></trkpt><trkpt lat="45.6068977" lon="9.5584134"><ele>165.0</ele><time>2026-04-04T13:31:03.807Z</time></trkpt><trkpt lat="45.6069158" lon="9.5585496"><ele>165.0</ele><time>2026-04-04T13:31:05.808Z</time></trkpt><trkpt lat="45.6069436" lon="9.5586944"><ele>165.0</ele><time>2026-04-04T13:31:07.813Z</time></trkpt><trkpt lat="45.6069405" lon="9.5588585"><ele>165.0</ele><time>2026-04-04T13:31:09.807Z</time></trkpt><trkpt lat="45.6068958" lon="9.5590268"><ele>165.0</ele><time>2026-04-04T13:31:11.809Z</time></trkpt><trkpt lat="45.6068521" lon="9.5591154"><ele>164.5</ele><time>2026-04-04T13:31:12.809Z</time></trkpt><trkpt lat="45.6068121" lon="9.5592078"><ele>164.0</ele><time>2026-04-04T13:31:13.811Z</time></trkpt><trkpt lat="45.6067738" lon="9.5593046"><ele>163.5</ele><time>2026-04-04T13:31:14.808Z</time></trkpt><trkpt lat="45.6067299" lon="9.5594058"><ele>163.0</ele><time>2026-04-04T13:31:15.809Z</time></trkpt><trkpt lat="45.6066877" lon="9.5594938"><ele>162.5</ele><time>2026-04-04T13:31:16.806Z</time></trkpt><trkpt lat="45.6066386" lon="9.5596364"><ele>162.0</ele><time>2026-04-04T13:31:18.821Z</time></trkpt><trkpt lat="45.6065867" lon="9.5597312"><ele>161.0</ele><time>2026-04-04T13:31:20.811Z</time></trkpt><trkpt lat="45.6065677" lon="9.5598606"><ele>160.0</ele><time>2026-04-04T13:31:23.808Z</time></trkpt><trkpt lat="45.6066076" lon="9.5599919"><ele>159.0</ele><time>2026-04-04T13:31:25.806Z</time></trkpt><trkpt lat="45.6066801" lon="9.5601255"><ele>158.0</ele><time>2026-04-04T13:31:27.813Z</time></trkpt><trkpt lat="45.6067239" lon="9.5601964"><ele>157.0</ele><time>2026-04-04T13:31:28.816Z</time></trkpt><trkpt lat="45.6067629" lon="9.5602672"><ele>156.0</ele><time>2026-04-04T13:31:29.818Z</time></trkpt><trkpt lat="45.606801" lon="9.5603514"><ele>155.83333333333334</ele><time>2026-04-04T13:31:30.821Z</time></trkpt><trkpt lat="45.6068455" lon="9.5604239"><ele>155.66666666666666</ele><time>2026-04-04T13:31:31.807Z</time></trkpt><trkpt lat="45.606908" lon="9.5605634"><ele>155.5</ele><time>2026-04-04T13:31:33.815Z</time></trkpt><trkpt lat="45.6068872" lon="9.560669"><ele>155.33333333333331</ele><time>2026-04-04T13:31:36.805Z</time></trkpt><trkpt lat="45.6068374" lon="9.5607315"><ele>155.16666666666666</ele><time>2026-04-04T13:31:39.812Z</time></trkpt><trkpt lat="45.6067793" lon="9.5608108"><ele>155.0</ele><time>2026-04-04T13:31:42.811Z</time></trkpt><trkpt lat="45.6067419" lon="9.5608878"><ele>155.0</ele><time>2026-04-04T13:31:44.81Z</time></trkpt><trkpt lat="45.6066974" lon="9.5609645"><ele>155.0</ele><time>2026-04-04T13:31:46.807Z</time></trkpt><trkpt lat="45.6066492" lon="9.5610419"><ele>155.0</ele><time>2026-04-04T13:31:48.81Z</time></trkpt><trkpt lat="45.6065992" lon="9.5611093"><ele>155.0</ele><time>2026-04-04T13:31:50.808Z</time></trkpt><trkpt lat="45.606544" lon="9.5611554"><ele>155.0</ele><time>2026-04-04T13:31:52.811Z</time></trkpt><trkpt lat="45.6064666" lon="9.5611531"><ele>155.0</ele><time>2026-04-04T13:31:55.814Z</time></trkpt><trkpt lat="45.6064048" lon="9.5611174"><ele>155.0</ele><time>2026-04-04T13:31:57.808Z</time></trkpt><trkpt lat="45.6063404" lon="9.5610585"><ele>155.0</ele><time>2026-04-04T13:31:59.809Z</time></trkpt><trkpt lat="45.6062683" lon="9.5609944"><ele>155.0</ele><time>2026-04-04T13:32:01.811Z</time></trkpt><trkpt lat="45.6061866" lon="9.5609341"><ele>155.0</ele><time>2026-04-04T13:32:03.807Z</time></trkpt><trkpt lat="45.6061016" lon="9.5608597"><ele>155.0</ele><time>2026-04-04T13:32:05.823Z</time></trkpt><trkpt lat="45.6060389" lon="9.5607932"><ele>155.0</ele><time>2026-04-04T13:32:07.806Z</time></trkpt><trkpt lat="45.6059734" lon="9.5607289"><ele>155.0</ele><time>2026-04-04T13:32:09.806Z</time></trkpt><trkpt lat="45.6059148" lon="9.5606683"><ele>156.6</ele><time>2026-04-04T13:32:11.811Z</time></trkpt><trkpt lat="45.6058436" lon="9.5605985"><ele>158.2</ele><time>2026-04-04T13:32:13.81Z</time></trkpt><trkpt lat="45.6057629" lon="9.5605304"><ele>159.8</ele><time>2026-04-04T13:32:15.814Z</time></trkpt><trkpt lat="45.6056832" lon="9.5604678"><ele>161.4</ele><time>2026-04-04T13:32:17.806Z</time></trkpt><trkpt lat="45.6055994" lon="9.5604215"><ele>163.0</ele><time>2026-04-04T13:32:19.811Z</time></trkpt><trkpt lat="45.6055122" lon="9.5603974"><ele>163.2</ele><time>2026-04-04T13:32:21.811Z</time></trkpt><trkpt lat="45.6054334" lon="9.5603305"><ele>163.4</ele><time>2026-04-04T13:32:23.809Z</time></trkpt><trkpt lat="45.605365" lon="9.5602354"><ele>163.6</ele><time>2026-04-04T13:32:25.806Z</time></trkpt><trkpt lat="45.6052946" lon="9.5601427"><ele>163.79999999999998</ele><time>2026-04-04T13:32:27.814Z</time></trkpt><trkpt lat="45.6052089" lon="9.5600815"><ele>164.0</ele><time>2026-04-04T13:32:29.808Z</time></trkpt><trkpt lat="45.6051361" lon="9.5600191"><ele>164.0</ele><time>2026-04-04T13:32:31.81Z</time></trkpt><trkpt lat="45.6050701" lon="9.559958"><ele>164.0</ele><time>2026-04-04T13:32:33.806Z</time></trkpt><trkpt lat="45.605008" lon="9.5599067"><ele>164.0</ele><time>2026-04-04T13:32:35.811Z</time></trkpt><trkpt lat="45.604939" lon="9.5598452"><ele>164.0</ele><time>2026-04-04T13:32:37.808Z</time></trkpt><trkpt lat="45.6048723" lon="9.5597387"><ele>164.0</ele><time>2026-04-04T13:32:39.807Z</time></trkpt><trkpt lat="45.6048123" lon="9.5596245"><ele>164.0</ele><time>2026-04-04T13:32:41.82Z</time></trkpt><trkpt lat="45.6047394" lon="9.5595085"><ele>163.2</ele><time>2026-04-04T13:32:43.809Z</time></trkpt><trkpt lat="45.6046475" lon="9.5594184"><ele>162.39999999999998</ele><time>2026-04-04T13:32:45.817Z</time></trkpt><trkpt lat="45.6045396" lon="9.5593411"><ele>161.6</ele><time>2026-04-04T13:32:47.814Z</time></trkpt><trkpt lat="45.6044783" lon="9.5592988"><ele>160.8</ele><time>2026-04-04T13:32:48.808Z</time></trkpt><trkpt lat="45.6044203" lon="9.5592554"><ele>160.0</ele><time>2026-04-04T13:32:49.808Z</time></trkpt><trkpt lat="45.604307" lon="9.5591779"><ele>160.0</ele><time>2026-04-04T13:32:51.818Z</time></trkpt><trkpt lat="45.6041946" lon="9.559137"><ele>160.0</ele><time>2026-04-04T13:32:53.807Z</time></trkpt><trkpt lat="45.6040845" lon="9.5590654"><ele>160.0</ele><time>2026-04-04T13:32:55.817Z</time></trkpt><trkpt lat="45.6039796" lon="9.5590138"><ele>160.0</ele><time>2026-04-04T13:32:57.812Z</time></trkpt><trkpt lat="45.6038731" lon="9.5589545"><ele>160.0</ele><time>2026-04-04T13:32:59.809Z</time></trkpt><trkpt lat="45.6037678" lon="9.5589049"><ele>160.0</ele><time>2026-04-04T13:33:01.805Z</time></trkpt><trkpt lat="45.6036577" lon="9.5588552"><ele>160.0</ele><time>2026-04-04T13:33:03.807Z</time></trkpt><trkpt lat="45.6035476" lon="9.5587976"><ele>160.0</ele><time>2026-04-04T13:33:05.814Z</time></trkpt><trkpt lat="45.6034401" lon="9.5587372"><ele>159.0</ele><time>2026-04-04T13:33:07.811Z</time></trkpt><trkpt lat="45.6033263" lon="9.5586848"><ele>158.0</ele><time>2026-04-04T13:33:09.808Z</time></trkpt><trkpt lat="45.6032205" lon="9.5586395"><ele>157.0</ele><time>2026-04-04T13:33:11.818Z</time></trkpt><trkpt lat="45.6031054" lon="9.5585907"><ele>156.0</ele><time>2026-04-04T13:33:13.81Z</time></trkpt><trkpt lat="45.6030464" lon="9.5585593"><ele>155.0</ele><time>2026-04-04T13:33:14.809Z</time></trkpt><trkpt lat="45.6029854" lon="9.558526"><ele>155.0</ele><time>2026-04-04T13:33:15.813Z</time></trkpt><trkpt lat="45.6029225" lon="9.5584938"><ele>155.0</ele><time>2026-04-04T13:33:16.813Z</time></trkpt><trkpt lat="45.6028615" lon="9.5584559"><ele>155.0</ele><time>2026-04-04T13:33:17.812Z</time></trkpt><trkpt lat="45.602798" lon="9.5584243"><ele>155.0</ele><time>2026-04-04T13:33:18.813Z</time></trkpt><trkpt lat="45.6027321" lon="9.5584"><ele>155.0</ele><time>2026-04-04T13:33:19.811Z</time></trkpt><trkpt lat="45.6026626" lon="9.5583708"><ele>155.0</ele><time>2026-04-04T13:33:20.806Z</time></trkpt><trkpt lat="45.6025958" lon="9.5583421"><ele>155.0</ele><time>2026-04-04T13:33:21.811Z</time></trkpt><trkpt lat="45.6025269" lon="9.5583065"><ele>155.71428571428572</ele><time>2026-04-04T13:33:22.811Z</time></trkpt><trkpt lat="45.6024613" lon="9.5582717"><ele>156.42857142857142</ele><time>2026-04-04T13:33:23.809Z</time></trkpt><trkpt lat="45.6023888" lon="9.5582445"><ele>157.14285714285714</ele><time>2026-04-04T13:33:24.809Z</time></trkpt><trkpt lat="45.6023204" lon="9.5582158"><ele>157.85714285714286</ele><time>2026-04-04T13:33:25.81Z</time></trkpt><trkpt lat="45.6022454" lon="9.5581896"><ele>158.57142857142858</ele><time>2026-04-04T13:33:26.81Z</time></trkpt><trkpt lat="45.6021739" lon="9.5581583"><ele>159.28571428571428</ele><time>2026-04-04T13:33:27.808Z</time></trkpt><trkpt lat="45.6021024" lon="9.5581303"><ele>160.0</ele><time>2026-04-04T13:33:28.819Z</time></trkpt><trkpt lat="45.6020306" lon="9.5580989"><ele>159.83333333333334</ele><time>2026-04-04T13:33:29.807Z</time></trkpt><trkpt lat="45.6019579" lon="9.5580672"><ele>159.66666666666669</ele><time>2026-04-04T13:33:30.808Z</time></trkpt><trkpt lat="45.6018815" lon="9.5580329"><ele>159.5</ele><time>2026-04-04T13:33:31.808Z</time></trkpt><trkpt lat="45.6018063" lon="9.5580005"><ele>159.33333333333334</ele><time>2026-04-04T13:33:32.812Z</time></trkpt><trkpt lat="45.6017276" lon="9.5579748"><ele>159.16666666666666</ele><time>2026-04-04T13:33:33.809Z</time></trkpt><trkpt lat="45.6016507" lon="9.557945"><ele>159.0</ele><time>2026-04-04T13:33:34.809Z</time></trkpt><trkpt lat="45.6015737" lon="9.5579173"><ele>159.0</ele><time>2026-04-04T13:33:35.814Z</time></trkpt><trkpt lat="45.6015006" lon="9.5578928"><ele>159.0</ele><time>2026-04-04T13:33:36.815Z</time></trkpt><trkpt lat="45.6014252" lon="9.55787"><ele>159.0</ele><time>2026-04-04T13:33:37.809Z</time></trkpt><trkpt lat="45.6013484" lon="9.5578483"><ele>159.0</ele><time>2026-04-04T13:33:38.809Z</time></trkpt><trkpt lat="45.6012706" lon="9.55783"><ele>159.0</ele><time>2026-04-04T13:33:39.808Z</time></trkpt><trkpt lat="45.6011944" lon="9.5578129"><ele>159.0</ele><time>2026-04-04T13:33:40.812Z</time></trkpt><trkpt lat="45.6011144" lon="9.5577931"><ele>158.33333333333334</ele><time>2026-04-04T13:33:41.809Z</time></trkpt><trkpt lat="45.6010327" lon="9.5577757"><ele>157.66666666666666</ele><time>2026-04-04T13:33:42.807Z</time></trkpt><trkpt lat="45.6009532" lon="9.5577565"><ele>157.0</ele><time>2026-04-04T13:33:43.814Z</time></trkpt><trkpt lat="45.6008725" lon="9.5577373"><ele>156.33333333333331</ele><time>2026-04-04T13:33:44.81Z</time></trkpt><trkpt lat="45.6007894" lon="9.5577092"><ele>155.66666666666666</ele><time>2026-04-04T13:33:45.808Z</time></trkpt><trkpt lat="45.6007105" lon="9.5576925"><ele>155.0</ele><time>2026-04-04T13:33:46.816Z</time></trkpt><trkpt lat="45.600629" lon="9.5576736"><ele>155.0</ele><time>2026-04-04T13:33:47.808Z</time></trkpt><trkpt lat="45.6005487" lon="9.5576518"><ele>155.0</ele><time>2026-04-04T13:33:48.807Z</time></trkpt><trkpt lat="45.6004708" lon="9.5576335"><ele>155.0</ele><time>2026-04-04T13:33:49.811Z</time></trkpt><trkpt lat="45.6003932" lon="9.5576172"><ele>155.0</ele><time>2026-04-04T13:33:50.811Z</time></trkpt><trkpt lat="45.6003197" lon="9.5576008"><ele>155.0</ele><time>2026-04-04T13:33:51.816Z</time></trkpt><trkpt lat="45.600243" lon="9.5575786"><ele>155.0</ele><time>2026-04-04T13:33:52.807Z</time></trkpt><trkpt lat="45.6001789" lon="9.5575497"><ele>155.0</ele><time>2026-04-04T13:33:53.808Z</time></trkpt><trkpt lat="45.6001047" lon="9.5575237"><ele>155.0</ele><time>2026-04-04T13:33:54.812Z</time></trkpt><trkpt lat="45.6000283" lon="9.5575022"><ele>155.0</ele><time>2026-04-04T13:33:55.81Z</time></trkpt><trkpt lat="45.5999531" lon="9.5574811"><ele>155.0</ele><time>2026-04-04T13:33:56.808Z</time></trkpt><trkpt lat="45.5998733" lon="9.5574644"><ele>155.0</ele><time>2026-04-04T13:33:57.807Z</time></trkpt><trkpt lat="45.5997978" lon="9.5574435"><ele>155.0</ele><time>2026-04-04T13:33:58.812Z</time></trkpt><trkpt lat="45.5997178" lon="9.5574207"><ele>155.0</ele><time>2026-04-04T13:33:59.805Z</time></trkpt><trkpt lat="45.5996386" lon="9.5573969"><ele>155.0</ele><time>2026-04-04T13:34:00.807Z</time></trkpt><trkpt lat="45.5995599" lon="9.5573799"><ele>155.0</ele><time>2026-04-04T13:34:01.813Z</time></trkpt><trkpt lat="45.5994816" lon="9.5573645"><ele>155.0</ele><time>2026-04-04T13:34:02.817Z</time></trkpt><trkpt lat="45.5994067" lon="9.5573595"><ele>155.0</ele><time>2026-04-04T13:34:03.81Z</time></trkpt><trkpt lat="45.5993316" lon="9.5573583"><ele>155.0</ele><time>2026-04-04T13:34:04.815Z</time></trkpt><trkpt lat="45.5992579" lon="9.55736"><ele>154.0</ele><time>2026-04-04T13:34:05.809Z</time></trkpt><trkpt lat="45.5991837" lon="9.5573574"><ele>153.0</ele><time>2026-04-04T13:34:06.811Z</time></trkpt><trkpt lat="45.5991096" lon="9.5573495"><ele>152.0</ele><time>2026-04-04T13:34:07.807Z</time></trkpt><trkpt lat="45.5990328" lon="9.5573461"><ele>151.0</ele><time>2026-04-04T13:34:08.813Z</time></trkpt><trkpt lat="45.5989543" lon="9.5573435"><ele>150.0</ele><time>2026-04-04T13:34:09.811Z</time></trkpt><trkpt lat="45.5988786" lon="9.5573408"><ele>149.0</ele><time>2026-04-04T13:34:10.813Z</time></trkpt><trkpt lat="45.5987965" lon="9.5573398"><ele>149.0</ele><time>2026-04-04T13:34:11.807Z</time></trkpt><trkpt lat="45.5987178" lon="9.5573466"><ele>149.0</ele><time>2026-04-04T13:34:12.81Z</time></trkpt><trkpt lat="45.5986396" lon="9.5573448"><ele>149.0</ele><time>2026-04-04T13:34:13.811Z</time></trkpt><trkpt lat="45.5985597" lon="9.5573407"><ele>149.0</ele><time>2026-04-04T13:34:14.811Z</time></trkpt><trkpt lat="45.5984844" lon="9.5573434"><ele>149.0</ele><time>2026-04-04T13:34:15.811Z</time></trkpt><trkpt lat="45.5984084" lon="9.5573448"><ele>149.0</ele><time>2026-04-04T13:34:16.806Z</time></trkpt><trkpt lat="45.5983313" lon="9.5573477"><ele>149.0</ele><time>2026-04-04T13:34:17.814Z</time></trkpt><trkpt lat="45.5982522" lon="9.5573551"><ele>149.0</ele><time>2026-04-04T13:34:18.808Z</time></trkpt><trkpt lat="45.5981646" lon="9.5573487"><ele>149.0</ele><time>2026-04-04T13:34:19.807Z</time></trkpt><trkpt lat="45.5980797" lon="9.5573525"><ele>149.0</ele><time>2026-04-04T13:34:20.81Z</time></trkpt><trkpt lat="45.5980006" lon="9.557354"><ele>149.0</ele><time>2026-04-04T13:34:21.808Z</time></trkpt><trkpt lat="45.597919" lon="9.5573772"><ele>149.0</ele><time>2026-04-04T13:34:22.81Z</time></trkpt><trkpt lat="45.5978386" lon="9.557392"><ele>149.0</ele><time>2026-04-04T13:34:23.813Z</time></trkpt><trkpt lat="45.5977532" lon="9.5574149"><ele>149.0</ele><time>2026-04-04T13:34:24.812Z</time></trkpt><trkpt lat="45.5976651" lon="9.5574427"><ele>149.0</ele><time>2026-04-04T13:34:25.807Z</time></trkpt><trkpt lat="45.5975761" lon="9.5574681"><ele>149.0</ele><time>2026-04-04T13:34:26.808Z</time></trkpt><trkpt lat="45.5974854" lon="9.5574915"><ele>149.0</ele><time>2026-04-04T13:34:27.811Z</time></trkpt><trkpt lat="45.597393" lon="9.5575191"><ele>149.0</ele><time>2026-04-04T13:34:28.813Z</time></trkpt><trkpt lat="45.5973034" lon="9.557556"><ele>149.0</ele><time>2026-04-04T13:34:29.807Z</time></trkpt><trkpt lat="45.5972113" lon="9.5575895"><ele>149.0</ele><time>2026-04-04T13:34:30.818Z</time></trkpt><trkpt lat="45.5971193" lon="9.5576237"><ele>149.0</ele><time>2026-04-04T13:34:31.816Z</time></trkpt><trkpt lat="45.5970274" lon="9.5576562"><ele>149.0</ele><time>2026-04-04T13:34:32.815Z</time></trkpt><trkpt lat="45.596935" lon="9.5576802"><ele>148.8</ele><time>2026-04-04T13:34:33.808Z</time></trkpt><trkpt lat="45.5968405" lon="9.5577051"><ele>148.60000000000002</ele><time>2026-04-04T13:34:34.813Z</time></trkpt><trkpt lat="45.5967498" lon="9.5577348"><ele>148.4</ele><time>2026-04-04T13:34:35.813Z</time></trkpt><trkpt lat="45.5966577" lon="9.5577642"><ele>148.20000000000002</ele><time>2026-04-04T13:34:36.812Z</time></trkpt><trkpt lat="45.5965655" lon="9.5577942"><ele>148.0</ele><time>2026-04-04T13:34:37.815Z</time></trkpt><trkpt lat="45.59648" lon="9.5578265"><ele>148.0</ele><time>2026-04-04T13:34:38.814Z</time></trkpt><trkpt lat="45.5963948" lon="9.5578619"><ele>148.0</ele><time>2026-04-04T13:34:39.818Z</time></trkpt><trkpt lat="45.5963118" lon="9.55789"><ele>148.0</ele><time>2026-04-04T13:34:40.813Z</time></trkpt><trkpt lat="45.5962242" lon="9.5579245"><ele>148.0</ele><time>2026-04-04T13:34:41.811Z</time></trkpt><trkpt lat="45.5961328" lon="9.5579657"><ele>148.0</ele><time>2026-04-04T13:34:42.813Z</time></trkpt><trkpt lat="45.5960513" lon="9.5579901"><ele>148.0</ele><time>2026-04-04T13:34:43.809Z</time></trkpt><trkpt lat="45.5959692" lon="9.5580322"><ele>147.5</ele><time>2026-04-04T13:34:44.819Z</time></trkpt><trkpt lat="45.5958893" lon="9.5580637"><ele>147.0</ele><time>2026-04-04T13:34:45.817Z</time></trkpt><trkpt lat="45.595812" lon="9.5580989"><ele>146.5</ele><time>2026-04-04T13:34:46.812Z</time></trkpt><trkpt lat="45.5957378" lon="9.558132"><ele>146.0</ele><time>2026-04-04T13:34:47.812Z</time></trkpt><trkpt lat="45.5956612" lon="9.5581631"><ele>145.5</ele><time>2026-04-04T13:34:48.81Z</time></trkpt><trkpt lat="45.5955834" lon="9.5581961"><ele>145.0</ele><time>2026-04-04T13:34:49.81Z</time></trkpt><trkpt lat="45.5955086" lon="9.5582271"><ele>145.0</ele><time>2026-04-04T13:34:50.821Z</time></trkpt><trkpt lat="45.5954278" lon="9.5582597"><ele>145.0</ele><time>2026-04-04T13:34:51.812Z</time></trkpt><trkpt lat="45.5953503" lon="9.558288"><ele>145.0</ele><time>2026-04-04T13:34:52.813Z</time></trkpt><trkpt lat="45.5952744" lon="9.5583284"><ele>145.0</ele><time>2026-04-04T13:34:53.813Z</time></trkpt><trkpt lat="45.5951997" lon="9.5583604"><ele>145.0</ele><time>2026-04-04T13:34:54.814Z</time></trkpt><trkpt lat="45.5951244" lon="9.558389"><ele>145.0</ele><time>2026-04-04T13:34:55.813Z</time></trkpt><trkpt lat="45.5950486" lon="9.5584119"><ele>144.66666666666669</ele><time>2026-04-04T13:34:56.81Z</time></trkpt><trkpt lat="45.5949701" lon="9.5584128"><ele>144.33333333333334</ele><time>2026-04-04T13:34:57.806Z</time></trkpt><trkpt lat="45.5949036" lon="9.5583772"><ele>144.0</ele><time>2026-04-04T13:34:58.807Z</time></trkpt><trkpt lat="45.5948363" lon="9.5583261"><ele>143.66666666666666</ele><time>2026-04-04T13:34:59.815Z</time></trkpt><trkpt lat="45.5947699" lon="9.5582768"><ele>143.33333333333331</ele><time>2026-04-04T13:35:00.806Z</time></trkpt><trkpt lat="45.5947015" lon="9.5582271"><ele>143.0</ele><time>2026-04-04T13:35:01.808Z</time></trkpt><trkpt lat="45.5946349" lon="9.5581794"><ele>143.0</ele><time>2026-04-04T13:35:02.807Z</time></trkpt><trkpt lat="45.5945675" lon="9.5581392"><ele>143.0</ele><time>2026-04-04T13:35:03.806Z</time></trkpt><trkpt lat="45.5944926" lon="9.5580955"><ele>143.0</ele><time>2026-04-04T13:35:04.815Z</time></trkpt><trkpt lat="45.5944153" lon="9.5580532"><ele>143.0</ele><time>2026-04-04T13:35:05.809Z</time></trkpt><trkpt lat="45.5943421" lon="9.5580123"><ele>143.0</ele><time>2026-04-04T13:35:06.813Z</time></trkpt><trkpt lat="45.59427" lon="9.557976"><ele>143.0</ele><time>2026-04-04T13:35:07.811Z</time></trkpt><trkpt lat="45.5942029" lon="9.5579354"><ele>142.99999999999997</ele><time>2026-04-04T13:35:08.812Z</time></trkpt><trkpt lat="45.5941367" lon="9.5578962"><ele>143.0</ele><time>2026-04-04T13:35:09.806Z</time></trkpt><trkpt lat="45.5940661" lon="9.5578584"><ele>143.0</ele><time>2026-04-04T13:35:10.809Z</time></trkpt><trkpt lat="45.5940027" lon="9.5578237"><ele>143.0</ele><time>2026-04-04T13:35:11.812Z</time></trkpt><trkpt lat="45.5939414" lon="9.5577822"><ele>143.0</ele><time>2026-04-04T13:35:12.812Z</time></trkpt><trkpt lat="45.5938789" lon="9.5577476"><ele>142.99999999999997</ele><time>2026-04-04T13:35:13.808Z</time></trkpt><trkpt lat="45.5938135" lon="9.557717"><ele>143.0</ele><time>2026-04-04T13:35:14.809Z</time></trkpt><trkpt lat="45.5937456" lon="9.5576773"><ele>143.0</ele><time>2026-04-04T13:35:15.814Z</time></trkpt><trkpt lat="45.5936838" lon="9.5576342"><ele>143.0</ele><time>2026-04-04T13:35:16.806Z</time></trkpt><trkpt lat="45.5936206" lon="9.5576156"><ele>143.0</ele><time>2026-04-04T13:35:17.81Z</time></trkpt><trkpt lat="45.5935585" lon="9.5575839"><ele>143.0</ele><time>2026-04-04T13:35:18.816Z</time></trkpt><trkpt lat="45.5934483" lon="9.5575205"><ele>143.0</ele><time>2026-04-04T13:35:20.81Z</time></trkpt><trkpt lat="45.5933549" lon="9.5574853"><ele>143.0</ele><time>2026-04-04T13:35:22.81Z</time></trkpt><trkpt lat="45.5933037" lon="9.5576097"><ele>143.20000000000002</ele><time>2026-04-04T13:35:24.817Z</time></trkpt><trkpt lat="45.5932937" lon="9.5577576"><ele>143.4</ele><time>2026-04-04T13:35:26.81Z</time></trkpt><trkpt lat="45.5932828" lon="9.5579016"><ele>143.60000000000002</ele><time>2026-04-04T13:35:28.811Z</time></trkpt><trkpt lat="45.5932637" lon="9.5580514"><ele>143.8</ele><time>2026-04-04T13:35:30.817Z</time></trkpt><trkpt lat="45.5932486" lon="9.5582114"><ele>144.0</ele><time>2026-04-04T13:35:32.809Z</time></trkpt><trkpt lat="45.5932268" lon="9.5583702"><ele>144.0</ele><time>2026-04-04T13:35:34.812Z</time></trkpt><trkpt lat="45.5932093" lon="9.5585503"><ele>144.0</ele><time>2026-04-04T13:35:36.818Z</time></trkpt><trkpt lat="45.5931958" lon="9.5587261"><ele>144.0</ele><time>2026-04-04T13:35:38.811Z</time></trkpt><trkpt lat="45.5931781" lon="9.558894"><ele>144.0</ele><time>2026-04-04T13:35:40.808Z</time></trkpt><trkpt lat="45.5931612" lon="9.558985"><ele>144.0</ele><time>2026-04-04T13:35:41.819Z</time></trkpt><trkpt lat="45.5931593" lon="9.5590754"><ele>143.83333333333334</ele><time>2026-04-04T13:35:42.811Z</time></trkpt><trkpt lat="45.5931492" lon="9.5591678"><ele>143.66666666666666</ele><time>2026-04-04T13:35:43.813Z</time></trkpt><trkpt lat="45.59314" lon="9.5592666"><ele>143.5</ele><time>2026-04-04T13:35:44.815Z</time></trkpt><trkpt lat="45.5931333" lon="9.5593564"><ele>143.33333333333331</ele><time>2026-04-04T13:35:45.815Z</time></trkpt><trkpt lat="45.5931172" lon="9.5595274"><ele>143.16666666666666</ele><time>2026-04-04T13:35:47.81Z</time></trkpt><trkpt lat="45.5930656" lon="9.5596709"><ele>143.0</ele><time>2026-04-04T13:35:49.813Z</time></trkpt><trkpt lat="45.5929837" lon="9.5597544"><ele>143.83333333333331</ele><time>2026-04-04T13:35:51.811Z</time></trkpt><trkpt lat="45.592962" lon="9.559881"><ele>144.66666666666666</ele><time>2026-04-04T13:35:53.811Z</time></trkpt><trkpt lat="45.5929664" lon="9.5600023"><ele>145.5</ele><time>2026-04-04T13:35:55.809Z</time></trkpt><trkpt lat="45.5929813" lon="9.5601146"><ele>146.33333333333334</ele><time>2026-04-04T13:35:57.812Z</time></trkpt><trkpt lat="45.5930206" lon="9.5602089"><ele>147.16666666666669</ele><time>2026-04-04T13:35:59.811Z</time></trkpt><trkpt lat="45.5930392" lon="9.5603138"><ele>148.0</ele><time>2026-04-04T13:36:01.809Z</time></trkpt><trkpt lat="45.5930516" lon="9.5604028"><ele>148.83333333333334</ele><time>2026-04-04T13:36:03.809Z</time></trkpt><trkpt lat="45.5930583" lon="9.5605265"><ele>149.66666666666669</ele><time>2026-04-04T13:36:06.809Z</time></trkpt><trkpt lat="45.5930603" lon="9.5606417"><ele>150.5</ele><time>2026-04-04T13:36:09.809Z</time></trkpt><trkpt lat="45.5930491" lon="9.5607443"><ele>151.33333333333334</ele><time>2026-04-04T13:36:12.81Z</time></trkpt><trkpt lat="45.5930491" lon="9.5608507"><ele>152.16666666666666</ele><time>2026-04-04T13:36:15.805Z</time></trkpt><trkpt lat="45.5930299" lon="9.5609463"><ele>153.0</ele><time>2026-04-04T13:36:18.811Z</time></trkpt><trkpt lat="45.5929848" lon="9.561052"><ele>153.0</ele><time>2026-04-04T13:36:22.809Z</time></trkpt><trkpt lat="45.592945" lon="9.5611355"><ele>153.0</ele><time>2026-04-04T13:36:24.815Z</time></trkpt><trkpt lat="45.5929079" lon="9.5612157"><ele>153.0</ele><time>2026-04-04T13:36:26.81Z</time></trkpt><trkpt lat="45.5928804" lon="9.5613136"><ele>153.0</ele><time>2026-04-04T13:36:28.81Z</time></trkpt><trkpt lat="45.5928438" lon="9.561425"><ele>153.0</ele><time>2026-04-04T13:36:30.811Z</time></trkpt><trkpt lat="45.5928093" lon="9.5615287"><ele>153.0</ele><time>2026-04-04T13:36:32.809Z</time></trkpt><trkpt lat="45.5927822" lon="9.5616251"><ele>153.16666666666666</ele><time>2026-04-04T13:36:34.812Z</time></trkpt><trkpt lat="45.5927618" lon="9.561729"><ele>153.33333333333334</ele><time>2026-04-04T13:36:36.809Z</time></trkpt><trkpt lat="45.59273" lon="9.5618345"><ele>153.5</ele><time>2026-04-04T13:36:38.805Z</time></trkpt><trkpt lat="45.592682" lon="9.5619438"><ele>153.66666666666669</ele><time>2026-04-04T13:36:40.815Z</time></trkpt><trkpt lat="45.5926342" lon="9.562049"><ele>153.83333333333334</ele><time>2026-04-04T13:36:42.808Z</time></trkpt><trkpt lat="45.5925792" lon="9.5621582"><ele>154.0</ele><time>2026-04-04T13:36:44.809Z</time></trkpt><trkpt lat="45.5925233" lon="9.562282"><ele>154.0</ele><time>2026-04-04T13:36:46.811Z</time></trkpt><trkpt lat="45.5924623" lon="9.5624101"><ele>154.0</ele><time>2026-04-04T13:36:48.814Z</time></trkpt><trkpt lat="45.5924081" lon="9.5625416"><ele>154.0</ele><time>2026-04-04T13:36:50.81Z</time></trkpt><trkpt lat="45.592357" lon="9.5626883"><ele>154.0</ele><time>2026-04-04T13:36:52.809Z</time></trkpt><trkpt lat="45.5923241" lon="9.5627686"><ele>154.0</ele><time>2026-04-04T13:36:53.814Z</time></trkpt><trkpt lat="45.5922922" lon="9.5628466"><ele>154.2</ele><time>2026-04-04T13:36:54.807Z</time></trkpt><trkpt lat="45.5922388" lon="9.5630054"><ele>154.4</ele><time>2026-04-04T13:36:56.811Z</time></trkpt><trkpt lat="45.5922057" lon="9.5630856"><ele>154.6</ele><time>2026-04-04T13:36:57.812Z</time></trkpt><trkpt lat="45.5921531" lon="9.5632496"><ele>154.8</ele><time>2026-04-04T13:36:59.81Z</time></trkpt><trkpt lat="45.5921255" lon="9.5633314"><ele>155.0</ele><time>2026-04-04T13:37:00.817Z</time></trkpt><trkpt lat="45.5920707" lon="9.5634918"><ele>155.0</ele><time>2026-04-04T13:37:02.81Z</time></trkpt><trkpt lat="45.5920119" lon="9.5636424"><ele>155.0</ele><time>2026-04-04T13:37:04.81Z</time></trkpt><trkpt lat="45.5919418" lon="9.5637841"><ele>155.0</ele><time>2026-04-04T13:37:06.814Z</time></trkpt><trkpt lat="45.5918797" lon="9.5639236"><ele>155.0</ele><time>2026-04-04T13:37:08.806Z</time></trkpt><trkpt lat="45.5918091" lon="9.5640537"><ele>155.0</ele><time>2026-04-04T13:37:10.816Z</time></trkpt><trkpt lat="45.5917352" lon="9.5641654"><ele>155.0</ele><time>2026-04-04T13:37:12.806Z</time></trkpt><trkpt lat="45.5916605" lon="9.5642774"><ele>155.0</ele><time>2026-04-04T13:37:14.809Z</time></trkpt><trkpt lat="45.591581" lon="9.5643839"><ele>155.0</ele><time>2026-04-04T13:37:16.806Z</time></trkpt><trkpt lat="45.5915036" lon="9.5644997"><ele>155.0</ele><time>2026-04-04T13:37:18.816Z</time></trkpt><trkpt lat="45.5914267" lon="9.5646089"><ele>155.2</ele><time>2026-04-04T13:37:20.808Z</time></trkpt><trkpt lat="45.59136" lon="9.5647194"><ele>155.4</ele><time>2026-04-04T13:37:22.806Z</time></trkpt><trkpt lat="45.5912861" lon="9.5648298"><ele>155.6</ele><time>2026-04-04T13:37:24.811Z</time></trkpt><trkpt lat="45.5912534" lon="9.5649081"><ele>155.8</ele><time>2026-04-04T13:37:25.813Z</time></trkpt><trkpt lat="45.5912035" lon="9.5650417"><ele>156.0</ele><time>2026-04-04T13:37:27.822Z</time></trkpt><trkpt lat="45.5911566" lon="9.5651928"><ele>155.5</ele><time>2026-04-04T13:37:29.815Z</time></trkpt><trkpt lat="45.5910893" lon="9.5653284"><ele>155.0</ele><time>2026-04-04T13:37:31.81Z</time></trkpt><trkpt lat="45.5910421" lon="9.5654836"><ele>154.5</ele><time>2026-04-04T13:37:33.81Z</time></trkpt><trkpt lat="45.5909729" lon="9.5656216"><ele>154.0</ele><time>2026-04-04T13:37:35.811Z</time></trkpt><trkpt lat="45.5909087" lon="9.5657393"><ele>154.0</ele><time>2026-04-04T13:37:37.806Z</time></trkpt><trkpt lat="45.5908454" lon="9.5658439"><ele>154.0</ele><time>2026-04-04T13:37:39.807Z</time></trkpt><trkpt lat="45.5907866" lon="9.565955"><ele>154.0</ele><time>2026-04-04T13:37:41.805Z</time></trkpt><trkpt lat="45.5907233" lon="9.5660799"><ele>154.0</ele><time>2026-04-04T13:37:43.819Z</time></trkpt><trkpt lat="45.5906695" lon="9.5661878"><ele>154.0</ele><time>2026-04-04T13:37:45.81Z</time></trkpt><trkpt lat="45.5906124" lon="9.5663307"><ele>154.0</ele><time>2026-04-04T13:37:47.816Z</time></trkpt><trkpt lat="45.5905455" lon="9.566449"><ele>154.0</ele><time>2026-04-04T13:37:49.809Z</time></trkpt><trkpt lat="45.5904482" lon="9.5665415"><ele>154.0</ele><time>2026-04-04T13:37:51.807Z</time></trkpt><trkpt lat="45.5903566" lon="9.566618"><ele>154.0</ele><time>2026-04-04T13:37:53.81Z</time></trkpt><trkpt lat="45.5902567" lon="9.5666892"><ele>154.0</ele><time>2026-04-04T13:37:55.809Z</time></trkpt><trkpt lat="45.5902054" lon="9.566743"><ele>154.0</ele><time>2026-04-04T13:37:56.806Z</time></trkpt><trkpt lat="45.5901518" lon="9.5667974"><ele>154.0</ele><time>2026-04-04T13:37:57.806Z</time></trkpt><trkpt lat="45.5900985" lon="9.5668472"><ele>154.0</ele><time>2026-04-04T13:37:58.809Z</time></trkpt><trkpt lat="45.5899913" lon="9.5668958"><ele>154.0</ele><time>2026-04-04T13:38:00.811Z</time></trkpt><trkpt lat="45.589888" lon="9.5669811"><ele>154.0</ele><time>2026-04-04T13:38:02.816Z</time></trkpt><trkpt lat="45.5897866" lon="9.5670461"><ele>154.0</ele><time>2026-04-04T13:38:04.807Z</time></trkpt><trkpt lat="45.5896771" lon="9.5671153"><ele>154.0</ele><time>2026-04-04T13:38:06.815Z</time></trkpt><trkpt lat="45.5895716" lon="9.567178"><ele>154.0</ele><time>2026-04-04T13:38:08.809Z</time></trkpt><trkpt lat="45.5895149" lon="9.5672203"><ele>154.0</ele><time>2026-04-04T13:38:09.807Z</time></trkpt><trkpt lat="45.5894045" lon="9.5672789"><ele>154.0</ele><time>2026-04-04T13:38:11.812Z</time></trkpt><trkpt lat="45.5893462" lon="9.5673149"><ele>154.0</ele><time>2026-04-04T13:38:12.807Z</time></trkpt><trkpt lat="45.5892454" lon="9.5673957"><ele>154.0</ele><time>2026-04-04T13:38:14.814Z</time></trkpt><trkpt lat="45.5891707" lon="9.5675012"><ele>154.0</ele><time>2026-04-04T13:38:16.816Z</time></trkpt><trkpt lat="45.589116" lon="9.5675815"><ele>154.0</ele><time>2026-04-04T13:38:18.806Z</time></trkpt><trkpt lat="45.5890657" lon="9.5676608"><ele>154.0</ele><time>2026-04-04T13:38:21.811Z</time></trkpt><trkpt lat="45.5889973" lon="9.5676793"><ele>154.0</ele><time>2026-04-04T13:38:39.812Z</time></trkpt><trkpt lat="45.5889372" lon="9.5677637"><ele>154.0</ele><time>2026-04-04T13:38:42.811Z</time></trkpt><trkpt lat="45.5888964" lon="9.5678663"><ele>154.0</ele><time>2026-04-04T13:38:44.806Z</time></trkpt><trkpt lat="45.5888378" lon="9.5679616"><ele>154.0</ele><time>2026-04-04T13:38:46.808Z</time></trkpt><trkpt lat="45.588775" lon="9.5680348"><ele>154.0</ele><time>2026-04-04T13:38:48.809Z</time></trkpt><trkpt lat="45.5887076" lon="9.568099"><ele>154.0</ele><time>2026-04-04T13:38:50.809Z</time></trkpt><trkpt lat="45.5886312" lon="9.5681895"><ele>154.0</ele><time>2026-04-04T13:38:52.807Z</time></trkpt><trkpt lat="45.588535" lon="9.5682751"><ele>154.0</ele><time>2026-04-04T13:38:54.814Z</time></trkpt><trkpt lat="45.5884377" lon="9.568365"><ele>154.0</ele><time>2026-04-04T13:38:56.815Z</time></trkpt><trkpt lat="45.5883386" lon="9.5684633"><ele>154.0</ele><time>2026-04-04T13:38:58.812Z</time></trkpt><trkpt lat="45.5882846" lon="9.5685143"><ele>154.0</ele><time>2026-04-04T13:38:59.81Z</time></trkpt><trkpt lat="45.5881843" lon="9.5686174"><ele>154.0</ele><time>2026-04-04T13:39:01.814Z</time></trkpt><trkpt lat="45.5881331" lon="9.5686731"><ele>154.2</ele><time>2026-04-04T13:39:02.816Z</time></trkpt><trkpt lat="45.5880809" lon="9.5687281"><ele>154.4</ele><time>2026-04-04T13:39:03.812Z</time></trkpt><trkpt lat="45.5879944" lon="9.5688264"><ele>154.6</ele><time>2026-04-04T13:39:05.808Z</time></trkpt><trkpt lat="45.5879021" lon="9.5689297"><ele>154.8</ele><time>2026-04-04T13:39:07.81Z</time></trkpt><trkpt lat="45.5878122" lon="9.5690296"><ele>155.0</ele><time>2026-04-04T13:39:09.807Z</time></trkpt><trkpt lat="45.5877615" lon="9.5690871"><ele>155.16666666666666</ele><time>2026-04-04T13:39:10.811Z</time></trkpt><trkpt lat="45.5876663" lon="9.5691852"><ele>155.33333333333331</ele><time>2026-04-04T13:39:12.813Z</time></trkpt><trkpt lat="45.5876183" lon="9.5692435"><ele>155.5</ele><time>2026-04-04T13:39:13.809Z</time></trkpt><trkpt lat="45.5875711" lon="9.5693098"><ele>155.66666666666666</ele><time>2026-04-04T13:39:14.808Z</time></trkpt><trkpt lat="45.5875252" lon="9.5693793"><ele>155.83333333333334</ele><time>2026-04-04T13:39:15.808Z</time></trkpt><trkpt lat="45.5874354" lon="9.56947"><ele>156.0</ele><time>2026-04-04T13:39:17.809Z</time></trkpt><trkpt lat="45.5873489" lon="9.5695675"><ele>156.0</ele><time>2026-04-04T13:39:19.815Z</time></trkpt><trkpt lat="45.5872884" lon="9.5696165"><ele>156.0</ele><time>2026-04-04T13:39:20.813Z</time></trkpt><trkpt lat="45.5872266" lon="9.5696709"><ele>156.0</ele><time>2026-04-04T13:39:21.811Z</time></trkpt><trkpt lat="45.5871753" lon="9.5697373"><ele>156.0</ele><time>2026-04-04T13:39:22.812Z</time></trkpt><trkpt lat="45.5871352" lon="9.5698121"><ele>156.0</ele><time>2026-04-04T13:39:23.814Z</time></trkpt><trkpt lat="45.5870716" lon="9.5699248"><ele>156.0</ele><time>2026-04-04T13:39:25.81Z</time></trkpt><trkpt lat="45.5870043" lon="9.5700286"><ele>156.0</ele><time>2026-04-04T13:39:27.807Z</time></trkpt><trkpt lat="45.586933" lon="9.5701323"><ele>156.0</ele><time>2026-04-04T13:39:29.818Z</time></trkpt><trkpt lat="45.5868414" lon="9.5702275"><ele>156.0</ele><time>2026-04-04T13:39:31.809Z</time></trkpt><trkpt lat="45.5867486" lon="9.5703235"><ele>156.0</ele><time>2026-04-04T13:39:33.809Z</time></trkpt><trkpt lat="45.5866615" lon="9.5704333"><ele>156.0</ele><time>2026-04-04T13:39:35.809Z</time></trkpt><trkpt lat="45.5865703" lon="9.5705229"><ele>155.6</ele><time>2026-04-04T13:39:37.81Z</time></trkpt><trkpt lat="45.5864982" lon="9.5706322"><ele>155.2</ele><time>2026-04-04T13:39:39.809Z</time></trkpt><trkpt lat="45.586419" lon="9.5707344"><ele>154.8</ele><time>2026-04-04T13:39:41.812Z</time></trkpt><trkpt lat="45.586337" lon="9.570845"><ele>154.4</ele><time>2026-04-04T13:39:43.807Z</time></trkpt><trkpt lat="45.5862402" lon="9.5709431"><ele>154.0</ele><time>2026-04-04T13:39:45.806Z</time></trkpt><trkpt lat="45.5861674" lon="9.571044"><ele>153.83333333333334</ele><time>2026-04-04T13:39:47.807Z</time></trkpt><trkpt lat="45.5860964" lon="9.5711404"><ele>153.66666666666669</ele><time>2026-04-04T13:39:49.804Z</time></trkpt><trkpt lat="45.5860257" lon="9.5712332"><ele>153.5</ele><time>2026-04-04T13:39:51.805Z</time></trkpt><trkpt lat="45.5859725" lon="9.5713251"><ele>153.33333333333334</ele><time>2026-04-04T13:39:53.804Z</time></trkpt><trkpt lat="45.585925" lon="9.5713924"><ele>153.16666666666666</ele><time>2026-04-04T13:39:55.808Z</time></trkpt><trkpt lat="45.5858694" lon="9.5714679"><ele>153.0</ele><time>2026-04-04T13:39:58.809Z</time></trkpt><trkpt lat="45.5858164" lon="9.5715437"><ele>153.33333333333334</ele><time>2026-04-04T13:40:02.806Z</time></trkpt><trkpt lat="45.5857602" lon="9.5716142"><ele>153.66666666666666</ele><time>2026-04-04T13:40:06.811Z</time></trkpt><trkpt lat="45.5856973" lon="9.5716345"><ele>154.0</ele><time>2026-04-04T13:40:08.811Z</time></trkpt><trkpt lat="45.58563" lon="9.5716447"><ele>154.33333333333331</ele><time>2026-04-04T13:40:10.807Z</time></trkpt><trkpt lat="45.5855554" lon="9.5716803"><ele>154.66666666666666</ele><time>2026-04-04T13:40:12.815Z</time></trkpt><trkpt lat="45.5854965" lon="9.5717691"><ele>155.0</ele><time>2026-04-04T13:40:14.807Z</time></trkpt><trkpt lat="45.5854705" lon="9.5719016"><ele>155.4</ele><time>2026-04-04T13:40:16.806Z</time></trkpt><trkpt lat="45.5854562" lon="9.5720512"><ele>155.8</ele><time>2026-04-04T13:40:18.807Z</time></trkpt><trkpt lat="45.585407" lon="9.5721832"><ele>156.2</ele><time>2026-04-04T13:40:20.813Z</time></trkpt><trkpt lat="45.5853389" lon="9.5723062"><ele>156.6</ele><time>2026-04-04T13:40:22.812Z</time></trkpt><trkpt lat="45.5852715" lon="9.5724379"><ele>157.0</ele><time>2026-04-04T13:40:24.82Z</time></trkpt><trkpt lat="45.5851951" lon="9.5725693"><ele>157.5</ele><time>2026-04-04T13:40:26.811Z</time></trkpt><trkpt lat="45.5851163" lon="9.5726926"><ele>158.0</ele><time>2026-04-04T13:40:28.807Z</time></trkpt><trkpt lat="45.5850283" lon="9.5727933"><ele>158.5</ele><time>2026-04-04T13:40:30.807Z</time></trkpt><trkpt lat="45.5849321" lon="9.5729126"><ele>159.0</ele><time>2026-04-04T13:40:32.811Z</time></trkpt><trkpt lat="45.5848414" lon="9.5730315"><ele>159.2</ele><time>2026-04-04T13:40:34.815Z</time></trkpt><trkpt lat="45.5847493" lon="9.5731397"><ele>159.4</ele><time>2026-04-04T13:40:36.815Z</time></trkpt><trkpt lat="45.5846682" lon="9.5732312"><ele>159.6</ele><time>2026-04-04T13:40:38.805Z</time></trkpt><trkpt lat="45.5845757" lon="9.5733333"><ele>159.8</ele><time>2026-04-04T13:40:40.818Z</time></trkpt><trkpt lat="45.5844902" lon="9.5734213"><ele>160.0</ele><time>2026-04-04T13:40:42.812Z</time></trkpt><trkpt lat="45.5844029" lon="9.573506"><ele>160.0</ele><time>2026-04-04T13:40:44.806Z</time></trkpt><trkpt lat="45.5843242" lon="9.5736077"><ele>160.0</ele><time>2026-04-04T13:40:46.808Z</time></trkpt><trkpt lat="45.5842422" lon="9.5736973"><ele>160.0</ele><time>2026-04-04T13:40:48.807Z</time></trkpt><trkpt lat="45.5841562" lon="9.5737855"><ele>160.0</ele><time>2026-04-04T13:40:50.808Z</time></trkpt><trkpt lat="45.5840659" lon="9.5738753"><ele>160.0</ele><time>2026-04-04T13:40:52.808Z</time></trkpt><trkpt lat="45.5839832" lon="9.5739688"><ele>160.0</ele><time>2026-04-04T13:40:54.81Z</time></trkpt><trkpt lat="45.583893" lon="9.5740677"><ele>160.0</ele><time>2026-04-04T13:40:56.806Z</time></trkpt><trkpt lat="45.5838017" lon="9.5741703"><ele>160.0</ele><time>2026-04-04T13:40:58.812Z</time></trkpt><trkpt lat="45.5837045" lon="9.5742605"><ele>160.0</ele><time>2026-04-04T13:41:00.814Z</time></trkpt><trkpt lat="45.5836127" lon="9.5743647"><ele>159.75</ele><time>2026-04-04T13:41:02.805Z</time></trkpt><trkpt lat="45.583521" lon="9.5744698"><ele>159.5</ele><time>2026-04-04T13:41:04.804Z</time></trkpt><trkpt lat="45.5834377" lon="9.5745721"><ele>159.25</ele><time>2026-04-04T13:41:06.811Z</time></trkpt><trkpt lat="45.5833485" lon="9.5746704"><ele>159.0</ele><time>2026-04-04T13:41:08.809Z</time></trkpt><trkpt lat="45.5832592" lon="9.574776"><ele>159.0</ele><time>2026-04-04T13:41:10.806Z</time></trkpt><trkpt lat="45.5831682" lon="9.5748812"><ele>159.0</ele><time>2026-04-04T13:41:12.807Z</time></trkpt><trkpt lat="45.5830747" lon="9.5749901"><ele>159.0</ele><time>2026-04-04T13:41:14.812Z</time></trkpt><trkpt lat="45.5829872" lon="9.5750883"><ele>159.0</ele><time>2026-04-04T13:41:16.806Z</time></trkpt><trkpt lat="45.5829187" lon="9.5751502"><ele>159.0</ele><time>2026-04-04T13:41:19.807Z</time></trkpt><trkpt lat="45.582889" lon="9.575235"><ele>158.85714285714286</ele><time>2026-04-04T13:41:26.808Z</time></trkpt><trkpt lat="45.5828433" lon="9.5753012"><ele>158.71428571428572</ele><time>2026-04-04T13:41:29.805Z</time></trkpt><trkpt lat="45.5827999" lon="9.5753694"><ele>158.57142857142858</ele><time>2026-04-04T13:41:32.808Z</time></trkpt><trkpt lat="45.5827432" lon="9.5754252"><ele>158.42857142857144</ele><time>2026-04-04T13:41:35.806Z</time></trkpt><trkpt lat="45.5826829" lon="9.5754592"><ele>158.28571428571428</ele><time>2026-04-04T13:41:56.806Z</time></trkpt><trkpt lat="45.5826194" lon="9.5754292"><ele>158.14285714285717</ele><time>2026-04-04T13:42:04.809Z</time></trkpt><trkpt lat="45.5825491" lon="9.5754673"><ele>158.0</ele><time>2026-04-04T13:42:06.813Z</time></trkpt><trkpt lat="45.5824901" lon="9.5755722"><ele>157.8</ele><time>2026-04-04T13:42:08.809Z</time></trkpt><trkpt lat="45.5824468" lon="9.5756886"><ele>157.60000000000002</ele><time>2026-04-04T13:42:10.807Z</time></trkpt><trkpt lat="45.5823962" lon="9.5758179"><ele>157.39999999999998</ele><time>2026-04-04T13:42:12.812Z</time></trkpt><trkpt lat="45.5823205" lon="9.5759381"><ele>157.2</ele><time>2026-04-04T13:42:14.811Z</time></trkpt><trkpt lat="45.582234" lon="9.5760509"><ele>157.0</ele><time>2026-04-04T13:42:16.812Z</time></trkpt><trkpt lat="45.5821413" lon="9.5761641"><ele>157.16666666666669</ele><time>2026-04-04T13:42:18.813Z</time></trkpt><trkpt lat="45.582095" lon="9.5762278"><ele>157.33333333333334</ele><time>2026-04-04T13:42:19.809Z</time></trkpt><trkpt lat="45.5820458" lon="9.5762849"><ele>157.5</ele><time>2026-04-04T13:42:20.81Z</time></trkpt><trkpt lat="45.5819954" lon="9.5763417"><ele>157.66666666666666</ele><time>2026-04-04T13:42:21.809Z</time></trkpt><trkpt lat="45.5818888" lon="9.5764582"><ele>157.83333333333331</ele><time>2026-04-04T13:42:23.806Z</time></trkpt><trkpt lat="45.581833" lon="9.5765264"><ele>158.0</ele><time>2026-04-04T13:42:24.814Z</time></trkpt><trkpt lat="45.5817783" lon="9.5765835"><ele>158.00000000000003</ele><time>2026-04-04T13:42:25.809Z</time></trkpt><trkpt lat="45.5817197" lon="9.5766437"><ele>158.0</ele><time>2026-04-04T13:42:26.811Z</time></trkpt><trkpt lat="45.581663" lon="9.5767025"><ele>158.0</ele><time>2026-04-04T13:42:27.808Z</time></trkpt><trkpt lat="45.5816053" lon="9.5767567"><ele>158.0</ele><time>2026-04-04T13:42:28.813Z</time></trkpt><trkpt lat="45.5815468" lon="9.5768116"><ele>158.0</ele><time>2026-04-04T13:42:29.814Z</time></trkpt><trkpt lat="45.5814842" lon="9.5768554"><ele>158.00000000000003</ele><time>2026-04-04T13:42:30.807Z</time></trkpt><trkpt lat="45.5814218" lon="9.5769038"><ele>158.0</ele><time>2026-04-04T13:42:31.809Z</time></trkpt><trkpt lat="45.5813612" lon="9.5769533"><ele>158.00000000000003</ele><time>2026-04-04T13:42:32.806Z</time></trkpt><trkpt lat="45.5812984" lon="9.5769992"><ele>158.0</ele><time>2026-04-04T13:42:33.814Z</time></trkpt><trkpt lat="45.5812365" lon="9.5770468"><ele>158.0</ele><time>2026-04-04T13:42:34.808Z</time></trkpt><trkpt lat="45.5811747" lon="9.5770902"><ele>158.0</ele><time>2026-04-04T13:42:35.812Z</time></trkpt><trkpt lat="45.5811121" lon="9.5771382"><ele>158.0</ele><time>2026-04-04T13:42:36.816Z</time></trkpt><trkpt lat="45.5810519" lon="9.5771843"><ele>158.00000000000003</ele><time>2026-04-04T13:42:37.809Z</time></trkpt><trkpt lat="45.5809916" lon="9.577229"><ele>158.0</ele><time>2026-04-04T13:42:38.807Z</time></trkpt><trkpt lat="45.580929" lon="9.5772754"><ele>157.71428571428572</ele><time>2026-04-04T13:42:39.805Z</time></trkpt><trkpt lat="45.5808677" lon="9.5773195"><ele>157.42857142857144</ele><time>2026-04-04T13:42:40.808Z</time></trkpt><trkpt lat="45.5808052" lon="9.5773669"><ele>157.14285714285717</ele><time>2026-04-04T13:42:41.808Z</time></trkpt><trkpt lat="45.5807419" lon="9.5774074"><ele>156.85714285714286</ele><time>2026-04-04T13:42:42.807Z</time></trkpt><trkpt lat="45.5806797" lon="9.5774484"><ele>156.57142857142856</ele><time>2026-04-04T13:42:43.806Z</time></trkpt><trkpt lat="45.5806139" lon="9.5774972"><ele>156.2857142857143</ele><time>2026-04-04T13:42:44.805Z</time></trkpt><trkpt lat="45.5805473" lon="9.5775413"><ele>156.0</ele><time>2026-04-04T13:42:45.812Z</time></trkpt><trkpt lat="45.5804861" lon="9.5775915"><ele>156.0</ele><time>2026-04-04T13:42:46.806Z</time></trkpt><trkpt lat="45.5804223" lon="9.5776399"><ele>156.0</ele><time>2026-04-04T13:42:47.808Z</time></trkpt><trkpt lat="45.5803591" lon="9.577687"><ele>156.0</ele><time>2026-04-04T13:42:48.809Z</time></trkpt><trkpt lat="45.5802901" lon="9.5777333"><ele>156.0</ele><time>2026-04-04T13:42:49.811Z</time></trkpt><trkpt lat="45.5802215" lon="9.5777814"><ele>156.0</ele><time>2026-04-04T13:42:50.813Z</time></trkpt><trkpt lat="45.5801551" lon="9.5778334"><ele>156.0</ele><time>2026-04-04T13:42:51.815Z</time></trkpt><trkpt lat="45.5800831" lon="9.5778839"><ele>156.0</ele><time>2026-04-04T13:42:52.823Z</time></trkpt><trkpt lat="45.5800138" lon="9.5779331"><ele>156.0</ele><time>2026-04-04T13:42:53.808Z</time></trkpt><trkpt lat="45.5799433" lon="9.5779777"><ele>156.0</ele><time>2026-04-04T13:42:54.808Z</time></trkpt><trkpt lat="45.579876" lon="9.5780231"><ele>156.0</ele><time>2026-04-04T13:42:55.809Z</time></trkpt><trkpt lat="45.5798069" lon="9.5780724"><ele>156.0</ele><time>2026-04-04T13:42:56.809Z</time></trkpt><trkpt lat="45.5797415" lon="9.5781155"><ele>156.0</ele><time>2026-04-04T13:42:57.812Z</time></trkpt><trkpt lat="45.5796733" lon="9.5781634"><ele>156.0</ele><time>2026-04-04T13:42:58.813Z</time></trkpt><trkpt lat="45.5796077" lon="9.5782108"><ele>156.0</ele><time>2026-04-04T13:42:59.811Z</time></trkpt><trkpt lat="45.5795403" lon="9.578252"><ele>156.0</ele><time>2026-04-04T13:43:00.806Z</time></trkpt><trkpt lat="45.5794776" lon="9.5782981"><ele>156.0</ele><time>2026-04-04T13:43:01.811Z</time></trkpt><trkpt lat="45.5794139" lon="9.5783495"><ele>156.0</ele><time>2026-04-04T13:43:02.809Z</time></trkpt><trkpt lat="45.5793488" lon="9.5783935"><ele>156.0</ele><time>2026-04-04T13:43:03.806Z</time></trkpt><trkpt lat="45.5792818" lon="9.5784385"><ele>156.0</ele><time>2026-04-04T13:43:04.808Z</time></trkpt><trkpt lat="45.5792107" lon="9.5784859"><ele>156.0</ele><time>2026-04-04T13:43:05.805Z</time></trkpt><trkpt lat="45.5791443" lon="9.578528"><ele>156.0</ele><time>2026-04-04T13:43:06.81Z</time></trkpt><trkpt lat="45.5790754" lon="9.5785722"><ele>156.0</ele><time>2026-04-04T13:43:07.811Z</time></trkpt><trkpt lat="45.5790114" lon="9.5786192"><ele>156.0</ele><time>2026-04-04T13:43:08.81Z</time></trkpt><trkpt lat="45.5789424" lon="9.5786728"><ele>156.0</ele><time>2026-04-04T13:43:09.817Z</time></trkpt><trkpt lat="45.5788784" lon="9.5787183"><ele>156.0</ele><time>2026-04-04T13:43:10.812Z</time></trkpt><trkpt lat="45.5788095" lon="9.5787548"><ele>156.0</ele><time>2026-04-04T13:43:11.808Z</time></trkpt><trkpt lat="45.578736" lon="9.5788004"><ele>155.66666666666666</ele><time>2026-04-04T13:43:12.812Z</time></trkpt><trkpt lat="45.5786694" lon="9.5788402"><ele>155.33333333333334</ele><time>2026-04-04T13:43:13.807Z</time></trkpt><trkpt lat="45.5785944" lon="9.5788797"><ele>155.0</ele><time>2026-04-04T13:43:14.808Z</time></trkpt><trkpt lat="45.5785235" lon="9.5789246"><ele>154.66666666666669</ele><time>2026-04-04T13:43:15.814Z</time></trkpt><trkpt lat="45.5784463" lon="9.5789621"><ele>154.33333333333334</ele><time>2026-04-04T13:43:16.817Z</time></trkpt><trkpt lat="45.5783746" lon="9.5789955"><ele>154.0</ele><time>2026-04-04T13:43:17.81Z</time></trkpt><trkpt lat="45.5782978" lon="9.5790254"><ele>154.0</ele><time>2026-04-04T13:43:18.817Z</time></trkpt><trkpt lat="45.5782251" lon="9.5790647"><ele>154.0</ele><time>2026-04-04T13:43:19.813Z</time></trkpt><trkpt lat="45.5781505" lon="9.5790923"><ele>154.0</ele><time>2026-04-04T13:43:20.814Z</time></trkpt><trkpt lat="45.5780771" lon="9.5791272"><ele>154.0</ele><time>2026-04-04T13:43:21.811Z</time></trkpt><trkpt lat="45.5780067" lon="9.579159"><ele>154.0</ele><time>2026-04-04T13:43:22.814Z</time></trkpt><trkpt lat="45.5779335" lon="9.5791943"><ele>154.0</ele><time>2026-04-04T13:43:23.818Z</time></trkpt><trkpt lat="45.577862" lon="9.579229"><ele>154.33333333333334</ele><time>2026-04-04T13:43:24.816Z</time></trkpt><trkpt lat="45.57779" lon="9.5792641"><ele>154.66666666666669</ele><time>2026-04-04T13:43:25.812Z</time></trkpt><trkpt lat="45.5777218" lon="9.5792978"><ele>155.0</ele><time>2026-04-04T13:43:26.809Z</time></trkpt><trkpt lat="45.577645" lon="9.5793336"><ele>155.33333333333334</ele><time>2026-04-04T13:43:27.813Z</time></trkpt><trkpt lat="45.5775727" lon="9.5793649"><ele>155.66666666666666</ele><time>2026-04-04T13:43:28.81Z</time></trkpt><trkpt lat="45.5775039" lon="9.5793985"><ele>156.0</ele><time>2026-04-04T13:43:29.807Z</time></trkpt><trkpt lat="45.577432" lon="9.5794338"><ele>156.0</ele><time>2026-04-04T13:43:30.815Z</time></trkpt><trkpt lat="45.5773649" lon="9.5794631"><ele>156.0</ele><time>2026-04-04T13:43:31.808Z</time></trkpt><trkpt lat="45.5772983" lon="9.5794939"><ele>156.0</ele><time>2026-04-04T13:43:32.812Z</time></trkpt><trkpt lat="45.5772311" lon="9.5795218"><ele>156.0</ele><time>2026-04-04T13:43:33.809Z</time></trkpt><trkpt lat="45.5771557" lon="9.5795511"><ele>156.0</ele><time>2026-04-04T13:43:34.805Z</time></trkpt><trkpt lat="45.5770829" lon="9.5795823"><ele>156.0</ele><time>2026-04-04T13:43:35.814Z</time></trkpt><trkpt lat="45.5770119" lon="9.5796112"><ele>156.0</ele><time>2026-04-04T13:43:36.815Z</time></trkpt><trkpt lat="45.5769442" lon="9.5796408"><ele>155.71428571428572</ele><time>2026-04-04T13:43:37.81Z</time></trkpt><trkpt lat="45.5768729" lon="9.579672"><ele>155.42857142857142</ele><time>2026-04-04T13:43:38.805Z</time></trkpt><trkpt lat="45.5768056" lon="9.5797028"><ele>155.14285714285714</ele><time>2026-04-04T13:43:39.809Z</time></trkpt><trkpt lat="45.5767376" lon="9.5797361"><ele>154.85714285714286</ele><time>2026-04-04T13:43:40.808Z</time></trkpt><trkpt lat="45.5766735" lon="9.5797697"><ele>154.57142857142856</ele><time>2026-04-04T13:43:41.81Z</time></trkpt><trkpt lat="45.576603" lon="9.5797957"><ele>154.28571428571428</ele><time>2026-04-04T13:43:42.818Z</time></trkpt><trkpt lat="45.5765313" lon="9.5798227"><ele>154.0</ele><time>2026-04-04T13:43:43.805Z</time></trkpt><trkpt lat="45.576464" lon="9.5798515"><ele>154.0</ele><time>2026-04-04T13:43:44.811Z</time></trkpt><trkpt lat="45.5763891" lon="9.5798797"><ele>154.0</ele><time>2026-04-04T13:43:45.808Z</time></trkpt><trkpt lat="45.576317" lon="9.5799061"><ele>154.0</ele><time>2026-04-04T13:43:46.81Z</time></trkpt><trkpt lat="45.5762496" lon="9.5799304"><ele>154.0</ele><time>2026-04-04T13:43:47.811Z</time></trkpt><trkpt lat="45.5761774" lon="9.5799547"><ele>154.0</ele><time>2026-04-04T13:43:48.81Z</time></trkpt><trkpt lat="45.5761087" lon="9.5799794"><ele>154.0</ele><time>2026-04-04T13:43:49.81Z</time></trkpt><trkpt lat="45.5760377" lon="9.5800018"><ele>154.0</ele><time>2026-04-04T13:43:50.806Z</time></trkpt><trkpt lat="45.5759647" lon="9.5800345"><ele>153.71428571428572</ele><time>2026-04-04T13:43:51.811Z</time></trkpt><trkpt lat="45.5758951" lon="9.5800638"><ele>153.42857142857144</ele><time>2026-04-04T13:43:52.809Z</time></trkpt><trkpt lat="45.5758204" lon="9.5800946"><ele>153.14285714285714</ele><time>2026-04-04T13:43:53.812Z</time></trkpt><trkpt lat="45.5757529" lon="9.5801221"><ele>152.85714285714286</ele><time>2026-04-04T13:43:54.812Z</time></trkpt><trkpt lat="45.5756813" lon="9.5801474"><ele>152.57142857142858</ele><time>2026-04-04T13:43:55.809Z</time></trkpt><trkpt lat="45.5756114" lon="9.5801679"><ele>152.28571428571428</ele><time>2026-04-04T13:43:56.81Z</time></trkpt><trkpt lat="45.5755385" lon="9.5801939"><ele>152.0</ele><time>2026-04-04T13:43:57.809Z</time></trkpt><trkpt lat="45.5754717" lon="9.5802136"><ele>152.0</ele><time>2026-04-04T13:43:58.805Z</time></trkpt><trkpt lat="45.5753965" lon="9.580231"><ele>152.0</ele><time>2026-04-04T13:43:59.807Z</time></trkpt><trkpt lat="45.575326" lon="9.5802632"><ele>152.0</ele><time>2026-04-04T13:44:00.81Z</time></trkpt><trkpt lat="45.5752513" lon="9.5802865"><ele>152.0</ele><time>2026-04-04T13:44:01.806Z</time></trkpt><trkpt lat="45.5751769" lon="9.5803125"><ele>152.0</ele><time>2026-04-04T13:44:02.814Z</time></trkpt><trkpt lat="45.5751086" lon="9.5803355"><ele>152.0</ele><time>2026-04-04T13:44:03.806Z</time></trkpt><trkpt lat="45.5750377" lon="9.580363"><ele>152.0</ele><time>2026-04-04T13:44:04.808Z</time></trkpt><trkpt lat="45.5749661" lon="9.5803877"><ele>152.14285714285714</ele><time>2026-04-04T13:44:05.812Z</time></trkpt><trkpt lat="45.5748964" lon="9.580416"><ele>152.2857142857143</ele><time>2026-04-04T13:44:06.816Z</time></trkpt><trkpt lat="45.5748232" lon="9.580447"><ele>152.42857142857144</ele><time>2026-04-04T13:44:07.808Z</time></trkpt><trkpt lat="45.5747518" lon="9.5804747"><ele>152.57142857142856</ele><time>2026-04-04T13:44:08.809Z</time></trkpt><trkpt lat="45.5746757" lon="9.5805013"><ele>152.71428571428572</ele><time>2026-04-04T13:44:09.81Z</time></trkpt><trkpt lat="45.5746054" lon="9.5805262"><ele>152.85714285714286</ele><time>2026-04-04T13:44:10.817Z</time></trkpt><trkpt lat="45.5745346" lon="9.5805529"><ele>153.0</ele><time>2026-04-04T13:44:11.807Z</time></trkpt><trkpt lat="45.5744613" lon="9.5805806"><ele>153.16666666666666</ele><time>2026-04-04T13:44:12.81Z</time></trkpt><trkpt lat="45.5743865" lon="9.5806023"><ele>153.33333333333334</ele><time>2026-04-04T13:44:13.806Z</time></trkpt><trkpt lat="45.5743129" lon="9.5806301"><ele>153.5</ele><time>2026-04-04T13:44:14.808Z</time></trkpt><trkpt lat="45.5742422" lon="9.5806654"><ele>153.66666666666669</ele><time>2026-04-04T13:44:15.811Z</time></trkpt><trkpt lat="45.5741699" lon="9.5806909"><ele>153.83333333333334</ele><time>2026-04-04T13:44:16.817Z</time></trkpt><trkpt lat="45.5741006" lon="9.5807175"><ele>154.0</ele><time>2026-04-04T13:44:17.82Z</time></trkpt><trkpt lat="45.5740272" lon="9.5807471"><ele>154.0</ele><time>2026-04-04T13:44:18.81Z</time></trkpt><trkpt lat="45.5739578" lon="9.5807764"><ele>154.0</ele><time>2026-04-04T13:44:19.815Z</time></trkpt><trkpt lat="45.573885" lon="9.5808019"><ele>154.0</ele><time>2026-04-04T13:44:20.807Z</time></trkpt><trkpt lat="45.573812" lon="9.5808296"><ele>154.0</ele><time>2026-04-04T13:44:21.81Z</time></trkpt><trkpt lat="45.5737414" lon="9.5808632"><ele>154.0</ele><time>2026-04-04T13:44:22.823Z</time></trkpt><trkpt lat="45.5736672" lon="9.5808859"><ele>154.0</ele><time>2026-04-04T13:44:23.814Z</time></trkpt><trkpt lat="45.5735936" lon="9.5809101"><ele>154.0</ele><time>2026-04-04T13:44:24.814Z</time></trkpt><trkpt lat="45.57352" lon="9.5809374"><ele>154.0</ele><time>2026-04-04T13:44:25.808Z</time></trkpt><trkpt lat="45.5734477" lon="9.5809633"><ele>154.0</ele><time>2026-04-04T13:44:26.81Z</time></trkpt><trkpt lat="45.5733704" lon="9.5809888"><ele>154.0</ele><time>2026-04-04T13:44:27.81Z</time></trkpt><trkpt lat="45.5732973" lon="9.5810164"><ele>154.0</ele><time>2026-04-04T13:44:28.808Z</time></trkpt><trkpt lat="45.5732227" lon="9.581047"><ele>154.0</ele><time>2026-04-04T13:44:29.81Z</time></trkpt><trkpt lat="45.573145" lon="9.5810731"><ele>154.0</ele><time>2026-04-04T13:44:30.816Z</time></trkpt><trkpt lat="45.5730698" lon="9.5811005"><ele>154.0</ele><time>2026-04-04T13:44:31.817Z</time></trkpt><trkpt lat="45.5729957" lon="9.5811317"><ele>154.0</ele><time>2026-04-04T13:44:32.812Z</time></trkpt><trkpt lat="45.5729215" lon="9.5811618"><ele>154.0</ele><time>2026-04-04T13:44:33.811Z</time></trkpt><trkpt lat="45.5728453" lon="9.5811891"><ele>154.0</ele><time>2026-04-04T13:44:34.809Z</time></trkpt><trkpt lat="45.5727715" lon="9.5812173"><ele>154.0</ele><time>2026-04-04T13:44:35.807Z</time></trkpt><trkpt lat="45.5726941" lon="9.5812474"><ele>154.0</ele><time>2026-04-04T13:44:36.817Z</time></trkpt><trkpt lat="45.5726149" lon="9.5812752"><ele>153.5</ele><time>2026-04-04T13:44:37.809Z</time></trkpt><trkpt lat="45.5725411" lon="9.5813034"><ele>153.0</ele><time>2026-04-04T13:44:38.808Z</time></trkpt><trkpt lat="45.5724688" lon="9.5813376"><ele>152.5</ele><time>2026-04-04T13:44:39.809Z</time></trkpt><trkpt lat="45.5723907" lon="9.5813655"><ele>152.0</ele><time>2026-04-04T13:44:40.809Z</time></trkpt><trkpt lat="45.5723174" lon="9.5813975"><ele>151.5</ele><time>2026-04-04T13:44:41.808Z</time></trkpt><trkpt lat="45.5722397" lon="9.5814225"><ele>151.0</ele><time>2026-04-04T13:44:42.811Z</time></trkpt><trkpt lat="45.5721622" lon="9.581452"><ele>151.0</ele><time>2026-04-04T13:44:43.818Z</time></trkpt><trkpt lat="45.5720834" lon="9.581478"><ele>151.0</ele><time>2026-04-04T13:44:44.805Z</time></trkpt><trkpt lat="45.5720062" lon="9.5815053"><ele>151.0</ele><time>2026-04-04T13:44:45.81Z</time></trkpt><trkpt lat="45.571932" lon="9.5815382"><ele>151.0</ele><time>2026-04-04T13:44:46.812Z</time></trkpt><trkpt lat="45.5718526" lon="9.5815665"><ele>151.0</ele><time>2026-04-04T13:44:47.807Z</time></trkpt><trkpt lat="45.5717678" lon="9.5815981"><ele>151.0</ele><time>2026-04-04T13:44:48.812Z</time></trkpt><trkpt lat="45.5716882" lon="9.5816267"><ele>150.83333333333334</ele><time>2026-04-04T13:44:49.806Z</time></trkpt><trkpt lat="45.5716128" lon="9.5816572"><ele>150.66666666666669</ele><time>2026-04-04T13:44:50.807Z</time></trkpt><trkpt lat="45.5715349" lon="9.5816892"><ele>150.5</ele><time>2026-04-04T13:44:51.808Z</time></trkpt><trkpt lat="45.5714608" lon="9.5817221"><ele>150.33333333333334</ele><time>2026-04-04T13:44:52.817Z</time></trkpt><trkpt lat="45.571384" lon="9.5817541"><ele>150.16666666666666</ele><time>2026-04-04T13:44:53.809Z</time></trkpt><trkpt lat="45.5713073" lon="9.5817804"><ele>150.0</ele><time>2026-04-04T13:44:54.807Z</time></trkpt><trkpt lat="45.5712295" lon="9.5818057"><ele>149.83333333333334</ele><time>2026-04-04T13:44:55.805Z</time></trkpt><trkpt lat="45.5711547" lon="9.5818318"><ele>149.66666666666666</ele><time>2026-04-04T13:44:56.806Z</time></trkpt><trkpt lat="45.571078" lon="9.5818565"><ele>149.5</ele><time>2026-04-04T13:44:57.806Z</time></trkpt><trkpt lat="45.571003" lon="9.5818755"><ele>149.33333333333331</ele><time>2026-04-04T13:44:58.808Z</time></trkpt><trkpt lat="45.570927" lon="9.5818948"><ele>149.16666666666666</ele><time>2026-04-04T13:44:59.811Z</time></trkpt><trkpt lat="45.5708533" lon="9.581906"><ele>149.0</ele><time>2026-04-04T13:45:00.806Z</time></trkpt><trkpt lat="45.5707797" lon="9.5819189"><ele>149.0</ele><time>2026-04-04T13:45:01.811Z</time></trkpt><trkpt lat="45.5707105" lon="9.581918"><ele>149.0</ele><time>2026-04-04T13:45:02.809Z</time></trkpt><trkpt lat="45.5706453" lon="9.5819036"><ele>149.0</ele><time>2026-04-04T13:45:03.806Z</time></trkpt><trkpt lat="45.5705381" lon="9.5818609"><ele>149.0</ele><time>2026-04-04T13:45:05.807Z</time></trkpt><trkpt lat="45.5704367" lon="9.5818241"><ele>149.0</ele><time>2026-04-04T13:45:07.808Z</time></trkpt><trkpt lat="45.5703256" lon="9.5818714"><ele>148.66666666666666</ele><time>2026-04-04T13:45:09.805Z</time></trkpt><trkpt lat="45.5702018" lon="9.5819234"><ele>148.33333333333331</ele><time>2026-04-04T13:45:11.806Z</time></trkpt><trkpt lat="45.5701325" lon="9.5819486"><ele>148.0</ele><time>2026-04-04T13:45:12.807Z</time></trkpt><trkpt lat="45.5700609" lon="9.5819652"><ele>147.66666666666666</ele><time>2026-04-04T13:45:13.807Z</time></trkpt><trkpt lat="45.5699898" lon="9.5819776"><ele>147.33333333333334</ele><time>2026-04-04T13:45:14.808Z</time></trkpt><trkpt lat="45.5699146" lon="9.5819842"><ele>147.0</ele><time>2026-04-04T13:45:15.808Z</time></trkpt><trkpt lat="45.5698399" lon="9.5819919"><ele>147.0</ele><time>2026-04-04T13:45:16.811Z</time></trkpt><trkpt lat="45.5697649" lon="9.5819968"><ele>147.0</ele><time>2026-04-04T13:45:17.808Z</time></trkpt><trkpt lat="45.5696863" lon="9.5820012"><ele>147.0</ele><time>2026-04-04T13:45:18.817Z</time></trkpt><trkpt lat="45.5696121" lon="9.5820127"><ele>147.0</ele><time>2026-04-04T13:45:19.814Z</time></trkpt><trkpt lat="45.5695347" lon="9.5820211"><ele>147.0</ele><time>2026-04-04T13:45:20.807Z</time></trkpt><trkpt lat="45.5694562" lon="9.5820323"><ele>147.0</ele><time>2026-04-04T13:45:21.807Z</time></trkpt><trkpt lat="45.5693778" lon="9.5820393"><ele>147.33333333333334</ele><time>2026-04-04T13:45:22.814Z</time></trkpt><trkpt lat="45.5693005" lon="9.5820495"><ele>147.66666666666666</ele><time>2026-04-04T13:45:23.813Z</time></trkpt><trkpt lat="45.5692203" lon="9.5820585"><ele>148.0</ele><time>2026-04-04T13:45:24.816Z</time></trkpt><trkpt lat="45.5691428" lon="9.5820674"><ele>148.33333333333331</ele><time>2026-04-04T13:45:25.806Z</time></trkpt><trkpt lat="45.5690616" lon="9.5820747"><ele>148.66666666666666</ele><time>2026-04-04T13:45:26.808Z</time></trkpt><trkpt lat="45.5689812" lon="9.5820876"><ele>149.0</ele><time>2026-04-04T13:45:27.813Z</time></trkpt><trkpt lat="45.5688996" lon="9.5820972"><ele>149.0</ele><time>2026-04-04T13:45:28.814Z</time></trkpt><trkpt lat="45.5688179" lon="9.5821117"><ele>149.0</ele><time>2026-04-04T13:45:29.81Z</time></trkpt><trkpt lat="45.5687347" lon="9.5821252"><ele>149.0</ele><time>2026-04-04T13:45:30.81Z</time></trkpt><trkpt lat="45.5686546" lon="9.5821475"><ele>149.0</ele><time>2026-04-04T13:45:31.807Z</time></trkpt><trkpt lat="45.5685755" lon="9.5821686"><ele>149.0</ele><time>2026-04-04T13:45:32.808Z</time></trkpt><trkpt lat="45.5684948" lon="9.5821935"><ele>149.0</ele><time>2026-04-04T13:45:33.815Z</time></trkpt><trkpt lat="45.5684144" lon="9.5822133"><ele>148.83333333333331</ele><time>2026-04-04T13:45:34.808Z</time></trkpt><trkpt lat="45.5683333" lon="9.5822364"><ele>148.66666666666666</ele><time>2026-04-04T13:45:35.81Z</time></trkpt><trkpt lat="45.5682538" lon="9.5822605"><ele>148.5</ele><time>2026-04-04T13:45:36.813Z</time></trkpt><trkpt lat="45.5681734" lon="9.5822824"><ele>148.33333333333334</ele><time>2026-04-04T13:45:37.815Z</time></trkpt><trkpt lat="45.5680916" lon="9.5823073"><ele>148.16666666666669</ele><time>2026-04-04T13:45:38.807Z</time></trkpt><trkpt lat="45.5680139" lon="9.5823309"><ele>148.0</ele><time>2026-04-04T13:45:39.809Z</time></trkpt><trkpt lat="45.5679388" lon="9.5823519"><ele>148.0</ele><time>2026-04-04T13:45:40.81Z</time></trkpt><trkpt lat="45.5678607" lon="9.5823736"><ele>148.0</ele><time>2026-04-04T13:45:41.81Z</time></trkpt><trkpt lat="45.5677783" lon="9.5823955"><ele>148.0</ele><time>2026-04-04T13:45:42.813Z</time></trkpt><trkpt lat="45.5677004" lon="9.5824225"><ele>148.0</ele><time>2026-04-04T13:45:43.807Z</time></trkpt><trkpt lat="45.5676263" lon="9.5824496"><ele>148.0</ele><time>2026-04-04T13:45:44.812Z</time></trkpt><trkpt lat="45.5675539" lon="9.5824689"><ele>148.0</ele><time>2026-04-04T13:45:45.81Z</time></trkpt><trkpt lat="45.5674844" lon="9.5824895"><ele>148.14285714285714</ele><time>2026-04-04T13:45:46.811Z</time></trkpt><trkpt lat="45.5674183" lon="9.5825145"><ele>148.28571428571428</ele><time>2026-04-04T13:45:47.815Z</time></trkpt><trkpt lat="45.5673475" lon="9.5825292"><ele>148.42857142857142</ele><time>2026-04-04T13:45:48.805Z</time></trkpt><trkpt lat="45.5672736" lon="9.582545"><ele>148.57142857142856</ele><time>2026-04-04T13:45:49.809Z</time></trkpt><trkpt lat="45.5671963" lon="9.5825602"><ele>148.7142857142857</ele><time>2026-04-04T13:45:50.807Z</time></trkpt><trkpt lat="45.5671217" lon="9.5825822"><ele>148.85714285714286</ele><time>2026-04-04T13:45:51.814Z</time></trkpt><trkpt lat="45.5670459" lon="9.5826037"><ele>149.0</ele><time>2026-04-04T13:45:52.81Z</time></trkpt><trkpt lat="45.5669684" lon="9.5826261"><ele>149.0</ele><time>2026-04-04T13:45:53.81Z</time></trkpt><trkpt lat="45.5668904" lon="9.5826518"><ele>149.0</ele><time>2026-04-04T13:45:54.811Z</time></trkpt><trkpt lat="45.5668134" lon="9.5826775"><ele>149.0</ele><time>2026-04-04T13:45:55.809Z</time></trkpt><trkpt lat="45.5667379" lon="9.5826996"><ele>149.0</ele><time>2026-04-04T13:45:56.817Z</time></trkpt><trkpt lat="45.5666612" lon="9.5827257"><ele>149.0</ele><time>2026-04-04T13:45:57.816Z</time></trkpt><trkpt lat="45.5665881" lon="9.5827501"><ele>149.0</ele><time>2026-04-04T13:45:58.807Z</time></trkpt><trkpt lat="45.5665135" lon="9.5827722"><ele>149.0</ele><time>2026-04-04T13:45:59.813Z</time></trkpt><trkpt lat="45.5664379" lon="9.5827961"><ele>149.0</ele><time>2026-04-04T13:46:00.807Z</time></trkpt><trkpt lat="45.5663615" lon="9.5828199"><ele>149.0</ele><time>2026-04-04T13:46:01.811Z</time></trkpt><trkpt lat="45.5662861" lon="9.5828446"><ele>149.0</ele><time>2026-04-04T13:46:02.81Z</time></trkpt><trkpt lat="45.5662121" lon="9.5828694"><ele>149.0</ele><time>2026-04-04T13:46:03.815Z</time></trkpt><trkpt lat="45.5661348" lon="9.5828918"><ele>149.0</ele><time>2026-04-04T13:46:04.807Z</time></trkpt><trkpt lat="45.5660577" lon="9.582916"><ele>148.66666666666666</ele><time>2026-04-04T13:46:05.807Z</time></trkpt><trkpt lat="45.5659815" lon="9.5829405"><ele>148.33333333333331</ele><time>2026-04-04T13:46:06.805Z</time></trkpt><trkpt lat="45.5659049" lon="9.5829585"><ele>148.0</ele><time>2026-04-04T13:46:07.809Z</time></trkpt><trkpt lat="45.5658294" lon="9.5829817"><ele>147.66666666666666</ele><time>2026-04-04T13:46:08.803Z</time></trkpt><trkpt lat="45.5657539" lon="9.5830018"><ele>147.33333333333334</ele><time>2026-04-04T13:46:09.811Z</time></trkpt><trkpt lat="45.5656746" lon="9.5830216"><ele>147.0</ele><time>2026-04-04T13:46:10.813Z</time></trkpt><trkpt lat="45.5655962" lon="9.583046"><ele>147.0</ele><time>2026-04-04T13:46:11.806Z</time></trkpt><trkpt lat="45.5655184" lon="9.5830668"><ele>147.0</ele><time>2026-04-04T13:46:12.807Z</time></trkpt><trkpt lat="45.5654409" lon="9.5830871"><ele>147.0</ele><time>2026-04-04T13:46:13.81Z</time></trkpt><trkpt lat="45.5653622" lon="9.5831086"><ele>147.0</ele><time>2026-04-04T13:46:14.809Z</time></trkpt><trkpt lat="45.5652854" lon="9.5831295"><ele>147.0</ele><time>2026-04-04T13:46:15.816Z</time></trkpt><trkpt lat="45.5652098" lon="9.5831557"><ele>147.0</ele><time>2026-04-04T13:46:16.817Z</time></trkpt><trkpt lat="45.565128" lon="9.5831744"><ele>146.83333333333334</ele><time>2026-04-04T13:46:17.816Z</time></trkpt><trkpt lat="45.565048" lon="9.5831958"><ele>146.66666666666666</ele><time>2026-04-04T13:46:18.812Z</time></trkpt><trkpt lat="45.5649695" lon="9.583221"><ele>146.5</ele><time>2026-04-04T13:46:19.813Z</time></trkpt><trkpt lat="45.5648961" lon="9.5832463"><ele>146.33333333333331</ele><time>2026-04-04T13:46:20.807Z</time></trkpt><trkpt lat="45.5648158" lon="9.5832648"><ele>146.16666666666666</ele><time>2026-04-04T13:46:21.807Z</time></trkpt><trkpt lat="45.5647392" lon="9.5832901"><ele>146.0</ele><time>2026-04-04T13:46:22.808Z</time></trkpt><trkpt lat="45.5646597" lon="9.5833157"><ele>146.0</ele><time>2026-04-04T13:46:23.812Z</time></trkpt><trkpt lat="45.5645826" lon="9.5833358"><ele>146.0</ele><time>2026-04-04T13:46:24.808Z</time></trkpt><trkpt lat="45.5645032" lon="9.5833583"><ele>146.0</ele><time>2026-04-04T13:46:25.807Z</time></trkpt><trkpt lat="45.5644206" lon="9.5833829"><ele>146.0</ele><time>2026-04-04T13:46:26.811Z</time></trkpt><trkpt lat="45.5643422" lon="9.583409"><ele>146.0</ele><time>2026-04-04T13:46:27.812Z</time></trkpt><trkpt lat="45.5642615" lon="9.5834301"><ele>146.0</ele><time>2026-04-04T13:46:28.812Z</time></trkpt><trkpt lat="45.5641846" lon="9.5834571"><ele>146.16666666666666</ele><time>2026-04-04T13:46:29.81Z</time></trkpt><trkpt lat="45.5641075" lon="9.5834788"><ele>146.33333333333331</ele><time>2026-04-04T13:46:30.811Z</time></trkpt><trkpt lat="45.5640274" lon="9.5834976"><ele>146.5</ele><time>2026-04-04T13:46:31.805Z</time></trkpt><trkpt lat="45.5639473" lon="9.5835195"><ele>146.66666666666666</ele><time>2026-04-04T13:46:32.807Z</time></trkpt><trkpt lat="45.5638678" lon="9.5835427"><ele>146.83333333333334</ele><time>2026-04-04T13:46:33.811Z</time></trkpt><trkpt lat="45.5637912" lon="9.5835674"><ele>147.0</ele><time>2026-04-04T13:46:34.806Z</time></trkpt><trkpt lat="45.5637106" lon="9.5835872"><ele>146.66666666666666</ele><time>2026-04-04T13:46:35.811Z</time></trkpt><trkpt lat="45.5636297" lon="9.5836138"><ele>146.33333333333334</ele><time>2026-04-04T13:46:36.814Z</time></trkpt><trkpt lat="45.5635462" lon="9.5836374"><ele>146.0</ele><time>2026-04-04T13:46:37.813Z</time></trkpt><trkpt lat="45.5634668" lon="9.5836619"><ele>145.66666666666669</ele><time>2026-04-04T13:46:38.806Z</time></trkpt><trkpt lat="45.5633842" lon="9.5836836"><ele>145.33333333333334</ele><time>2026-04-04T13:46:39.805Z</time></trkpt><trkpt lat="45.5633026" lon="9.5837063"><ele>145.0</ele><time>2026-04-04T13:46:40.814Z</time></trkpt><trkpt lat="45.5632223" lon="9.5837262"><ele>145.0</ele><time>2026-04-04T13:46:41.81Z</time></trkpt><trkpt lat="45.5631388" lon="9.583746"><ele>145.0</ele><time>2026-04-04T13:46:42.809Z</time></trkpt><trkpt lat="45.5630565" lon="9.5837704"><ele>145.0</ele><time>2026-04-04T13:46:43.809Z</time></trkpt><trkpt lat="45.5629761" lon="9.5837884"><ele>145.0</ele><time>2026-04-04T13:46:44.807Z</time></trkpt><trkpt lat="45.5628922" lon="9.5838142"><ele>145.0</ele><time>2026-04-04T13:46:45.806Z</time></trkpt><trkpt lat="45.56281" lon="9.5838381"><ele>145.0</ele><time>2026-04-04T13:46:46.814Z</time></trkpt><trkpt lat="45.5627305" lon="9.5838592"><ele>145.33333333333334</ele><time>2026-04-04T13:46:47.807Z</time></trkpt><trkpt lat="45.5626494" lon="9.5838807"><ele>145.66666666666669</ele><time>2026-04-04T13:46:48.805Z</time></trkpt><trkpt lat="45.5625678" lon="9.5839059"><ele>146.0</ele><time>2026-04-04T13:46:49.805Z</time></trkpt><trkpt lat="45.5624835" lon="9.5839274"><ele>146.33333333333334</ele><time>2026-04-04T13:46:50.816Z</time></trkpt><trkpt lat="45.5624001" lon="9.5839468"><ele>146.66666666666666</ele><time>2026-04-04T13:46:51.816Z</time></trkpt><trkpt lat="45.5623208" lon="9.5839698"><ele>147.0</ele><time>2026-04-04T13:46:52.816Z</time></trkpt><trkpt lat="45.562239" lon="9.5839929"><ele>147.0</ele><time>2026-04-04T13:46:53.81Z</time></trkpt><trkpt lat="45.5621553" lon="9.5840174"><ele>147.0</ele><time>2026-04-04T13:46:54.808Z</time></trkpt><trkpt lat="45.5620738" lon="9.5840422"><ele>147.0</ele><time>2026-04-04T13:46:55.81Z</time></trkpt><trkpt lat="45.5619967" lon="9.5840672"><ele>147.0</ele><time>2026-04-04T13:46:56.807Z</time></trkpt><trkpt lat="45.5619178" lon="9.5840906"><ele>147.0</ele><time>2026-04-04T13:46:57.807Z</time></trkpt><trkpt lat="45.5618352" lon="9.5841136"><ele>147.0</ele><time>2026-04-04T13:46:58.815Z</time></trkpt><trkpt lat="45.5617562" lon="9.5841358"><ele>146.5</ele><time>2026-04-04T13:46:59.806Z</time></trkpt><trkpt lat="45.5616789" lon="9.5841611"><ele>146.0</ele><time>2026-04-04T13:47:00.812Z</time></trkpt><trkpt lat="45.5615975" lon="9.5841778"><ele>145.5</ele><time>2026-04-04T13:47:01.809Z</time></trkpt><trkpt lat="45.5615191" lon="9.5842017"><ele>145.0</ele><time>2026-04-04T13:47:02.806Z</time></trkpt><trkpt lat="45.5614399" lon="9.5842213"><ele>144.5</ele><time>2026-04-04T13:47:03.809Z</time></trkpt><trkpt lat="45.5613617" lon="9.5842447"><ele>144.0</ele><time>2026-04-04T13:47:04.805Z</time></trkpt><trkpt lat="45.5612857" lon="9.584262"><ele>144.0</ele><time>2026-04-04T13:47:05.817Z</time></trkpt><trkpt lat="45.5612079" lon="9.5842732"><ele>144.0</ele><time>2026-04-04T13:47:06.807Z</time></trkpt><trkpt lat="45.5611284" lon="9.584294"><ele>144.0</ele><time>2026-04-04T13:47:07.806Z</time></trkpt><trkpt lat="45.5610519" lon="9.5843098"><ele>144.0</ele><time>2026-04-04T13:47:08.812Z</time></trkpt><trkpt lat="45.5609758" lon="9.584325"><ele>144.0</ele><time>2026-04-04T13:47:09.813Z</time></trkpt><trkpt lat="45.5608973" lon="9.5843374"><ele>144.0</ele><time>2026-04-04T13:47:10.815Z</time></trkpt><trkpt lat="45.5608237" lon="9.5843538"><ele>144.33333333333334</ele><time>2026-04-04T13:47:11.805Z</time></trkpt><trkpt lat="45.5607475" lon="9.5843665"><ele>144.66666666666666</ele><time>2026-04-04T13:47:12.807Z</time></trkpt><trkpt lat="45.560672" lon="9.5843758"><ele>145.0</ele><time>2026-04-04T13:47:13.811Z</time></trkpt><trkpt lat="45.560596" lon="9.5843818"><ele>145.33333333333331</ele><time>2026-04-04T13:47:14.809Z</time></trkpt><trkpt lat="45.5605184" lon="9.5843922"><ele>145.66666666666666</ele><time>2026-04-04T13:47:15.808Z</time></trkpt><trkpt lat="45.5604418" lon="9.5844013"><ele>146.0</ele><time>2026-04-04T13:47:16.81Z</time></trkpt><trkpt lat="45.5603687" lon="9.584402"><ele>145.83333333333331</ele><time>2026-04-04T13:47:17.816Z</time></trkpt><trkpt lat="45.5602906" lon="9.5844077"><ele>145.66666666666666</ele><time>2026-04-04T13:47:18.816Z</time></trkpt><trkpt lat="45.5602156" lon="9.5844143"><ele>145.5</ele><time>2026-04-04T13:47:19.821Z</time></trkpt><trkpt lat="45.5601402" lon="9.5844195"><ele>145.33333333333334</ele><time>2026-04-04T13:47:20.807Z</time></trkpt><trkpt lat="45.5600632" lon="9.5844236"><ele>145.16666666666669</ele><time>2026-04-04T13:47:21.804Z</time></trkpt><trkpt lat="45.5599873" lon="9.5844292"><ele>145.0</ele><time>2026-04-04T13:47:22.808Z</time></trkpt><trkpt lat="45.5599115" lon="9.5844376"><ele>145.0</ele><time>2026-04-04T13:47:23.814Z</time></trkpt><trkpt lat="45.5598353" lon="9.5844427"><ele>145.0</ele><time>2026-04-04T13:47:24.81Z</time></trkpt><trkpt lat="45.5597589" lon="9.5844513"><ele>145.0</ele><time>2026-04-04T13:47:25.806Z</time></trkpt><trkpt lat="45.5596798" lon="9.5844597"><ele>145.0</ele><time>2026-04-04T13:47:26.813Z</time></trkpt><trkpt lat="45.5596031" lon="9.5844738"><ele>145.0</ele><time>2026-04-04T13:47:27.809Z</time></trkpt><trkpt lat="45.5595222" lon="9.5844865"><ele>145.0</ele><time>2026-04-04T13:47:28.812Z</time></trkpt><trkpt lat="45.5594429" lon="9.5845005"><ele>145.0</ele><time>2026-04-04T13:47:29.812Z</time></trkpt><trkpt lat="45.5593627" lon="9.5845174"><ele>145.0</ele><time>2026-04-04T13:47:30.809Z</time></trkpt><trkpt lat="45.5592862" lon="9.584529"><ele>145.0</ele><time>2026-04-04T13:47:31.813Z</time></trkpt><trkpt lat="45.5592074" lon="9.5845387"><ele>145.0</ele><time>2026-04-04T13:47:32.809Z</time></trkpt><trkpt lat="45.5591294" lon="9.5845443"><ele>145.0</ele><time>2026-04-04T13:47:33.809Z</time></trkpt><trkpt lat="45.5590498" lon="9.5845609"><ele>145.0</ele><time>2026-04-04T13:47:34.813Z</time></trkpt><trkpt lat="45.5589692" lon="9.584573"><ele>145.0</ele><time>2026-04-04T13:47:35.814Z</time></trkpt><trkpt lat="45.5588899" lon="9.5845831"><ele>145.0</ele><time>2026-04-04T13:47:36.808Z</time></trkpt><trkpt lat="45.5588117" lon="9.5845978"><ele>145.0</ele><time>2026-04-04T13:47:37.808Z</time></trkpt><trkpt lat="45.5587311" lon="9.5846117"><ele>145.0</ele><time>2026-04-04T13:47:38.807Z</time></trkpt><trkpt lat="45.5586443" lon="9.584628"><ele>145.0</ele><time>2026-04-04T13:47:39.805Z</time></trkpt><trkpt lat="45.5585639" lon="9.584644"><ele>145.0</ele><time>2026-04-04T13:47:40.806Z</time></trkpt><trkpt lat="45.5584829" lon="9.5846638"><ele>144.66666666666669</ele><time>2026-04-04T13:47:41.808Z</time></trkpt><trkpt lat="45.5584032" lon="9.5846787"><ele>144.33333333333334</ele><time>2026-04-04T13:47:42.809Z</time></trkpt><trkpt lat="45.5583236" lon="9.5846927"><ele>144.0</ele><time>2026-04-04T13:47:43.811Z</time></trkpt><trkpt lat="45.5582476" lon="9.5847068"><ele>143.66666666666666</ele><time>2026-04-04T13:47:44.815Z</time></trkpt><trkpt lat="45.5581714" lon="9.5847187"><ele>143.33333333333331</ele><time>2026-04-04T13:47:45.807Z</time></trkpt><trkpt lat="45.5580905" lon="9.5847365"><ele>143.0</ele><time>2026-04-04T13:47:46.808Z</time></trkpt><trkpt lat="45.5580091" lon="9.5847493"><ele>143.0</ele><time>2026-04-04T13:47:47.82Z</time></trkpt><trkpt lat="45.5579268" lon="9.5847633"><ele>143.0</ele><time>2026-04-04T13:47:48.819Z</time></trkpt><trkpt lat="45.5578441" lon="9.5847784"><ele>143.0</ele><time>2026-04-04T13:47:49.811Z</time></trkpt><trkpt lat="45.5577619" lon="9.5847949"><ele>143.0</ele><time>2026-04-04T13:47:50.809Z</time></trkpt><trkpt lat="45.5576802" lon="9.5848088"><ele>143.0</ele><time>2026-04-04T13:47:51.808Z</time></trkpt><trkpt lat="45.5575996" lon="9.5848245"><ele>143.0</ele><time>2026-04-04T13:47:52.807Z</time></trkpt><trkpt lat="45.5575212" lon="9.5848452"><ele>143.0</ele><time>2026-04-04T13:47:53.809Z</time></trkpt><trkpt lat="45.5574412" lon="9.5848583"><ele>143.0</ele><time>2026-04-04T13:47:54.808Z</time></trkpt><trkpt lat="45.5573641" lon="9.5848732"><ele>143.0</ele><time>2026-04-04T13:47:55.814Z</time></trkpt><trkpt lat="45.5572849" lon="9.5848842"><ele>143.0</ele><time>2026-04-04T13:47:56.808Z</time></trkpt><trkpt lat="45.5572015" lon="9.5848992"><ele>143.0</ele><time>2026-04-04T13:47:57.818Z</time></trkpt><trkpt lat="45.5571188" lon="9.5849081"><ele>143.0</ele><time>2026-04-04T13:47:58.809Z</time></trkpt><trkpt lat="45.557038" lon="9.584922"><ele>142.83333333333331</ele><time>2026-04-04T13:47:59.806Z</time></trkpt><trkpt lat="45.5569534" lon="9.5849382"><ele>142.66666666666666</ele><time>2026-04-04T13:48:00.81Z</time></trkpt><trkpt lat="45.5568712" lon="9.5849527"><ele>142.5</ele><time>2026-04-04T13:48:01.812Z</time></trkpt><trkpt lat="45.5567901" lon="9.5849665"><ele>142.33333333333334</ele><time>2026-04-04T13:48:02.809Z</time></trkpt><trkpt lat="45.5567099" lon="9.5849853"><ele>142.16666666666669</ele><time>2026-04-04T13:48:03.815Z</time></trkpt><trkpt lat="45.5566274" lon="9.5850011"><ele>142.0</ele><time>2026-04-04T13:48:04.809Z</time></trkpt><trkpt lat="45.5565465" lon="9.5850191"><ele>142.0</ele><time>2026-04-04T13:48:05.807Z</time></trkpt><trkpt lat="45.5564647" lon="9.5850342"><ele>142.0</ele><time>2026-04-04T13:48:06.807Z</time></trkpt><trkpt lat="45.556384" lon="9.5850491"><ele>142.0</ele><time>2026-04-04T13:48:07.808Z</time></trkpt><trkpt lat="45.5563014" lon="9.5850653"><ele>142.0</ele><time>2026-04-04T13:48:08.82Z</time></trkpt><trkpt lat="45.5562211" lon="9.5850848"><ele>142.0</ele><time>2026-04-04T13:48:09.809Z</time></trkpt><trkpt lat="45.5561384" lon="9.5851006"><ele>142.0</ele><time>2026-04-04T13:48:10.805Z</time></trkpt><trkpt lat="45.5560571" lon="9.5851152"><ele>142.0</ele><time>2026-04-04T13:48:11.812Z</time></trkpt><trkpt lat="45.5559771" lon="9.585128"><ele>142.0</ele><time>2026-04-04T13:48:12.807Z</time></trkpt><trkpt lat="45.5558959" lon="9.5851377"><ele>142.0</ele><time>2026-04-04T13:48:13.812Z</time></trkpt><trkpt lat="45.5558168" lon="9.5851537"><ele>142.0</ele><time>2026-04-04T13:48:14.81Z</time></trkpt><trkpt lat="45.5557382" lon="9.5851686"><ele>142.0</ele><time>2026-04-04T13:48:15.807Z</time></trkpt><trkpt lat="45.5556596" lon="9.5851868"><ele>142.0</ele><time>2026-04-04T13:48:16.813Z</time></trkpt><trkpt lat="45.5555813" lon="9.5852062"><ele>142.0</ele><time>2026-04-04T13:48:17.805Z</time></trkpt><trkpt lat="45.5555003" lon="9.5852227"><ele>142.0</ele><time>2026-04-04T13:48:18.814Z</time></trkpt><trkpt lat="45.5554186" lon="9.5852436"><ele>142.0</ele><time>2026-04-04T13:48:19.812Z</time></trkpt><trkpt lat="45.5553393" lon="9.5852643"><ele>142.0</ele><time>2026-04-04T13:48:20.809Z</time></trkpt><trkpt lat="45.5552619" lon="9.5852836"><ele>142.0</ele><time>2026-04-04T13:48:21.809Z</time></trkpt><trkpt lat="45.5551798" lon="9.5853021"><ele>142.0</ele><time>2026-04-04T13:48:22.81Z</time></trkpt><trkpt lat="45.5550977" lon="9.585317"><ele>141.83333333333334</ele><time>2026-04-04T13:48:23.81Z</time></trkpt><trkpt lat="45.5550134" lon="9.5853375"><ele>141.66666666666669</ele><time>2026-04-04T13:48:24.809Z</time></trkpt><trkpt lat="45.5549318" lon="9.5853547"><ele>141.5</ele><time>2026-04-04T13:48:25.815Z</time></trkpt><trkpt lat="45.5548484" lon="9.585376"><ele>141.33333333333334</ele><time>2026-04-04T13:48:26.806Z</time></trkpt><trkpt lat="45.5547667" lon="9.5853936"><ele>141.16666666666666</ele><time>2026-04-04T13:48:27.81Z</time></trkpt><trkpt lat="45.5546837" lon="9.5854145"><ele>141.0</ele><time>2026-04-04T13:48:28.811Z</time></trkpt><trkpt lat="45.554602" lon="9.5854344"><ele>141.33333333333334</ele><time>2026-04-04T13:48:29.809Z</time></trkpt><trkpt lat="45.5545189" lon="9.585447"><ele>141.66666666666666</ele><time>2026-04-04T13:48:30.811Z</time></trkpt><trkpt lat="45.5544419" lon="9.5854648"><ele>142.0</ele><time>2026-04-04T13:48:31.808Z</time></trkpt><trkpt lat="45.5543588" lon="9.5854829"><ele>142.33333333333331</ele><time>2026-04-04T13:48:32.804Z</time></trkpt><trkpt lat="45.5542803" lon="9.5855018"><ele>142.66666666666666</ele><time>2026-04-04T13:48:33.807Z</time></trkpt><trkpt lat="45.5541969" lon="9.5855175"><ele>143.0</ele><time>2026-04-04T13:48:34.81Z</time></trkpt><trkpt lat="45.5541143" lon="9.5855338"><ele>143.0</ele><time>2026-04-04T13:48:35.816Z</time></trkpt><trkpt lat="45.5540358" lon="9.5855494"><ele>143.0</ele><time>2026-04-04T13:48:36.812Z</time></trkpt><trkpt lat="45.5539572" lon="9.5855674"><ele>143.0</ele><time>2026-04-04T13:48:37.81Z</time></trkpt><trkpt lat="45.5538806" lon="9.5855872"><ele>143.0</ele><time>2026-04-04T13:48:38.811Z</time></trkpt><trkpt lat="45.5538017" lon="9.5856066"><ele>143.0</ele><time>2026-04-04T13:48:39.806Z</time></trkpt><trkpt lat="45.5537185" lon="9.5856216"><ele>143.0</ele><time>2026-04-04T13:48:40.811Z</time></trkpt><trkpt lat="45.5536403" lon="9.5856386"><ele>142.83333333333331</ele><time>2026-04-04T13:48:41.813Z</time></trkpt><trkpt lat="45.5535633" lon="9.5856586"><ele>142.66666666666666</ele><time>2026-04-04T13:48:42.81Z</time></trkpt><trkpt lat="45.5534869" lon="9.5856841"><ele>142.5</ele><time>2026-04-04T13:48:43.825Z</time></trkpt><trkpt lat="45.5534117" lon="9.5857132"><ele>142.33333333333334</ele><time>2026-04-04T13:48:44.811Z</time></trkpt><trkpt lat="45.5533353" lon="9.5857403"><ele>142.16666666666669</ele><time>2026-04-04T13:48:45.815Z</time></trkpt><trkpt lat="45.5532585" lon="9.5857658"><ele>142.0</ele><time>2026-04-04T13:48:46.812Z</time></trkpt><trkpt lat="45.5531861" lon="9.5857971"><ele>142.0</ele><time>2026-04-04T13:48:47.808Z</time></trkpt><trkpt lat="45.5531142" lon="9.5858333"><ele>142.0</ele><time>2026-04-04T13:48:48.81Z</time></trkpt><trkpt lat="45.5530387" lon="9.5858702"><ele>142.0</ele><time>2026-04-04T13:48:49.817Z</time></trkpt><trkpt lat="45.5529663" lon="9.585908"><ele>142.0</ele><time>2026-04-04T13:48:50.817Z</time></trkpt><trkpt lat="45.5528916" lon="9.5859441"><ele>142.0</ele><time>2026-04-04T13:48:51.818Z</time></trkpt><trkpt lat="45.5528164" lon="9.5859862"><ele>142.0</ele><time>2026-04-04T13:48:52.811Z</time></trkpt><trkpt lat="45.5527435" lon="9.5860342"><ele>141.66666666666669</ele><time>2026-04-04T13:48:53.807Z</time></trkpt><trkpt lat="45.5526707" lon="9.5860787"><ele>141.33333333333334</ele><time>2026-04-04T13:48:54.807Z</time></trkpt><trkpt lat="45.5525983" lon="9.5861189"><ele>141.0</ele><time>2026-04-04T13:48:55.815Z</time></trkpt><trkpt lat="45.5525273" lon="9.5861576"><ele>140.66666666666666</ele><time>2026-04-04T13:48:56.807Z</time></trkpt><trkpt lat="45.5524602" lon="9.5862039"><ele>140.33333333333331</ele><time>2026-04-04T13:48:57.818Z</time></trkpt><trkpt lat="45.5523895" lon="9.5862478"><ele>140.0</ele><time>2026-04-04T13:48:58.811Z</time></trkpt><trkpt lat="45.5523154" lon="9.5862901"><ele>140.0</ele><time>2026-04-04T13:48:59.811Z</time></trkpt><trkpt lat="45.5522449" lon="9.5863376"><ele>140.0</ele><time>2026-04-04T13:49:00.807Z</time></trkpt><trkpt lat="45.5521721" lon="9.5863843"><ele>140.0</ele><time>2026-04-04T13:49:01.807Z</time></trkpt><trkpt lat="45.5521034" lon="9.5864254"><ele>140.0</ele><time>2026-04-04T13:49:02.807Z</time></trkpt><trkpt lat="45.5520316" lon="9.5864616"><ele>140.0</ele><time>2026-04-04T13:49:03.815Z</time></trkpt><trkpt lat="45.5519627" lon="9.5865041"><ele>140.0</ele><time>2026-04-04T13:49:04.812Z</time></trkpt><trkpt lat="45.5518929" lon="9.5865469"><ele>139.66666666666666</ele><time>2026-04-04T13:49:05.804Z</time></trkpt><trkpt lat="45.551826" lon="9.5865918"><ele>139.33333333333331</ele><time>2026-04-04T13:49:06.806Z</time></trkpt><trkpt lat="45.551757" lon="9.5866378"><ele>139.0</ele><time>2026-04-04T13:49:07.814Z</time></trkpt><trkpt lat="45.551689" lon="9.5866808"><ele>138.66666666666666</ele><time>2026-04-04T13:49:08.81Z</time></trkpt><trkpt lat="45.5516176" lon="9.5867274"><ele>138.33333333333334</ele><time>2026-04-04T13:49:09.808Z</time></trkpt><trkpt lat="45.5515468" lon="9.5867666"><ele>138.0</ele><time>2026-04-04T13:49:10.805Z</time></trkpt><trkpt lat="45.551476" lon="9.5868049"><ele>138.0</ele><time>2026-04-04T13:49:11.811Z</time></trkpt><trkpt lat="45.551403" lon="9.5868484"><ele>138.0</ele><time>2026-04-04T13:49:12.808Z</time></trkpt><trkpt lat="45.5513353" lon="9.5868911"><ele>138.0</ele><time>2026-04-04T13:49:13.805Z</time></trkpt><trkpt lat="45.551266" lon="9.5869376"><ele>138.0</ele><time>2026-04-04T13:49:14.807Z</time></trkpt><trkpt lat="45.5511945" lon="9.5869821"><ele>138.0</ele><time>2026-04-04T13:49:15.806Z</time></trkpt><trkpt lat="45.5511245" lon="9.5870238"><ele>138.0</ele><time>2026-04-04T13:49:16.808Z</time></trkpt><trkpt lat="45.5510557" lon="9.587072"><ele>138.0</ele><time>2026-04-04T13:49:17.814Z</time></trkpt><trkpt lat="45.5509852" lon="9.5871198"><ele>138.0</ele><time>2026-04-04T13:49:18.812Z</time></trkpt><trkpt lat="45.5509195" lon="9.5871625"><ele>138.0</ele><time>2026-04-04T13:49:19.808Z</time></trkpt><trkpt lat="45.5508508" lon="9.5872051"><ele>138.0</ele><time>2026-04-04T13:49:20.806Z</time></trkpt><trkpt lat="45.5507814" lon="9.5872449"><ele>138.0</ele><time>2026-04-04T13:49:21.811Z</time></trkpt><trkpt lat="45.550712" lon="9.5872863"><ele>138.0</ele><time>2026-04-04T13:49:22.811Z</time></trkpt><trkpt lat="45.5506432" lon="9.5873283"><ele>138.0</ele><time>2026-04-04T13:49:23.813Z</time></trkpt><trkpt lat="45.5505746" lon="9.5873739"><ele>138.0</ele><time>2026-04-04T13:49:24.816Z</time></trkpt><trkpt lat="45.5505029" lon="9.5874131"><ele>138.0</ele><time>2026-04-04T13:49:25.814Z</time></trkpt><trkpt lat="45.5504311" lon="9.5874589"><ele>138.0</ele><time>2026-04-04T13:49:26.805Z</time></trkpt><trkpt lat="45.5503589" lon="9.5874999"><ele>138.0</ele><time>2026-04-04T13:49:27.806Z</time></trkpt><trkpt lat="45.5502888" lon="9.5875375"><ele>138.0</ele><time>2026-04-04T13:49:28.809Z</time></trkpt><trkpt lat="45.5502171" lon="9.58757"><ele>138.5</ele><time>2026-04-04T13:49:29.807Z</time></trkpt><trkpt lat="45.5501408" lon="9.5876042"><ele>139.0</ele><time>2026-04-04T13:49:30.814Z</time></trkpt><trkpt lat="45.5500666" lon="9.5876275"><ele>139.5</ele><time>2026-04-04T13:49:31.806Z</time></trkpt><trkpt lat="45.5499889" lon="9.5876426"><ele>140.0</ele><time>2026-04-04T13:49:32.805Z</time></trkpt><trkpt lat="45.5499106" lon="9.5876484"><ele>140.5</ele><time>2026-04-04T13:49:33.812Z</time></trkpt><trkpt lat="45.5498312" lon="9.5876415"><ele>141.0</ele><time>2026-04-04T13:49:34.807Z</time></trkpt><trkpt lat="45.549753" lon="9.5876307"><ele>141.0</ele><time>2026-04-04T13:49:35.808Z</time></trkpt><trkpt lat="45.5496744" lon="9.5876085"><ele>141.0</ele><time>2026-04-04T13:49:36.812Z</time></trkpt><trkpt lat="45.5496029" lon="9.5875778"><ele>141.0</ele><time>2026-04-04T13:49:37.806Z</time></trkpt><trkpt lat="45.5495296" lon="9.587535"><ele>141.0</ele><time>2026-04-04T13:49:38.81Z</time></trkpt><trkpt lat="45.5494592" lon="9.5874853"><ele>141.0</ele><time>2026-04-04T13:49:39.805Z</time></trkpt><trkpt lat="45.5493894" lon="9.5874371"><ele>141.0</ele><time>2026-04-04T13:49:40.807Z</time></trkpt><trkpt lat="45.549317" lon="9.5873812"><ele>140.66666666666666</ele><time>2026-04-04T13:49:41.81Z</time></trkpt><trkpt lat="45.5492444" lon="9.5873246"><ele>140.33333333333334</ele><time>2026-04-04T13:49:42.806Z</time></trkpt><trkpt lat="45.5491757" lon="9.5872693"><ele>140.0</ele><time>2026-04-04T13:49:43.817Z</time></trkpt><trkpt lat="45.5491088" lon="9.5872167"><ele>139.66666666666669</ele><time>2026-04-04T13:49:44.813Z</time></trkpt><trkpt lat="45.5490426" lon="9.5871674"><ele>139.33333333333334</ele><time>2026-04-04T13:49:45.808Z</time></trkpt><trkpt lat="45.5489723" lon="9.5871171"><ele>139.0</ele><time>2026-04-04T13:49:46.811Z</time></trkpt><trkpt lat="45.5489062" lon="9.5870597"><ele>139.0</ele><time>2026-04-04T13:49:47.805Z</time></trkpt><trkpt lat="45.5488404" lon="9.5870084"><ele>139.0</ele><time>2026-04-04T13:49:48.81Z</time></trkpt><trkpt lat="45.5487707" lon="9.5869508"><ele>139.0</ele><time>2026-04-04T13:49:49.812Z</time></trkpt><trkpt lat="45.5487027" lon="9.5868973"><ele>139.0</ele><time>2026-04-04T13:49:50.812Z</time></trkpt><trkpt lat="45.5486302" lon="9.5868414"><ele>139.0</ele><time>2026-04-04T13:49:51.812Z</time></trkpt><trkpt lat="45.5485573" lon="9.5867882"><ele>139.0</ele><time>2026-04-04T13:49:52.806Z</time></trkpt><trkpt lat="45.5484876" lon="9.5867416"><ele>139.0</ele><time>2026-04-04T13:49:53.806Z</time></trkpt><trkpt lat="45.5484199" lon="9.5867009"><ele>139.0</ele><time>2026-04-04T13:49:54.81Z</time></trkpt><trkpt lat="45.5483523" lon="9.5866582"><ele>139.0</ele><time>2026-04-04T13:49:55.807Z</time></trkpt><trkpt lat="45.548279" lon="9.5866141"><ele>139.0</ele><time>2026-04-04T13:49:56.813Z</time></trkpt><trkpt lat="45.5482027" lon="9.5865676"><ele>139.0</ele><time>2026-04-04T13:49:57.805Z</time></trkpt><trkpt lat="45.5481324" lon="9.5865259"><ele>139.0</ele><time>2026-04-04T13:49:58.81Z</time></trkpt><trkpt lat="45.5480607" lon="9.5864856"><ele>139.0</ele><time>2026-04-04T13:49:59.81Z</time></trkpt><trkpt lat="45.5479905" lon="9.5864488"><ele>139.0</ele><time>2026-04-04T13:50:00.808Z</time></trkpt><trkpt lat="45.5479179" lon="9.586411"><ele>139.0</ele><time>2026-04-04T13:50:01.807Z</time></trkpt><trkpt lat="45.5478487" lon="9.5863776"><ele>139.0</ele><time>2026-04-04T13:50:02.816Z</time></trkpt><trkpt lat="45.5477748" lon="9.586345"><ele>139.0</ele><time>2026-04-04T13:50:03.806Z</time></trkpt><trkpt lat="45.547702" lon="9.5863124"><ele>139.0</ele><time>2026-04-04T13:50:04.811Z</time></trkpt><trkpt lat="45.5476244" lon="9.586284"><ele>138.83333333333334</ele><time>2026-04-04T13:50:05.805Z</time></trkpt><trkpt lat="45.547551" lon="9.5862571"><ele>138.66666666666669</ele><time>2026-04-04T13:50:06.806Z</time></trkpt><trkpt lat="45.5474753" lon="9.5862338"><ele>138.5</ele><time>2026-04-04T13:50:07.808Z</time></trkpt><trkpt lat="45.5473956" lon="9.5862073"><ele>138.33333333333334</ele><time>2026-04-04T13:50:08.809Z</time></trkpt><trkpt lat="45.5473155" lon="9.5861818"><ele>138.16666666666666</ele><time>2026-04-04T13:50:09.812Z</time></trkpt><trkpt lat="45.5472381" lon="9.5861596"><ele>138.0</ele><time>2026-04-04T13:50:10.817Z</time></trkpt><trkpt lat="45.5471614" lon="9.5861374"><ele>137.83333333333334</ele><time>2026-04-04T13:50:11.806Z</time></trkpt><trkpt lat="45.5470863" lon="9.5861088"><ele>137.66666666666666</ele><time>2026-04-04T13:50:12.822Z</time></trkpt><trkpt lat="45.5470118" lon="9.586092"><ele>137.5</ele><time>2026-04-04T13:50:13.804Z</time></trkpt><trkpt lat="45.5469377" lon="9.5860684"><ele>137.33333333333331</ele><time>2026-04-04T13:50:14.809Z</time></trkpt><trkpt lat="45.5468594" lon="9.5860389"><ele>137.16666666666666</ele><time>2026-04-04T13:50:15.813Z</time></trkpt><trkpt lat="45.5467852" lon="9.5860135"><ele>137.0</ele><time>2026-04-04T13:50:16.807Z</time></trkpt><trkpt lat="45.5467095" lon="9.5859906"><ele>137.0</ele><time>2026-04-04T13:50:17.813Z</time></trkpt><trkpt lat="45.5466318" lon="9.5859764"><ele>137.0</ele><time>2026-04-04T13:50:18.805Z</time></trkpt><trkpt lat="45.5465572" lon="9.5859618"><ele>137.0</ele><time>2026-04-04T13:50:19.808Z</time></trkpt><trkpt lat="45.5464834" lon="9.5859369"><ele>137.0</ele><time>2026-04-04T13:50:20.812Z</time></trkpt><trkpt lat="45.5464086" lon="9.5859094"><ele>137.0</ele><time>2026-04-04T13:50:21.807Z</time></trkpt><trkpt lat="45.5463317" lon="9.5858788"><ele>137.0</ele><time>2026-04-04T13:50:22.808Z</time></trkpt><trkpt lat="45.5462554" lon="9.5858563"><ele>137.0</ele><time>2026-04-04T13:50:23.813Z</time></trkpt><trkpt lat="45.5461774" lon="9.5858394"><ele>137.0</ele><time>2026-04-04T13:50:24.807Z</time></trkpt><trkpt lat="45.5460998" lon="9.5858225"><ele>137.0</ele><time>2026-04-04T13:50:25.81Z</time></trkpt><trkpt lat="45.5460213" lon="9.5857969"><ele>137.0</ele><time>2026-04-04T13:50:26.805Z</time></trkpt><trkpt lat="45.5459413" lon="9.5857741"><ele>137.0</ele><time>2026-04-04T13:50:27.81Z</time></trkpt><trkpt lat="45.5458591" lon="9.5857506"><ele>137.0</ele><time>2026-04-04T13:50:28.808Z</time></trkpt><trkpt lat="45.5457811" lon="9.5857281"><ele>137.0</ele><time>2026-04-04T13:50:29.814Z</time></trkpt><trkpt lat="45.5457055" lon="9.5857043"><ele>137.0</ele><time>2026-04-04T13:50:30.818Z</time></trkpt><trkpt lat="45.5456286" lon="9.5856833"><ele>137.0</ele><time>2026-04-04T13:50:31.808Z</time></trkpt><trkpt lat="45.5455472" lon="9.5856643"><ele>137.0</ele><time>2026-04-04T13:50:32.81Z</time></trkpt><trkpt lat="45.5454719" lon="9.5856371"><ele>137.0</ele><time>2026-04-04T13:50:33.806Z</time></trkpt><trkpt lat="45.5453989" lon="9.5856131"><ele>137.0</ele><time>2026-04-04T13:50:34.807Z</time></trkpt><trkpt lat="45.5453218" lon="9.5855922"><ele>136.71428571428572</ele><time>2026-04-04T13:50:35.805Z</time></trkpt><trkpt lat="45.5452476" lon="9.5855679"><ele>136.42857142857144</ele><time>2026-04-04T13:50:36.811Z</time></trkpt><trkpt lat="45.5451732" lon="9.585548"><ele>136.14285714285714</ele><time>2026-04-04T13:50:37.81Z</time></trkpt><trkpt lat="45.5451019" lon="9.5855245"><ele>135.85714285714286</ele><time>2026-04-04T13:50:38.808Z</time></trkpt><trkpt lat="45.5450288" lon="9.585506"><ele>135.57142857142856</ele><time>2026-04-04T13:50:39.807Z</time></trkpt><trkpt lat="45.5449558" lon="9.5854905"><ele>135.28571428571428</ele><time>2026-04-04T13:50:40.806Z</time></trkpt><trkpt lat="45.5448827" lon="9.5854753"><ele>135.0</ele><time>2026-04-04T13:50:41.81Z</time></trkpt><trkpt lat="45.5448075" lon="9.5854641"><ele>135.0</ele><time>2026-04-04T13:50:42.806Z</time></trkpt><trkpt lat="45.5447356" lon="9.5854478"><ele>135.0</ele><time>2026-04-04T13:50:43.814Z</time></trkpt><trkpt lat="45.5446594" lon="9.5854286"><ele>135.0</ele><time>2026-04-04T13:50:44.807Z</time></trkpt><trkpt lat="45.5445854" lon="9.5854138"><ele>135.0</ele><time>2026-04-04T13:50:45.809Z</time></trkpt><trkpt lat="45.5445095" lon="9.585403"><ele>135.0</ele><time>2026-04-04T13:50:46.806Z</time></trkpt><trkpt lat="45.5444351" lon="9.5853969"><ele>135.0</ele><time>2026-04-04T13:50:47.809Z</time></trkpt><trkpt lat="45.5443555" lon="9.5853849"><ele>135.0</ele><time>2026-04-04T13:50:48.809Z</time></trkpt><trkpt lat="45.5442812" lon="9.5853769"><ele>135.0</ele><time>2026-04-04T13:50:49.809Z</time></trkpt><trkpt lat="45.5442051" lon="9.5853728"><ele>135.0</ele><time>2026-04-04T13:50:50.815Z</time></trkpt><trkpt lat="45.5441319" lon="9.5853694"><ele>135.0</ele><time>2026-04-04T13:50:51.809Z</time></trkpt><trkpt lat="45.5440572" lon="9.5853679"><ele>135.0</ele><time>2026-04-04T13:50:52.806Z</time></trkpt><trkpt lat="45.5439839" lon="9.5853699"><ele>135.0</ele><time>2026-04-04T13:50:53.811Z</time></trkpt><trkpt lat="45.54391" lon="9.5853708"><ele>135.0</ele><time>2026-04-04T13:50:54.81Z</time></trkpt><trkpt lat="45.5438365" lon="9.5853741"><ele>135.0</ele><time>2026-04-04T13:50:55.808Z</time></trkpt><trkpt lat="45.5437576" lon="9.5853754"><ele>135.0</ele><time>2026-04-04T13:50:56.808Z</time></trkpt><trkpt lat="45.543686" lon="9.5853824"><ele>135.0</ele><time>2026-04-04T13:50:57.815Z</time></trkpt><trkpt lat="45.5436134" lon="9.5853911"><ele>135.0</ele><time>2026-04-04T13:50:58.81Z</time></trkpt><trkpt lat="45.5435401" lon="9.5853953"><ele>135.0</ele><time>2026-04-04T13:50:59.807Z</time></trkpt><trkpt lat="45.5434652" lon="9.5854035"><ele>135.0</ele><time>2026-04-04T13:51:00.813Z</time></trkpt><trkpt lat="45.5433921" lon="9.585414"><ele>135.0</ele><time>2026-04-04T13:51:01.809Z</time></trkpt><trkpt lat="45.5433198" lon="9.585422"><ele>135.0</ele><time>2026-04-04T13:51:02.807Z</time></trkpt><trkpt lat="45.5432459" lon="9.585436"><ele>135.0</ele><time>2026-04-04T13:51:03.813Z</time></trkpt><trkpt lat="45.5431739" lon="9.5854477"><ele>135.0</ele><time>2026-04-04T13:51:04.807Z</time></trkpt><trkpt lat="45.5431023" lon="9.5854592"><ele>135.0</ele><time>2026-04-04T13:51:05.82Z</time></trkpt><trkpt lat="45.5430256" lon="9.5854645"><ele>135.0</ele><time>2026-04-04T13:51:06.806Z</time></trkpt><trkpt lat="45.5429548" lon="9.5854799"><ele>135.0</ele><time>2026-04-04T13:51:07.81Z</time></trkpt><trkpt lat="45.5428767" lon="9.5854887"><ele>135.0</ele><time>2026-04-04T13:51:08.81Z</time></trkpt><trkpt lat="45.5428028" lon="9.5854999"><ele>135.0</ele><time>2026-04-04T13:51:09.807Z</time></trkpt><trkpt lat="45.5427287" lon="9.5855123"><ele>135.0</ele><time>2026-04-04T13:51:10.806Z</time></trkpt><trkpt lat="45.5426488" lon="9.585522"><ele>135.0</ele><time>2026-04-04T13:51:11.806Z</time></trkpt><trkpt lat="45.5425693" lon="9.585535"><ele>135.0</ele><time>2026-04-04T13:51:12.811Z</time></trkpt><trkpt lat="45.5424926" lon="9.5855468"><ele>135.0</ele><time>2026-04-04T13:51:13.813Z</time></trkpt><trkpt lat="45.5424155" lon="9.5855653"><ele>135.0</ele><time>2026-04-04T13:51:14.811Z</time></trkpt><trkpt lat="45.5423392" lon="9.5855832"><ele>135.0</ele><time>2026-04-04T13:51:15.804Z</time></trkpt><trkpt lat="45.5422613" lon="9.5856037"><ele>135.0</ele><time>2026-04-04T13:51:16.805Z</time></trkpt><trkpt lat="45.542183" lon="9.5856171"><ele>135.0</ele><time>2026-04-04T13:51:17.807Z</time></trkpt><trkpt lat="45.5421054" lon="9.5856385"><ele>135.0</ele><time>2026-04-04T13:51:18.807Z</time></trkpt><trkpt lat="45.5420274" lon="9.5856567"><ele>135.0</ele><time>2026-04-04T13:51:19.811Z</time></trkpt><trkpt lat="45.5419536" lon="9.5856832"><ele>135.0</ele><time>2026-04-04T13:51:20.811Z</time></trkpt><trkpt lat="45.5418795" lon="9.5856977"><ele>135.28571428571428</ele><time>2026-04-04T13:51:21.81Z</time></trkpt><trkpt lat="45.5418074" lon="9.5857182"><ele>135.57142857142856</ele><time>2026-04-04T13:51:22.806Z</time></trkpt><trkpt lat="45.5417368" lon="9.585739"><ele>135.85714285714286</ele><time>2026-04-04T13:51:23.808Z</time></trkpt><trkpt lat="45.5416639" lon="9.5857583"><ele>136.14285714285714</ele><time>2026-04-04T13:51:24.807Z</time></trkpt><trkpt lat="45.5415909" lon="9.5857744"><ele>136.42857142857144</ele><time>2026-04-04T13:51:25.808Z</time></trkpt><trkpt lat="45.5415194" lon="9.5857925"><ele>136.71428571428572</ele><time>2026-04-04T13:51:26.81Z</time></trkpt><trkpt lat="45.541444" lon="9.5858131"><ele>137.0</ele><time>2026-04-04T13:51:27.806Z</time></trkpt><trkpt lat="45.5413703" lon="9.5858369"><ele>137.00000000000003</ele><time>2026-04-04T13:51:28.815Z</time></trkpt><trkpt lat="45.5412915" lon="9.5858498"><ele>137.0</ele><time>2026-04-04T13:51:29.806Z</time></trkpt><trkpt lat="45.541218" lon="9.5858726"><ele>137.0</ele><time>2026-04-04T13:51:30.805Z</time></trkpt><trkpt lat="45.5411454" lon="9.5858933"><ele>137.0</ele><time>2026-04-04T13:51:31.811Z</time></trkpt><trkpt lat="45.5410732" lon="9.5859137"><ele>137.0</ele><time>2026-04-04T13:51:32.813Z</time></trkpt><trkpt lat="45.5410072" lon="9.5859281"><ele>137.00000000000003</ele><time>2026-04-04T13:51:33.809Z</time></trkpt><trkpt lat="45.5409416" lon="9.5859506"><ele>137.0</ele><time>2026-04-04T13:51:34.811Z</time></trkpt><trkpt lat="45.5408366" lon="9.5859896"><ele>136.79999999999998</ele><time>2026-04-04T13:51:36.806Z</time></trkpt><trkpt lat="45.5407687" lon="9.5859714"><ele>136.6</ele><time>2026-04-04T13:51:38.806Z</time></trkpt><trkpt lat="45.540678" lon="9.5859725"><ele>136.39999999999998</ele><time>2026-04-04T13:51:41.808Z</time></trkpt><trkpt lat="45.5405998" lon="9.5859945"><ele>136.2</ele><time>2026-04-04T13:51:43.805Z</time></trkpt><trkpt lat="45.5404979" lon="9.5860269"><ele>136.0</ele><time>2026-04-04T13:51:45.812Z</time></trkpt><trkpt lat="45.5403844" lon="9.5860641"><ele>135.6</ele><time>2026-04-04T13:51:47.807Z</time></trkpt><trkpt lat="45.540266" lon="9.5860954"><ele>135.2</ele><time>2026-04-04T13:51:49.817Z</time></trkpt><trkpt lat="45.5401449" lon="9.5861346"><ele>134.8</ele><time>2026-04-04T13:51:51.812Z</time></trkpt><trkpt lat="45.5400211" lon="9.586174"><ele>134.4</ele><time>2026-04-04T13:51:53.81Z</time></trkpt><trkpt lat="45.5399539" lon="9.5861935"><ele>134.0</ele><time>2026-04-04T13:51:54.813Z</time></trkpt><trkpt lat="45.5398888" lon="9.5862132"><ele>134.0</ele><time>2026-04-04T13:51:55.808Z</time></trkpt><trkpt lat="45.539822" lon="9.5862338"><ele>134.0</ele><time>2026-04-04T13:51:56.81Z</time></trkpt><trkpt lat="45.5397485" lon="9.5862471"><ele>134.0</ele><time>2026-04-04T13:51:57.814Z</time></trkpt><trkpt lat="45.5396827" lon="9.5862625"><ele>134.0</ele><time>2026-04-04T13:51:58.807Z</time></trkpt><trkpt lat="45.539617" lon="9.5862868"><ele>134.0</ele><time>2026-04-04T13:51:59.806Z</time></trkpt><trkpt lat="45.5395517" lon="9.5863071"><ele>134.0</ele><time>2026-04-04T13:52:00.809Z</time></trkpt><trkpt lat="45.5394834" lon="9.5863262"><ele>134.0</ele><time>2026-04-04T13:52:01.809Z</time></trkpt><trkpt lat="45.539414" lon="9.5863458"><ele>133.85714285714286</ele><time>2026-04-04T13:52:02.813Z</time></trkpt><trkpt lat="45.5393459" lon="9.5863639"><ele>133.71428571428572</ele><time>2026-04-04T13:52:03.813Z</time></trkpt><trkpt lat="45.5392827" lon="9.5863783"><ele>133.57142857142856</ele><time>2026-04-04T13:52:04.806Z</time></trkpt><trkpt lat="45.5392177" lon="9.5863944"><ele>133.42857142857144</ele><time>2026-04-04T13:52:05.813Z</time></trkpt><trkpt lat="45.5391517" lon="9.5864095"><ele>133.28571428571428</ele><time>2026-04-04T13:52:06.809Z</time></trkpt><trkpt lat="45.5390847" lon="9.5864253"><ele>133.14285714285714</ele><time>2026-04-04T13:52:07.806Z</time></trkpt><trkpt lat="45.5390177" lon="9.5864466"><ele>133.0</ele><time>2026-04-04T13:52:08.807Z</time></trkpt><trkpt lat="45.5389551" lon="9.5864695"><ele>133.0</ele><time>2026-04-04T13:52:09.805Z</time></trkpt><trkpt lat="45.5388909" lon="9.5864869"><ele>133.0</ele><time>2026-04-04T13:52:10.806Z</time></trkpt><trkpt lat="45.5388209" lon="9.5865079"><ele>133.0</ele><time>2026-04-04T13:52:11.811Z</time></trkpt><trkpt lat="45.538759" lon="9.5865255"><ele>133.0</ele><time>2026-04-04T13:52:12.807Z</time></trkpt><trkpt lat="45.5386938" lon="9.5865423"><ele>133.0</ele><time>2026-04-04T13:52:13.805Z</time></trkpt><trkpt lat="45.5385751" lon="9.5865689"><ele>133.0</ele><time>2026-04-04T13:52:15.807Z</time></trkpt><trkpt lat="45.5384574" lon="9.5865958"><ele>132.75</ele><time>2026-04-04T13:52:17.806Z</time></trkpt><trkpt lat="45.538344" lon="9.5866338"><ele>132.5</ele><time>2026-04-04T13:52:19.808Z</time></trkpt><trkpt lat="45.5382525" lon="9.5867103"><ele>132.25</ele><time>2026-04-04T13:52:21.806Z</time></trkpt><trkpt lat="45.5381599" lon="9.5867901"><ele>132.0</ele><time>2026-04-04T13:52:23.813Z</time></trkpt><trkpt lat="45.5380481" lon="9.5868656"><ele>132.0</ele><time>2026-04-04T13:52:25.808Z</time></trkpt><trkpt lat="45.5379884" lon="9.5869074"><ele>132.0</ele><time>2026-04-04T13:52:26.805Z</time></trkpt><trkpt lat="45.5379245" lon="9.5869583"><ele>132.0</ele><time>2026-04-04T13:52:27.812Z</time></trkpt><trkpt lat="45.5378649" lon="9.5870048"><ele>132.0</ele><time>2026-04-04T13:52:28.809Z</time></trkpt><trkpt lat="45.5378012" lon="9.5870575"><ele>132.0</ele><time>2026-04-04T13:52:29.805Z</time></trkpt><trkpt lat="45.5377347" lon="9.5871147"><ele>132.0</ele><time>2026-04-04T13:52:30.814Z</time></trkpt><trkpt lat="45.5376691" lon="9.5871764"><ele>132.0</ele><time>2026-04-04T13:52:31.814Z</time></trkpt><trkpt lat="45.5376033" lon="9.5872409"><ele>132.33333333333334</ele><time>2026-04-04T13:52:32.806Z</time></trkpt><trkpt lat="45.5375416" lon="9.5873069"><ele>132.66666666666666</ele><time>2026-04-04T13:52:33.81Z</time></trkpt><trkpt lat="45.5374752" lon="9.5873791"><ele>133.0</ele><time>2026-04-04T13:52:34.81Z</time></trkpt><trkpt lat="45.5374117" lon="9.5874453"><ele>133.33333333333331</ele><time>2026-04-04T13:52:35.808Z</time></trkpt><trkpt lat="45.5373462" lon="9.587507"><ele>133.66666666666666</ele><time>2026-04-04T13:52:36.809Z</time></trkpt><trkpt lat="45.5372858" lon="9.5875701"><ele>134.0</ele><time>2026-04-04T13:52:37.814Z</time></trkpt><trkpt lat="45.537213" lon="9.5876398"><ele>134.0</ele><time>2026-04-04T13:52:38.807Z</time></trkpt><trkpt lat="45.5371034" lon="9.5877142"><ele>134.0</ele><time>2026-04-04T13:52:40.808Z</time></trkpt><trkpt lat="45.5370411" lon="9.5877429"><ele>134.0</ele><time>2026-04-04T13:52:41.81Z</time></trkpt><trkpt lat="45.5369793" lon="9.5877731"><ele>134.0</ele><time>2026-04-04T13:52:42.805Z</time></trkpt><trkpt lat="45.5368597" lon="9.587809"><ele>134.0</ele><time>2026-04-04T13:52:44.808Z</time></trkpt><trkpt lat="45.5367583" lon="9.5878437"><ele>133.8</ele><time>2026-04-04T13:52:46.82Z</time></trkpt><trkpt lat="45.5366598" lon="9.5878703"><ele>133.60000000000002</ele><time>2026-04-04T13:52:48.806Z</time></trkpt><trkpt lat="45.5365676" lon="9.5879115"><ele>133.4</ele><time>2026-04-04T13:52:50.809Z</time></trkpt><trkpt lat="45.5364819" lon="9.5879592"><ele>133.20000000000002</ele><time>2026-04-04T13:52:52.809Z</time></trkpt><trkpt lat="45.5363808" lon="9.5880032"><ele>133.0</ele><time>2026-04-04T13:52:54.809Z</time></trkpt><trkpt lat="45.5362686" lon="9.5880453"><ele>132.6</ele><time>2026-04-04T13:52:56.814Z</time></trkpt><trkpt lat="45.5361587" lon="9.5880847"><ele>132.20000000000002</ele><time>2026-04-04T13:52:58.805Z</time></trkpt><trkpt lat="45.5360418" lon="9.5881295"><ele>131.8</ele><time>2026-04-04T13:53:00.807Z</time></trkpt><trkpt lat="45.5359254" lon="9.5881865"><ele>131.4</ele><time>2026-04-04T13:53:02.815Z</time></trkpt><trkpt lat="45.5358634" lon="9.5882055"><ele>131.0</ele><time>2026-04-04T13:53:03.815Z</time></trkpt><trkpt lat="45.5357453" lon="9.588229"><ele>131.0</ele><time>2026-04-04T13:53:05.808Z</time></trkpt><trkpt lat="45.5356241" lon="9.5882618"><ele>131.0</ele><time>2026-04-04T13:53:07.808Z</time></trkpt><trkpt lat="45.5355077" lon="9.5882721"><ele>131.0</ele><time>2026-04-04T13:53:09.807Z</time></trkpt><trkpt lat="45.5354474" lon="9.5882447"><ele>131.0</ele><time>2026-04-04T13:53:10.805Z</time></trkpt><trkpt lat="45.5353659" lon="9.5881273"><ele>131.0</ele><time>2026-04-04T13:53:12.805Z</time></trkpt><trkpt lat="45.5352769" lon="9.5880143"><ele>131.0</ele><time>2026-04-04T13:53:14.804Z</time></trkpt><trkpt lat="45.5351794" lon="9.5879195"><ele>131.0</ele><time>2026-04-04T13:53:16.807Z</time></trkpt><trkpt lat="45.535144" lon="9.5878387"><ele>131.0</ele><time>2026-04-04T13:53:17.803Z</time></trkpt><trkpt lat="45.5350883" lon="9.5876794"><ele>131.0</ele><time>2026-04-04T13:53:19.806Z</time></trkpt><trkpt lat="45.5350618" lon="9.5875949"><ele>131.0</ele><time>2026-04-04T13:53:20.808Z</time></trkpt><trkpt lat="45.5350276" lon="9.5875166"><ele>131.0</ele><time>2026-04-04T13:53:21.811Z</time></trkpt><trkpt lat="45.5349942" lon="9.5874294"><ele>131.0</ele><time>2026-04-04T13:53:22.805Z</time></trkpt><trkpt lat="45.5349535" lon="9.5873502"><ele>131.0</ele><time>2026-04-04T13:53:23.813Z</time></trkpt><trkpt lat="45.5349064" lon="9.5872793"><ele>131.0</ele><time>2026-04-04T13:53:24.811Z</time></trkpt><trkpt lat="45.5348562" lon="9.5872176"><ele>131.0</ele><time>2026-04-04T13:53:25.811Z</time></trkpt><trkpt lat="45.5347933" lon="9.5871679"><ele>131.0</ele><time>2026-04-04T13:53:26.806Z</time></trkpt><trkpt lat="45.5347331" lon="9.5871217"><ele>131.0</ele><time>2026-04-04T13:53:27.809Z</time></trkpt><trkpt lat="45.5346656" lon="9.5870832"><ele>131.0</ele><time>2026-04-04T13:53:28.811Z</time></trkpt><trkpt lat="45.534597" lon="9.5870564"><ele>131.0</ele><time>2026-04-04T13:53:29.804Z</time></trkpt><trkpt lat="45.534529" lon="9.5870237"><ele>131.0</ele><time>2026-04-04T13:53:30.808Z</time></trkpt><trkpt lat="45.5344609" lon="9.5869937"><ele>131.0</ele><time>2026-04-04T13:53:31.81Z</time></trkpt><trkpt lat="45.5343927" lon="9.5869618"><ele>131.0</ele><time>2026-04-04T13:53:32.806Z</time></trkpt><trkpt lat="45.5343206" lon="9.5869238"><ele>131.0</ele><time>2026-04-04T13:53:33.806Z</time></trkpt><trkpt lat="45.5342541" lon="9.5868916"><ele>131.0</ele><time>2026-04-04T13:53:34.806Z</time></trkpt><trkpt lat="45.5341855" lon="9.5868604"><ele>131.0</ele><time>2026-04-04T13:53:35.819Z</time></trkpt><trkpt lat="45.534116" lon="9.5868301"><ele>131.0</ele><time>2026-04-04T13:53:36.805Z</time></trkpt><trkpt lat="45.5340423" lon="9.5867974"><ele>131.0</ele><time>2026-04-04T13:53:37.809Z</time></trkpt><trkpt lat="45.5339715" lon="9.5867647"><ele>131.0</ele><time>2026-04-04T13:53:38.807Z</time></trkpt><trkpt lat="45.5339069" lon="9.5867308"><ele>131.0</ele><time>2026-04-04T13:53:39.81Z</time></trkpt><trkpt lat="45.5338337" lon="9.5867086"><ele>131.0</ele><time>2026-04-04T13:53:40.807Z</time></trkpt><trkpt lat="45.5337671" lon="9.5866784"><ele>131.0</ele><time>2026-04-04T13:53:41.808Z</time></trkpt><trkpt lat="45.533697" lon="9.5866519"><ele>131.0</ele><time>2026-04-04T13:53:42.805Z</time></trkpt><trkpt lat="45.533632" lon="9.5866182"><ele>131.0</ele><time>2026-04-04T13:53:43.811Z</time></trkpt><trkpt lat="45.5335706" lon="9.5865929"><ele>131.0</ele><time>2026-04-04T13:53:44.805Z</time></trkpt><trkpt lat="45.5335084" lon="9.5865625"><ele>131.0</ele><time>2026-04-04T13:53:45.807Z</time></trkpt><trkpt lat="45.5333881" lon="9.5865019"><ele>131.0</ele><time>2026-04-04T13:53:47.812Z</time></trkpt><trkpt lat="45.5333212" lon="9.5864755"><ele>131.0</ele><time>2026-04-04T13:53:48.81Z</time></trkpt><trkpt lat="45.5332585" lon="9.5864462"><ele>131.0</ele><time>2026-04-04T13:53:49.806Z</time></trkpt><trkpt lat="45.5331933" lon="9.5864238"><ele>131.0</ele><time>2026-04-04T13:53:50.81Z</time></trkpt><trkpt lat="45.5331343" lon="9.5863906"><ele>131.0</ele><time>2026-04-04T13:53:51.809Z</time></trkpt><trkpt lat="45.5330723" lon="9.5863624"><ele>131.0</ele><time>2026-04-04T13:53:52.812Z</time></trkpt><trkpt lat="45.5329505" lon="9.5863032"><ele>131.0</ele><time>2026-04-04T13:53:54.81Z</time></trkpt><trkpt lat="45.5328322" lon="9.5862491"><ele>131.0</ele><time>2026-04-04T13:53:56.807Z</time></trkpt><trkpt lat="45.5327371" lon="9.5862056"><ele>131.0</ele><time>2026-04-04T13:53:58.808Z</time></trkpt><trkpt lat="45.5326678" lon="9.5861759"><ele>131.0</ele><time>2026-04-04T13:54:00.807Z</time></trkpt><trkpt lat="45.5326357" lon="9.5862596"><ele>131.0</ele><time>2026-04-04T13:54:03.807Z</time></trkpt><trkpt lat="45.5325853" lon="9.5863656"><ele>131.0</ele><time>2026-04-04T13:54:06.809Z</time></trkpt><trkpt lat="45.5325463" lon="9.5864651"><ele>131.0</ele><time>2026-04-04T13:54:08.805Z</time></trkpt><trkpt lat="45.532561" lon="9.5865796"><ele>131.0</ele><time>2026-04-04T13:54:10.814Z</time></trkpt><trkpt lat="45.5325674" lon="9.5866872"><ele>131.0</ele><time>2026-04-04T13:54:12.809Z</time></trkpt><trkpt lat="45.5325076" lon="9.5867566"><ele>131.0</ele><time>2026-04-04T13:54:15.811Z</time></trkpt><trkpt lat="45.5324465" lon="9.5868226"><ele>131.0</ele><time>2026-04-04T13:54:18.804Z</time></trkpt><trkpt lat="45.5324067" lon="9.5869003"><ele>131.0</ele><time>2026-04-04T13:54:20.807Z</time></trkpt><trkpt lat="45.5323592" lon="9.5869953"><ele>131.0</ele><time>2026-04-04T13:54:22.808Z</time></trkpt><trkpt lat="45.5323054" lon="9.5870938"><ele>131.0</ele><time>2026-04-04T13:54:24.809Z</time></trkpt><trkpt lat="45.5322536" lon="9.5872291"><ele>131.0</ele><time>2026-04-04T13:54:26.812Z</time></trkpt><trkpt lat="45.5322104" lon="9.5873406"><ele>131.0</ele><time>2026-04-04T13:54:28.811Z</time></trkpt><trkpt lat="45.5321165" lon="9.5874292"><ele>131.0</ele><time>2026-04-04T13:54:30.819Z</time></trkpt><trkpt lat="45.532041" lon="9.5875382"><ele>131.0</ele><time>2026-04-04T13:54:32.808Z</time></trkpt><trkpt lat="45.5319671" lon="9.5876517"><ele>131.0</ele><time>2026-04-04T13:54:34.818Z</time></trkpt><trkpt lat="45.5319507" lon="9.5877449"><ele>131.0</ele><time>2026-04-04T13:54:35.818Z</time></trkpt><trkpt lat="45.5319189" lon="9.5878952"><ele>131.0</ele><time>2026-04-04T13:54:37.815Z</time></trkpt><trkpt lat="45.5318949" lon="9.5880259"><ele>131.0</ele><time>2026-04-04T13:54:39.811Z</time></trkpt><trkpt lat="45.5318924" lon="9.5881399"><ele>131.0</ele><time>2026-04-04T13:54:41.809Z</time></trkpt><trkpt lat="45.5319101" lon="9.5882546"><ele>131.0</ele><time>2026-04-04T13:54:44.812Z</time></trkpt><trkpt lat="45.5318589" lon="9.5883694"><ele>131.0</ele><time>2026-04-04T13:54:47.804Z</time></trkpt><trkpt lat="45.531813" lon="9.5884375"><ele>131.0</ele><time>2026-04-04T13:54:48.805Z</time></trkpt><trkpt lat="45.5317421" lon="9.5885396"><ele>131.0</ele><time>2026-04-04T13:54:50.809Z</time></trkpt><trkpt lat="45.5316902" lon="9.5886795"><ele>131.0</ele><time>2026-04-04T13:54:52.808Z</time></trkpt><trkpt lat="45.531635" lon="9.5888017"><ele>131.0</ele><time>2026-04-04T13:54:54.809Z</time></trkpt><trkpt lat="45.531553" lon="9.5889089"><ele>131.0</ele><time>2026-04-04T13:54:56.806Z</time></trkpt><trkpt lat="45.5314608" lon="9.5889722"><ele>131.0</ele><time>2026-04-04T13:54:58.807Z</time></trkpt><trkpt lat="45.5313538" lon="9.5890252"><ele>131.0</ele><time>2026-04-04T13:55:00.809Z</time></trkpt><trkpt lat="45.5312413" lon="9.5890764"><ele>131.0</ele><time>2026-04-04T13:55:02.81Z</time></trkpt><trkpt lat="45.5311496" lon="9.5891218"><ele>131.0</ele><time>2026-04-04T13:55:04.81Z</time></trkpt><trkpt lat="45.5310465" lon="9.5891601"><ele>130.66666666666666</ele><time>2026-04-04T13:55:06.81Z</time></trkpt><trkpt lat="45.5309698" lon="9.5891978"><ele>130.33333333333331</ele><time>2026-04-04T13:55:08.805Z</time></trkpt><trkpt lat="45.5308999" lon="9.5892279"><ele>130.0</ele><time>2026-04-04T13:55:11.81Z</time></trkpt><trkpt lat="45.5308267" lon="9.5892558"><ele>129.66666666666666</ele><time>2026-04-04T13:55:15.805Z</time></trkpt><trkpt lat="45.5307374" lon="9.5892998"><ele>129.33333333333334</ele><time>2026-04-04T13:55:18.821Z</time></trkpt><trkpt lat="45.530673" lon="9.5893735"><ele>129.0</ele><time>2026-04-04T13:55:20.808Z</time></trkpt><trkpt lat="45.5305865" lon="9.58945"><ele>129.2</ele><time>2026-04-04T13:55:22.805Z</time></trkpt><trkpt lat="45.5304882" lon="9.5895456"><ele>129.4</ele><time>2026-04-04T13:55:24.81Z</time></trkpt><trkpt lat="45.5304282" lon="9.589588"><ele>129.6</ele><time>2026-04-04T13:55:25.806Z</time></trkpt><trkpt lat="45.5303379" lon="9.5896966"><ele>129.8</ele><time>2026-04-04T13:55:27.808Z</time></trkpt><trkpt lat="45.5302479" lon="9.5898005"><ele>130.0</ele><time>2026-04-04T13:55:29.804Z</time></trkpt><trkpt lat="45.5301949" lon="9.5898514"><ele>130.0</ele><time>2026-04-04T13:55:30.804Z</time></trkpt><trkpt lat="45.5300996" lon="9.589938"><ele>130.0</ele><time>2026-04-04T13:55:32.807Z</time></trkpt><trkpt lat="45.530005" lon="9.5900236"><ele>130.0</ele><time>2026-04-04T13:55:34.812Z</time></trkpt><trkpt lat="45.529916" lon="9.5901046"><ele>130.0</ele><time>2026-04-04T13:55:36.805Z</time></trkpt><trkpt lat="45.5298299" lon="9.5901884"><ele>130.0</ele><time>2026-04-04T13:55:38.82Z</time></trkpt><trkpt lat="45.5297429" lon="9.5903015"><ele>130.2</ele><time>2026-04-04T13:55:40.814Z</time></trkpt><trkpt lat="45.5296514" lon="9.5903748"><ele>130.4</ele><time>2026-04-04T13:55:42.805Z</time></trkpt><trkpt lat="45.5295621" lon="9.5904559"><ele>130.6</ele><time>2026-04-04T13:55:44.815Z</time></trkpt><trkpt lat="45.5294728" lon="9.5905281"><ele>130.8</ele><time>2026-04-04T13:55:46.808Z</time></trkpt><trkpt lat="45.5294085" lon="9.5906085"><ele>131.0</ele><time>2026-04-04T13:55:48.805Z</time></trkpt><trkpt lat="45.5293435" lon="9.5906979"><ele>130.6</ele><time>2026-04-04T13:55:50.804Z</time></trkpt><trkpt lat="45.5292706" lon="9.5907888"><ele>130.2</ele><time>2026-04-04T13:55:52.811Z</time></trkpt><trkpt lat="45.529194" lon="9.590888"><ele>129.8</ele><time>2026-04-04T13:55:54.814Z</time></trkpt><trkpt lat="45.529132" lon="9.5910004"><ele>129.4</ele><time>2026-04-04T13:55:56.811Z</time></trkpt><trkpt lat="45.5290435" lon="9.5910926"><ele>129.0</ele><time>2026-04-04T13:55:58.806Z</time></trkpt><trkpt lat="45.5289563" lon="9.5911547"><ele>129.0</ele><time>2026-04-04T13:56:00.809Z</time></trkpt><trkpt lat="45.5288519" lon="9.5912073"><ele>129.0</ele><time>2026-04-04T13:56:02.803Z</time></trkpt><trkpt lat="45.5287386" lon="9.5912469"><ele>129.0</ele><time>2026-04-04T13:56:04.808Z</time></trkpt><trkpt lat="45.5286331" lon="9.591302"><ele>129.0</ele><time>2026-04-04T13:56:06.805Z</time></trkpt><trkpt lat="45.528535" lon="9.5913467"><ele>129.0</ele><time>2026-04-04T13:56:08.809Z</time></trkpt><trkpt lat="45.5284494" lon="9.5913741"><ele>128.8</ele><time>2026-04-04T13:56:10.804Z</time></trkpt><trkpt lat="45.5283621" lon="9.5913475"><ele>128.60000000000002</ele><time>2026-04-04T13:56:12.807Z</time></trkpt><trkpt lat="45.5282636" lon="9.5913561"><ele>128.4</ele><time>2026-04-04T13:56:14.805Z</time></trkpt><trkpt lat="45.5281719" lon="9.5914319"><ele>128.20000000000002</ele><time>2026-04-04T13:56:16.805Z</time></trkpt><trkpt lat="45.5280937" lon="9.5915505"><ele>128.0</ele><time>2026-04-04T13:56:18.805Z</time></trkpt><trkpt lat="45.5280198" lon="9.5916758"><ele>128.0</ele><time>2026-04-04T13:56:20.808Z</time></trkpt><trkpt lat="45.5279455" lon="9.5918027"><ele>128.0</ele><time>2026-04-04T13:56:22.809Z</time></trkpt><trkpt lat="45.5278704" lon="9.5919321"><ele>128.0</ele><time>2026-04-04T13:56:24.808Z</time></trkpt><trkpt lat="45.5277928" lon="9.5920685"><ele>128.0</ele><time>2026-04-04T13:56:26.809Z</time></trkpt><trkpt lat="45.5277178" lon="9.5922007"><ele>128.33333333333331</ele><time>2026-04-04T13:56:28.812Z</time></trkpt><trkpt lat="45.5276736" lon="9.5922666"><ele>128.66666666666666</ele><time>2026-04-04T13:56:29.803Z</time></trkpt><trkpt lat="45.5276282" lon="9.5923302"><ele>129.0</ele><time>2026-04-04T13:56:30.806Z</time></trkpt><trkpt lat="45.5275299" lon="9.5924295"><ele>129.33333333333334</ele><time>2026-04-04T13:56:32.802Z</time></trkpt><trkpt lat="45.5274731" lon="9.592469"><ele>129.66666666666669</ele><time>2026-04-04T13:56:33.813Z</time></trkpt><trkpt lat="45.5273644" lon="9.5925357"><ele>130.0</ele><time>2026-04-04T13:56:35.814Z</time></trkpt><trkpt lat="45.5272549" lon="9.5925974"><ele>130.0</ele><time>2026-04-04T13:56:37.813Z</time></trkpt><trkpt lat="45.5271551" lon="9.5926656"><ele>130.0</ele><time>2026-04-04T13:56:39.806Z</time></trkpt><trkpt lat="45.5270418" lon="9.5927149"><ele>130.0</ele><time>2026-04-04T13:56:41.811Z</time></trkpt><trkpt lat="45.5269803" lon="9.5927451"><ele>130.0</ele><time>2026-04-04T13:56:42.805Z</time></trkpt><trkpt lat="45.5268564" lon="9.5927876"><ele>130.0</ele><time>2026-04-04T13:56:44.805Z</time></trkpt><trkpt lat="45.526791" lon="9.592809"><ele>129.83333333333334</ele><time>2026-04-04T13:56:45.812Z</time></trkpt><trkpt lat="45.5266686" lon="9.5928499"><ele>129.66666666666669</ele><time>2026-04-04T13:56:47.806Z</time></trkpt><trkpt lat="45.5266054" lon="9.5928754"><ele>129.5</ele><time>2026-04-04T13:56:48.81Z</time></trkpt><trkpt lat="45.5265389" lon="9.5928861"><ele>129.33333333333334</ele><time>2026-04-04T13:56:49.806Z</time></trkpt><trkpt lat="45.5264754" lon="9.5929083"><ele>129.16666666666666</ele><time>2026-04-04T13:56:50.806Z</time></trkpt><trkpt lat="45.52641" lon="9.5929194"><ele>129.0</ele><time>2026-04-04T13:56:51.82Z</time></trkpt><trkpt lat="45.5263428" lon="9.5929291"><ele>128.99999999999997</ele><time>2026-04-04T13:56:52.807Z</time></trkpt><trkpt lat="45.526278" lon="9.5929461"><ele>129.0</ele><time>2026-04-04T13:56:53.805Z</time></trkpt><trkpt lat="45.5262152" lon="9.592959"><ele>129.0</ele><time>2026-04-04T13:56:54.808Z</time></trkpt><trkpt lat="45.5261452" lon="9.5929657"><ele>129.0</ele><time>2026-04-04T13:56:55.818Z</time></trkpt><trkpt lat="45.5260762" lon="9.5929847"><ele>129.0</ele><time>2026-04-04T13:56:56.806Z</time></trkpt><trkpt lat="45.5260096" lon="9.5929979"><ele>128.99999999999997</ele><time>2026-04-04T13:56:57.809Z</time></trkpt><trkpt lat="45.5259434" lon="9.593011"><ele>129.0</ele><time>2026-04-04T13:56:58.808Z</time></trkpt><trkpt lat="45.5258224" lon="9.5930346"><ele>129.16666666666666</ele><time>2026-04-04T13:57:00.81Z</time></trkpt><trkpt lat="45.5257561" lon="9.5930549"><ele>129.33333333333334</ele><time>2026-04-04T13:57:01.81Z</time></trkpt><trkpt lat="45.5256931" lon="9.5930718"><ele>129.5</ele><time>2026-04-04T13:57:02.809Z</time></trkpt><trkpt lat="45.5256288" lon="9.5930882"><ele>129.66666666666669</ele><time>2026-04-04T13:57:03.813Z</time></trkpt><trkpt lat="45.5255049" lon="9.5931148"><ele>129.83333333333334</ele><time>2026-04-04T13:57:05.804Z</time></trkpt><trkpt lat="45.5254376" lon="9.5931198"><ele>130.0</ele><time>2026-04-04T13:57:06.81Z</time></trkpt><trkpt lat="45.5253733" lon="9.5931365"><ele>130.0</ele><time>2026-04-04T13:57:07.807Z</time></trkpt><trkpt lat="45.5252555" lon="9.5931576"><ele>130.0</ele><time>2026-04-04T13:57:09.812Z</time></trkpt><trkpt lat="45.5251448" lon="9.5932055"><ele>130.0</ele><time>2026-04-04T13:57:11.808Z</time></trkpt><trkpt lat="45.5250431" lon="9.5932377"><ele>130.0</ele><time>2026-04-04T13:57:13.806Z</time></trkpt><trkpt lat="45.5249528" lon="9.5932618"><ele>130.0</ele><time>2026-04-04T13:57:15.804Z</time></trkpt><trkpt lat="45.5248581" lon="9.5932991"><ele>130.0</ele><time>2026-04-04T13:57:17.803Z</time></trkpt><trkpt lat="45.5247577" lon="9.5933281"><ele>130.0</ele><time>2026-04-04T13:57:19.812Z</time></trkpt><trkpt lat="45.5246611" lon="9.5933507"><ele>130.0</ele><time>2026-04-04T13:57:21.81Z</time></trkpt><trkpt lat="45.5245682" lon="9.5933774"><ele>130.0</ele><time>2026-04-04T13:57:23.806Z</time></trkpt><trkpt lat="45.5244763" lon="9.5934048"><ele>130.0</ele><time>2026-04-04T13:57:25.808Z</time></trkpt><trkpt lat="45.524386" lon="9.5934358"><ele>130.0</ele><time>2026-04-04T13:57:27.805Z</time></trkpt><trkpt lat="45.5243017" lon="9.5934472"><ele>130.0</ele><time>2026-04-04T13:57:29.804Z</time></trkpt><trkpt lat="45.5242275" lon="9.5934424"><ele>130.0</ele><time>2026-04-04T13:57:31.804Z</time></trkpt><trkpt lat="45.5241456" lon="9.5934597"><ele>130.0</ele><time>2026-04-04T13:57:34.81Z</time></trkpt><trkpt lat="45.5240825" lon="9.5934271"><ele>130.0</ele><time>2026-04-04T13:57:40.805Z</time></trkpt><trkpt lat="45.5239871" lon="9.5934372"><ele>130.0</ele><time>2026-04-04T13:58:39.805Z</time></trkpt><trkpt lat="45.5239064" lon="9.593462"><ele>130.0</ele><time>2026-04-04T13:58:41.817Z</time></trkpt><trkpt lat="45.5238195" lon="9.5934791"><ele>130.0</ele><time>2026-04-04T13:58:43.804Z</time></trkpt><trkpt lat="45.523726" lon="9.593503"><ele>130.0</ele><time>2026-04-04T13:58:45.804Z</time></trkpt><trkpt lat="45.5236376" lon="9.5935077"><ele>130.0</ele><time>2026-04-04T13:58:47.805Z</time></trkpt><trkpt lat="45.5235311" lon="9.593539"><ele>130.0</ele><time>2026-04-04T13:58:49.81Z</time></trkpt><trkpt lat="45.5234435" lon="9.5935415"><ele>130.0</ele><time>2026-04-04T13:58:51.803Z</time></trkpt><trkpt lat="45.5233598" lon="9.5935438"><ele>130.0</ele><time>2026-04-04T13:58:53.814Z</time></trkpt><trkpt lat="45.5232601" lon="9.5935156"><ele>130.0</ele><time>2026-04-04T13:58:56.81Z</time></trkpt><trkpt lat="45.5231919" lon="9.5935121"><ele>130.0</ele><time>2026-04-04T13:58:58.805Z</time></trkpt><trkpt lat="45.5231127" lon="9.5935126"><ele>130.0</ele><time>2026-04-04T13:59:00.809Z</time></trkpt><trkpt lat="45.523033" lon="9.5934988"><ele>130.0</ele><time>2026-04-04T13:59:03.808Z</time></trkpt><trkpt lat="45.5229365" lon="9.5934923"><ele>129.85714285714286</ele><time>2026-04-04T13:59:06.805Z</time></trkpt><trkpt lat="45.5228668" lon="9.5934803"><ele>129.71428571428572</ele><time>2026-04-04T13:59:08.808Z</time></trkpt><trkpt lat="45.5227974" lon="9.5934621"><ele>129.57142857142856</ele><time>2026-04-04T13:59:10.807Z</time></trkpt><trkpt lat="45.5227284" lon="9.5934386"><ele>129.42857142857144</ele><time>2026-04-04T13:59:12.805Z</time></trkpt><trkpt lat="45.5226526" lon="9.5934127"><ele>129.28571428571428</ele><time>2026-04-04T13:59:14.807Z</time></trkpt><trkpt lat="45.5225813" lon="9.5933838"><ele>129.14285714285714</ele><time>2026-04-04T13:59:16.809Z</time></trkpt><trkpt lat="45.5225012" lon="9.5933793"><ele>129.0</ele><time>2026-04-04T13:59:18.808Z</time></trkpt><trkpt lat="45.5224162" lon="9.5933884"><ele>129.0</ele><time>2026-04-04T13:59:20.809Z</time></trkpt><trkpt lat="45.5223355" lon="9.5934193"><ele>129.0</ele><time>2026-04-04T13:59:22.808Z</time></trkpt><trkpt lat="45.5222646" lon="9.593431"><ele>129.0</ele><time>2026-04-04T13:59:24.806Z</time></trkpt><trkpt lat="45.5221718" lon="9.5934468"><ele>129.0</ele><time>2026-04-04T13:59:27.809Z</time></trkpt><trkpt lat="45.5220953" lon="9.5934768"><ele>129.0</ele><time>2026-04-04T13:59:29.81Z</time></trkpt><trkpt lat="45.5220158" lon="9.5935071"><ele>129.0</ele><time>2026-04-04T13:59:31.802Z</time></trkpt><trkpt lat="45.5219371" lon="9.5935271"><ele>129.33333333333334</ele><time>2026-04-04T13:59:33.804Z</time></trkpt><trkpt lat="45.5218666" lon="9.5935295"><ele>129.66666666666666</ele><time>2026-04-04T13:59:35.804Z</time></trkpt><trkpt lat="45.5217936" lon="9.5934506"><ele>130.0</ele><time>2026-04-04T13:59:38.809Z</time></trkpt><trkpt lat="45.5217544" lon="9.5933348"><ele>130.33333333333331</ele><time>2026-04-04T13:59:41.81Z</time></trkpt><trkpt lat="45.5217215" lon="9.5932175"><ele>130.66666666666666</ele><time>2026-04-04T13:59:44.808Z</time></trkpt><trkpt lat="45.5216776" lon="9.5931041"><ele>131.0</ele><time>2026-04-04T13:59:47.802Z</time></trkpt><trkpt lat="45.5216099" lon="9.5930157"><ele>131.0</ele><time>2026-04-04T13:59:51.806Z</time></trkpt><trkpt lat="45.5215722" lon="9.592929"><ele>131.0</ele><time>2026-04-04T13:59:53.808Z</time></trkpt><trkpt lat="45.5215348" lon="9.5928382"><ele>131.0</ele><time>2026-04-04T13:59:55.804Z</time></trkpt><trkpt lat="45.5214856" lon="9.5927736"><ele>131.0</ele><time>2026-04-04T13:59:57.804Z</time></trkpt><trkpt lat="45.5214138" lon="9.5927006"><ele>131.0</ele><time>2026-04-04T14:00:00.804Z</time></trkpt><trkpt lat="45.5213489" lon="9.5926634"><ele>131.0</ele><time>2026-04-04T14:00:03.811Z</time></trkpt><trkpt lat="45.521266" lon="9.5926104"><ele>128.0</ele><time>2026-04-04T14:00:06.803Z</time></trkpt><trkpt lat="45.521203" lon="9.5925911"><ele>127.0</ele><time>2026-04-04T14:00:08.812Z</time></trkpt><trkpt lat="45.5211402" lon="9.5925732"><ele>127.0</ele><time>2026-04-04T14:00:10.81Z</time></trkpt><trkpt lat="45.5210772" lon="9.5925662"><ele>127.0</ele><time>2026-04-04T14:00:13.808Z</time></trkpt></trkseg></trk></gpx>